<?xml version="1.0" encoding="UTF-8" standalone="no" ?>
<gpx xmlns="http://www.topografix.com/GPX/1/1" xmlns:xsi="http://www.w3.org/2001/XMLSchema-instance" xsi:schemaLocation="http://www.topografix.com/GPX/1/1 http://www.topografix.com/GPX/1/1/gpx.xsd" version="1.1" creator="VisuGPX - https://www.visugpx.com">
  <metadata>
    <name>MONT ROSSET</name>
    <desc><![CDATA[Superbe ballade. Peu de risque d\'avalanche, neige exceptionnelle avec une bonne descente, paysage majestueux ]]></desc>
  </metadata>
  <wpt lat="45.62035" lon="6.66071">
    <ele>2412</ele>
  </wpt>
  <trk>
    <name><![CDATA[MONT ROSSET_1]]></name>
    <trkseg>
      <trkpt lat="45.59209" lon="6.67083">
        <ele>1362.9</ele>
        <time>2014-03-02T08:53:36Z</time>
      </trkpt>
      <trkpt lat="45.59209" lon="6.67084">
        <ele>1362.9</ele>
        <time>2014-03-02T08:53:41Z</time>
      </trkpt>
      <trkpt lat="45.59208" lon="6.67081">
        <ele>1362.9</ele>
        <time>2014-03-02T08:53:47Z</time>
      </trkpt>
      <trkpt lat="45.59208" lon="6.67081">
        <ele>1362.9</ele>
        <time>2014-03-02T08:53:51Z</time>
      </trkpt>
      <trkpt lat="45.59208" lon="6.67081">
        <ele>1362.9</ele>
        <time>2014-03-02T08:53:57Z</time>
      </trkpt>
      <trkpt lat="45.59211" lon="6.67081">
        <ele>1362.9</ele>
        <time>2014-03-02T08:55:06Z</time>
      </trkpt>
      <trkpt lat="45.5921" lon="6.6708">
        <ele>1362.9</ele>
        <time>2014-03-02T08:55:14Z</time>
      </trkpt>
      <trkpt lat="45.5921" lon="6.6708">
        <ele>1362.9</ele>
        <time>2014-03-02T08:55:18Z</time>
      </trkpt>
      <trkpt lat="45.5921" lon="6.6708">
        <ele>1362.9</ele>
        <time>2014-03-02T08:55:23Z</time>
      </trkpt>
      <trkpt lat="45.5921" lon="6.6708">
        <ele>1362.9</ele>
        <time>2014-03-02T08:55:27Z</time>
      </trkpt>
      <trkpt lat="45.5921" lon="6.6708">
        <ele>1362.9</ele>
        <time>2014-03-02T08:55:33Z</time>
      </trkpt>
      <trkpt lat="45.5921" lon="6.6708">
        <ele>1362.9</ele>
        <time>2014-03-02T08:55:48Z</time>
      </trkpt>
      <trkpt lat="45.5921" lon="6.6708">
        <ele>1362.9</ele>
        <time>2014-03-02T08:55:52Z</time>
      </trkpt>
      <trkpt lat="45.5921" lon="6.6708">
        <ele>1362.9</ele>
        <time>2014-03-02T08:56:04Z</time>
      </trkpt>
      <trkpt lat="45.5921" lon="6.6708">
        <ele>1362.9</ele>
        <time>2014-03-02T08:56:06Z</time>
      </trkpt>
      <trkpt lat="45.5921" lon="6.6708">
        <ele>1362.9</ele>
        <time>2014-03-02T08:56:11Z</time>
      </trkpt>
      <trkpt lat="45.5921" lon="6.67081">
        <ele>1362.9</ele>
        <time>2014-03-02T08:56:18Z</time>
      </trkpt>
      <trkpt lat="45.59209" lon="6.67081">
        <ele>1418.1648</ele>
        <time>2014-03-02T08:56:32Z</time>
      </trkpt>
      <trkpt lat="45.59209" lon="6.67081">
        <ele>1418.1648</ele>
        <time>2014-03-02T08:56:37Z</time>
      </trkpt>
      <trkpt lat="45.59209" lon="6.67081">
        <ele>1418.1648</ele>
        <time>2014-03-02T08:56:41Z</time>
      </trkpt>
      <trkpt lat="45.59209" lon="6.67081">
        <ele>1418.1648</ele>
        <time>2014-03-02T08:56:46Z</time>
      </trkpt>
      <trkpt lat="45.59209" lon="6.67081">
        <ele>1418.1648</ele>
        <time>2014-03-02T08:56:56Z</time>
      </trkpt>
      <trkpt lat="45.59209" lon="6.67081">
        <ele>1418.1648</ele>
        <time>2014-03-02T08:57:06Z</time>
      </trkpt>
      <trkpt lat="45.5925" lon="6.67082">
        <ele>1424.7651</ele>
        <time>2014-03-02T08:57:45Z</time>
      </trkpt>
      <trkpt lat="45.59271" lon="6.67078">
        <ele>1431.2245</ele>
        <time>2014-03-02T08:58:04Z</time>
      </trkpt>
      <trkpt lat="45.59277" lon="6.67074">
        <ele>1431.2245</ele>
        <time>2014-03-02T08:58:15Z</time>
      </trkpt>
      <trkpt lat="45.59304" lon="6.67079">
        <ele>1437.6506</ele>
        <time>2014-03-02T08:58:35Z</time>
      </trkpt>
      <trkpt lat="45.59304" lon="6.67079">
        <ele>1437.6506</ele>
        <time>2014-03-02T08:58:37Z</time>
      </trkpt>
      <trkpt lat="45.5931" lon="6.67078">
        <ele>1437.6506</ele>
        <time>2014-03-02T08:58:44Z</time>
      </trkpt>
      <trkpt lat="45.59317" lon="6.67074">
        <ele>1445.627</ele>
        <time>2014-03-02T08:58:55Z</time>
      </trkpt>
      <trkpt lat="45.59326" lon="6.67076">
        <ele>1452.579</ele>
        <time>2014-03-02T08:59:07Z</time>
      </trkpt>
      <trkpt lat="45.59332" lon="6.67076">
        <ele>1452.579</ele>
        <time>2014-03-02T08:59:14Z</time>
      </trkpt>
      <trkpt lat="45.59347" lon="6.6708">
        <ele>1457.2682</ele>
        <time>2014-03-02T08:59:27Z</time>
      </trkpt>
      <trkpt lat="45.5935" lon="6.67081">
        <ele>1457.2682</ele>
        <time>2014-03-02T08:59:27Z</time>
      </trkpt>
      <trkpt lat="45.59354" lon="6.67081">
        <ele>1457.2682</ele>
        <time>2014-03-02T08:59:36Z</time>
      </trkpt>
      <trkpt lat="45.59359" lon="6.67084">
        <ele>1461.856</ele>
        <time>2014-03-02T08:59:36Z</time>
      </trkpt>
      <trkpt lat="45.59361" lon="6.67083">
        <ele>1461.856</ele>
        <time>2014-03-02T08:59:45Z</time>
      </trkpt>
      <trkpt lat="45.59367" lon="6.67081">
        <ele>1461.856</ele>
        <time>2014-03-02T08:59:54Z</time>
      </trkpt>
      <trkpt lat="45.59375" lon="6.67079">
        <ele>1466.2269</ele>
        <time>2014-03-02T09:00:07Z</time>
      </trkpt>
      <trkpt lat="45.59424" lon="6.67054">
        <ele>1468.9398</ele>
        <time>2014-03-02T09:01:04Z</time>
      </trkpt>
      <trkpt lat="45.5943" lon="6.67051">
        <ele>1468.9398</ele>
        <time>2014-03-02T09:01:13Z</time>
      </trkpt>
      <trkpt lat="45.59437" lon="6.67043">
        <ele>1471.3348</ele>
        <time>2014-03-02T09:01:22Z</time>
      </trkpt>
      <trkpt lat="45.59442" lon="6.67042">
        <ele>1471.3348</ele>
        <time>2014-03-02T09:01:28Z</time>
      </trkpt>
      <trkpt lat="45.59443" lon="6.6704">
        <ele>1471.3348</ele>
        <time>2014-03-02T09:01:33Z</time>
      </trkpt>
      <trkpt lat="45.59447" lon="6.67039">
        <ele>1473.4407</ele>
        <time>2014-03-02T09:01:39Z</time>
      </trkpt>
      <trkpt lat="45.5946" lon="6.67035">
        <ele>1474.3539</ele>
        <time>2014-03-02T09:01:59Z</time>
      </trkpt>
      <trkpt lat="45.59464" lon="6.67032">
        <ele>1474.3539</ele>
        <time>2014-03-02T09:02:05Z</time>
      </trkpt>
      <trkpt lat="45.59468" lon="6.67027">
        <ele>1474.6229</ele>
        <time>2014-03-02T09:02:07Z</time>
      </trkpt>
      <trkpt lat="45.59483" lon="6.67018">
        <ele>1473.3147</ele>
        <time>2014-03-02T09:02:27Z</time>
      </trkpt>
      <trkpt lat="45.5949" lon="6.67011">
        <ele>1473.3147</ele>
        <time>2014-03-02T09:02:39Z</time>
      </trkpt>
      <trkpt lat="45.59494" lon="6.67008">
        <ele>1472.818</ele>
        <time>2014-03-02T09:02:44Z</time>
      </trkpt>
      <trkpt lat="45.59503" lon="6.67004">
        <ele>1472.062</ele>
        <time>2014-03-02T09:02:56Z</time>
      </trkpt>
      <trkpt lat="45.59511" lon="6.66999">
        <ele>1472.062</ele>
        <time>2014-03-02T09:03:03Z</time>
      </trkpt>
      <trkpt lat="45.59511" lon="6.66998">
        <ele>1471.587</ele>
        <time>2014-03-02T09:03:09Z</time>
      </trkpt>
      <trkpt lat="45.59517" lon="6.66997">
        <ele>1471.587</ele>
        <time>2014-03-02T09:03:11Z</time>
      </trkpt>
      <trkpt lat="45.59544" lon="6.66999">
        <ele>1470.4369</ele>
        <time>2014-03-02T09:03:47Z</time>
      </trkpt>
      <trkpt lat="45.59549" lon="6.67">
        <ele>1470.4369</ele>
        <time>2014-03-02T09:03:52Z</time>
      </trkpt>
      <trkpt lat="45.59556" lon="6.67">
        <ele>1468.9784</ele>
        <time>2014-03-02T09:04:01Z</time>
      </trkpt>
      <trkpt lat="45.59557" lon="6.67001">
        <ele>1468.9784</ele>
        <time>2014-03-02T09:04:02Z</time>
      </trkpt>
      <trkpt lat="45.59563" lon="6.67002">
        <ele>1468.9784</ele>
        <time>2014-03-02T09:04:08Z</time>
      </trkpt>
      <trkpt lat="45.59566" lon="6.67002">
        <ele>1467.015</ele>
        <time>2014-03-02T09:04:13Z</time>
      </trkpt>
      <trkpt lat="45.59573" lon="6.67002">
        <ele>1467.015</ele>
        <time>2014-03-02T09:04:22Z</time>
      </trkpt>
      <trkpt lat="45.59574" lon="6.67002">
        <ele>1467.015</ele>
        <time>2014-03-02T09:04:29Z</time>
      </trkpt>
      <trkpt lat="45.59588" lon="6.67001">
        <ele>1466.0284</ele>
        <time>2014-03-02T09:04:40Z</time>
      </trkpt>
      <trkpt lat="45.59591" lon="6.67001">
        <ele>1466.0284</ele>
        <time>2014-03-02T09:04:42Z</time>
      </trkpt>
      <trkpt lat="45.59593" lon="6.67">
        <ele>1466.0284</ele>
        <time>2014-03-02T09:04:49Z</time>
      </trkpt>
      <trkpt lat="45.59601" lon="6.67002">
        <ele>1465.0978</ele>
        <time>2014-03-02T09:05:01Z</time>
      </trkpt>
      <trkpt lat="45.59606" lon="6.67005">
        <ele>1465.0978</ele>
        <time>2014-03-02T09:05:01Z</time>
      </trkpt>
      <trkpt lat="45.59642" lon="6.66999">
        <ele>1463.5166</ele>
        <time>2014-03-02T09:06:06Z</time>
      </trkpt>
      <trkpt lat="45.5964" lon="6.66998">
        <ele>1463.5166</ele>
        <time>2014-03-02T09:06:28Z</time>
      </trkpt>
      <trkpt lat="45.5964" lon="6.66971">
        <ele>1462.0316</ele>
        <time>2014-03-02T09:06:53Z</time>
      </trkpt>
      <trkpt lat="45.59639" lon="6.66967">
        <ele>1462.0316</ele>
        <time>2014-03-02T09:06:59Z</time>
      </trkpt>
      <trkpt lat="45.59638" lon="6.66963">
        <ele>1462.0316</ele>
        <time>2014-03-02T09:07:02Z</time>
      </trkpt>
      <trkpt lat="45.59637" lon="6.66954">
        <ele>1460.448</ele>
        <time>2014-03-02T09:07:11Z</time>
      </trkpt>
      <trkpt lat="45.59637" lon="6.66953">
        <ele>1460.448</ele>
        <time>2014-03-02T09:07:22Z</time>
      </trkpt>
      <trkpt lat="45.59636" lon="6.66928">
        <ele>1459.2744</ele>
        <time>2014-03-02T09:07:33Z</time>
      </trkpt>
      <trkpt lat="45.59636" lon="6.66916">
        <ele>1459.2744</ele>
        <time>2014-03-02T09:07:45Z</time>
      </trkpt>
      <trkpt lat="45.59642" lon="6.66899">
        <ele>1458.9496</ele>
        <time>2014-03-02T09:07:59Z</time>
      </trkpt>
      <trkpt lat="45.5964" lon="6.66866">
        <ele>1459.183</ele>
        <time>2014-03-02T09:08:30Z</time>
      </trkpt>
      <trkpt lat="45.5964" lon="6.66865">
        <ele>1459.183</ele>
        <time>2014-03-02T09:08:31Z</time>
      </trkpt>
      <trkpt lat="45.59641" lon="6.66852">
        <ele>1459.1569</ele>
        <time>2014-03-02T09:08:41Z</time>
      </trkpt>
      <trkpt lat="45.5964" lon="6.66845">
        <ele>1459.1569</ele>
        <time>2014-03-02T09:08:52Z</time>
      </trkpt>
      <trkpt lat="45.59641" lon="6.66837">
        <ele>1459.3494</ele>
        <time>2014-03-02T09:09:06Z</time>
      </trkpt>
      <trkpt lat="45.59641" lon="6.66836">
        <ele>1459.3494</ele>
        <time>2014-03-02T09:09:06Z</time>
      </trkpt>
      <trkpt lat="45.59644" lon="6.66819">
        <ele>1459.3536</ele>
        <time>2014-03-02T09:09:32Z</time>
      </trkpt>
      <trkpt lat="45.59645" lon="6.66817">
        <ele>1459.3536</ele>
        <time>2014-03-02T09:09:38Z</time>
      </trkpt>
      <trkpt lat="45.59646" lon="6.66814">
        <ele>1459.3536</ele>
        <time>2014-03-02T09:09:42Z</time>
      </trkpt>
      <trkpt lat="45.59648" lon="6.66805">
        <ele>1459.4467</ele>
        <time>2014-03-02T09:09:46Z</time>
      </trkpt>
      <trkpt lat="45.5965" lon="6.66802">
        <ele>1459.4467</ele>
        <time>2014-03-02T09:09:52Z</time>
      </trkpt>
      <trkpt lat="45.59652" lon="6.66798">
        <ele>1459.4467</ele>
        <time>2014-03-02T09:09:57Z</time>
      </trkpt>
      <trkpt lat="45.59655" lon="6.66795">
        <ele>1459.9283</ele>
        <time>2014-03-02T09:10:02Z</time>
      </trkpt>
      <trkpt lat="45.59658" lon="6.6679">
        <ele>1459.9283</ele>
        <time>2014-03-02T09:10:09Z</time>
      </trkpt>
      <trkpt lat="45.59658" lon="6.6679">
        <ele>1459.9283</ele>
        <time>2014-03-02T09:10:12Z</time>
      </trkpt>
      <trkpt lat="45.59654" lon="6.66787">
        <ele>1460.3004</ele>
        <time>2014-03-02T09:10:18Z</time>
      </trkpt>
      <trkpt lat="45.59653" lon="6.66785">
        <ele>1460.3004</ele>
        <time>2014-03-02T09:10:21Z</time>
      </trkpt>
      <trkpt lat="45.59651" lon="6.66781">
        <ele>1460.3004</ele>
        <time>2014-03-02T09:10:27Z</time>
      </trkpt>
      <trkpt lat="45.5965" lon="6.66779">
        <ele>1460.3004</ele>
        <time>2014-03-02T09:10:33Z</time>
      </trkpt>
      <trkpt lat="45.5965" lon="6.66778">
        <ele>1460.3004</ele>
        <time>2014-03-02T09:10:42Z</time>
      </trkpt>
      <trkpt lat="45.59658" lon="6.66771">
        <ele>1461.2021</ele>
        <time>2014-03-02T09:10:53Z</time>
      </trkpt>
      <trkpt lat="45.59661" lon="6.6677">
        <ele>1461.2021</ele>
        <time>2014-03-02T09:10:57Z</time>
      </trkpt>
      <trkpt lat="45.59666" lon="6.66769">
        <ele>1461.2021</ele>
        <time>2014-03-02T09:11:01Z</time>
      </trkpt>
      <trkpt lat="45.59671" lon="6.66767">
        <ele>1461.674</ele>
        <time>2014-03-02T09:11:08Z</time>
      </trkpt>
      <trkpt lat="45.59686" lon="6.66775">
        <ele>1462.0984</ele>
        <time>2014-03-02T09:11:27Z</time>
      </trkpt>
      <trkpt lat="45.597" lon="6.66789">
        <ele>1462.4967</ele>
        <time>2014-03-02T09:11:55Z</time>
      </trkpt>
      <trkpt lat="45.59707" lon="6.66795">
        <ele>1462.4967</ele>
        <time>2014-03-02T09:12:05Z</time>
      </trkpt>
      <trkpt lat="45.59708" lon="6.66795">
        <ele>1463.2773</ele>
        <time>2014-03-02T09:12:06Z</time>
      </trkpt>
      <trkpt lat="45.59716" lon="6.668">
        <ele>1464.0896</ele>
        <time>2014-03-02T09:12:20Z</time>
      </trkpt>
      <trkpt lat="45.59718" lon="6.66801">
        <ele>1464.0896</ele>
        <time>2014-03-02T09:12:23Z</time>
      </trkpt>
      <trkpt lat="45.59721" lon="6.66806">
        <ele>1464.0896</ele>
        <time>2014-03-02T09:12:29Z</time>
      </trkpt>
      <trkpt lat="45.59722" lon="6.66807">
        <ele>1464.0896</ele>
        <time>2014-03-02T09:12:31Z</time>
      </trkpt>
      <trkpt lat="45.59725" lon="6.66811">
        <ele>1464.8624</ele>
        <time>2014-03-02T09:12:42Z</time>
      </trkpt>
      <trkpt lat="45.59732" lon="6.66823">
        <ele>1465.1472</ele>
        <time>2014-03-02T09:12:49Z</time>
      </trkpt>
      <trkpt lat="45.59733" lon="6.66826">
        <ele>1465.1472</ele>
        <time>2014-03-02T09:12:52Z</time>
      </trkpt>
      <trkpt lat="45.59734" lon="6.66838">
        <ele>1466.277</ele>
        <time>2014-03-02T09:13:02Z</time>
      </trkpt>
      <trkpt lat="45.59734" lon="6.66844">
        <ele>1466.277</ele>
        <time>2014-03-02T09:13:07Z</time>
      </trkpt>
      <trkpt lat="45.59735" lon="6.66849">
        <ele>1466.277</ele>
        <time>2014-03-02T09:13:14Z</time>
      </trkpt>
      <trkpt lat="45.59733" lon="6.66859">
        <ele>1468.2612</ele>
        <time>2014-03-02T09:13:23Z</time>
      </trkpt>
      <trkpt lat="45.59734" lon="6.66872">
        <ele>1470.016</ele>
        <time>2014-03-02T09:13:34Z</time>
      </trkpt>
      <trkpt lat="45.59734" lon="6.6689">
        <ele>1471.5099</ele>
        <time>2014-03-02T09:13:58Z</time>
      </trkpt>
      <trkpt lat="45.59734" lon="6.66895">
        <ele>1471.5099</ele>
        <time>2014-03-02T09:14:04Z</time>
      </trkpt>
      <trkpt lat="45.59735" lon="6.66902">
        <ele>1471.5099</ele>
        <time>2014-03-02T09:14:07Z</time>
      </trkpt>
      <trkpt lat="45.59735" lon="6.66903">
        <ele>1472.9255</ele>
        <time>2014-03-02T09:14:14Z</time>
      </trkpt>
      <trkpt lat="45.59737" lon="6.66912">
        <ele>1472.9255</ele>
        <time>2014-03-02T09:14:19Z</time>
      </trkpt>
      <trkpt lat="45.59738" lon="6.66914">
        <ele>1472.9255</ele>
        <time>2014-03-02T09:14:22Z</time>
      </trkpt>
      <trkpt lat="45.59738" lon="6.66916">
        <ele>1473.9827</ele>
        <time>2014-03-02T09:14:38Z</time>
      </trkpt>
      <trkpt lat="45.59738" lon="6.66916">
        <ele>1473.9827</ele>
        <time>2014-03-02T09:14:42Z</time>
      </trkpt>
      <trkpt lat="45.59738" lon="6.66916">
        <ele>1473.9827</ele>
        <time>2014-03-02T09:14:48Z</time>
      </trkpt>
      <trkpt lat="45.59738" lon="6.66916">
        <ele>1473.9827</ele>
        <time>2014-03-02T09:15:02Z</time>
      </trkpt>
      <trkpt lat="45.59738" lon="6.66916">
        <ele>1473.9827</ele>
        <time>2014-03-02T09:15:12Z</time>
      </trkpt>
      <trkpt lat="45.59738" lon="6.66916">
        <ele>1473.9827</ele>
        <time>2014-03-02T09:15:20Z</time>
      </trkpt>
      <trkpt lat="45.59738" lon="6.66916">
        <ele>1473.9827</ele>
        <time>2014-03-02T09:15:30Z</time>
      </trkpt>
      <trkpt lat="45.59738" lon="6.66916">
        <ele>1473.9827</ele>
        <time>2014-03-02T09:15:42Z</time>
      </trkpt>
      <trkpt lat="45.59738" lon="6.66915">
        <ele>1473.9827</ele>
        <time>2014-03-02T09:16:02Z</time>
      </trkpt>
      <trkpt lat="45.59738" lon="6.66915">
        <ele>1473.9827</ele>
        <time>2014-03-02T09:16:12Z</time>
      </trkpt>
      <trkpt lat="45.59738" lon="6.66915">
        <ele>1473.9827</ele>
        <time>2014-03-02T09:16:24Z</time>
      </trkpt>
      <trkpt lat="45.59739" lon="6.66917">
        <ele>1473.9827</ele>
        <time>2014-03-02T09:16:27Z</time>
      </trkpt>
      <trkpt lat="45.5974" lon="6.66919">
        <ele>1473.9827</ele>
        <time>2014-03-02T09:16:33Z</time>
      </trkpt>
      <trkpt lat="45.59741" lon="6.66921">
        <ele>1473.9827</ele>
        <time>2014-03-02T09:16:41Z</time>
      </trkpt>
      <trkpt lat="45.59742" lon="6.66925">
        <ele>1473.9827</ele>
        <time>2014-03-02T09:16:50Z</time>
      </trkpt>
      <trkpt lat="45.59742" lon="6.66926">
        <ele>1474.4674</ele>
        <time>2014-03-02T09:16:51Z</time>
      </trkpt>
      <trkpt lat="45.59744" lon="6.66933">
        <ele>1474.4674</ele>
        <time>2014-03-02T09:17:04Z</time>
      </trkpt>
      <trkpt lat="45.59745" lon="6.66932">
        <ele>1474.4674</ele>
        <time>2014-03-02T09:17:07Z</time>
      </trkpt>
      <trkpt lat="45.59745" lon="6.66932">
        <ele>1474.4674</ele>
        <time>2014-03-02T09:17:14Z</time>
      </trkpt>
      <trkpt lat="45.59745" lon="6.66932">
        <ele>1474.4674</ele>
        <time>2014-03-02T09:17:17Z</time>
      </trkpt>
      <trkpt lat="45.59745" lon="6.66932">
        <ele>1474.4674</ele>
        <time>2014-03-02T09:17:23Z</time>
      </trkpt>
      <trkpt lat="45.59747" lon="6.66935">
        <ele>1475.0592</ele>
        <time>2014-03-02T09:17:37Z</time>
      </trkpt>
      <trkpt lat="45.59747" lon="6.66938">
        <ele>1475.0592</ele>
        <time>2014-03-02T09:17:48Z</time>
      </trkpt>
      <trkpt lat="45.59747" lon="6.66939">
        <ele>1475.0592</ele>
        <time>2014-03-02T09:17:57Z</time>
      </trkpt>
      <trkpt lat="45.59747" lon="6.66941">
        <ele>1475.0592</ele>
        <time>2014-03-02T09:18:03Z</time>
      </trkpt>
      <trkpt lat="45.59748" lon="6.66942">
        <ele>1475.0592</ele>
        <time>2014-03-02T09:18:09Z</time>
      </trkpt>
      <trkpt lat="45.59752" lon="6.66947">
        <ele>1476.0707</ele>
        <time>2014-03-02T09:18:21Z</time>
      </trkpt>
      <trkpt lat="45.59753" lon="6.66947">
        <ele>1476.0707</ele>
        <time>2014-03-02T09:18:38Z</time>
      </trkpt>
      <trkpt lat="45.59761" lon="6.66942">
        <ele>1476.6865</ele>
        <time>2014-03-02T09:18:52Z</time>
      </trkpt>
      <trkpt lat="45.59769" lon="6.66935">
        <ele>1477.0608</ele>
        <time>2014-03-02T09:18:58Z</time>
      </trkpt>
      <trkpt lat="45.5977" lon="6.66935">
        <ele>1477.0608</ele>
        <time>2014-03-02T09:19:03Z</time>
      </trkpt>
      <trkpt lat="45.59778" lon="6.66927">
        <ele>1478.0151</ele>
        <time>2014-03-02T09:19:17Z</time>
      </trkpt>
      <trkpt lat="45.59778" lon="6.66926">
        <ele>1478.0151</ele>
        <time>2014-03-02T09:19:24Z</time>
      </trkpt>
      <trkpt lat="45.59781" lon="6.66919">
        <ele>1478.0151</ele>
        <time>2014-03-02T09:19:28Z</time>
      </trkpt>
      <trkpt lat="45.59783" lon="6.66913">
        <ele>1479.8661</ele>
        <time>2014-03-02T09:19:33Z</time>
      </trkpt>
      <trkpt lat="45.59778" lon="6.66906">
        <ele>1479.8661</ele>
        <time>2014-03-02T09:19:38Z</time>
      </trkpt>
      <trkpt lat="45.5978" lon="6.66898">
        <ele>1481.2925</ele>
        <time>2014-03-02T09:19:50Z</time>
      </trkpt>
      <trkpt lat="45.59784" lon="6.66892">
        <ele>1481.2925</ele>
        <time>2014-03-02T09:19:59Z</time>
      </trkpt>
      <trkpt lat="45.59783" lon="6.66888">
        <ele>1482.7034</ele>
        <time>2014-03-02T09:20:02Z</time>
      </trkpt>
      <trkpt lat="45.59789" lon="6.66879">
        <ele>1482.7034</ele>
        <time>2014-03-02T09:20:15Z</time>
      </trkpt>
      <trkpt lat="45.59797" lon="6.66874">
        <ele>1485.5961</ele>
        <time>2014-03-02T09:20:45Z</time>
      </trkpt>
      <trkpt lat="45.59797" lon="6.66871">
        <ele>1485.5961</ele>
        <time>2014-03-02T09:20:48Z</time>
      </trkpt>
      <trkpt lat="45.59798" lon="6.66867">
        <ele>1485.5961</ele>
        <time>2014-03-02T09:20:56Z</time>
      </trkpt>
      <trkpt lat="45.59805" lon="6.66862">
        <ele>1488.1577</ele>
        <time>2014-03-02T09:21:06Z</time>
      </trkpt>
      <trkpt lat="45.59808" lon="6.66861">
        <ele>1488.1577</ele>
        <time>2014-03-02T09:21:15Z</time>
      </trkpt>
      <trkpt lat="45.59808" lon="6.66861">
        <ele>1488.1577</ele>
        <time>2014-03-02T09:21:16Z</time>
      </trkpt>
      <trkpt lat="45.59811" lon="6.66861">
        <ele>1488.1577</ele>
        <time>2014-03-02T09:21:23Z</time>
      </trkpt>
      <trkpt lat="45.59817" lon="6.66855">
        <ele>1490.6052</ele>
        <time>2014-03-02T09:21:34Z</time>
      </trkpt>
      <trkpt lat="45.59818" lon="6.66853">
        <ele>1490.6052</ele>
        <time>2014-03-02T09:21:37Z</time>
      </trkpt>
      <trkpt lat="45.59821" lon="6.6685">
        <ele>1490.6052</ele>
        <time>2014-03-02T09:21:41Z</time>
      </trkpt>
      <trkpt lat="45.59825" lon="6.66848">
        <ele>1493.0491</ele>
        <time>2014-03-02T09:21:52Z</time>
      </trkpt>
      <trkpt lat="45.59825" lon="6.66847">
        <ele>1493.0491</ele>
        <time>2014-03-02T09:21:52Z</time>
      </trkpt>
      <trkpt lat="45.59828" lon="6.66846">
        <ele>1493.0491</ele>
        <time>2014-03-02T09:22:05Z</time>
      </trkpt>
      <trkpt lat="45.5984" lon="6.66841">
        <ele>1495.4714</ele>
        <time>2014-03-02T09:22:15Z</time>
      </trkpt>
      <trkpt lat="45.59842" lon="6.66835">
        <ele>1495.4714</ele>
        <time>2014-03-02T09:22:27Z</time>
      </trkpt>
      <trkpt lat="45.5984" lon="6.66832">
        <ele>1495.4714</ele>
        <time>2014-03-02T09:22:34Z</time>
      </trkpt>
      <trkpt lat="45.59838" lon="6.66829">
        <ele>1498.0782</ele>
        <time>2014-03-02T09:22:36Z</time>
      </trkpt>
      <trkpt lat="45.59835" lon="6.66824">
        <ele>1498.0782</ele>
        <time>2014-03-02T09:22:43Z</time>
      </trkpt>
      <trkpt lat="45.59833" lon="6.66822">
        <ele>1498.0782</ele>
        <time>2014-03-02T09:22:48Z</time>
      </trkpt>
      <trkpt lat="45.59831" lon="6.66814">
        <ele>1500.4531</ele>
        <time>2014-03-02T09:22:56Z</time>
      </trkpt>
      <trkpt lat="45.59831" lon="6.66813">
        <ele>1500.4531</ele>
        <time>2014-03-02T09:22:57Z</time>
      </trkpt>
      <trkpt lat="45.5983" lon="6.66806">
        <ele>1500.4531</ele>
        <time>2014-03-02T09:23:03Z</time>
      </trkpt>
      <trkpt lat="45.5983" lon="6.66804">
        <ele>1500.4531</ele>
        <time>2014-03-02T09:23:09Z</time>
      </trkpt>
      <trkpt lat="45.59831" lon="6.66798">
        <ele>1503.0535</ele>
        <time>2014-03-02T09:23:12Z</time>
      </trkpt>
      <trkpt lat="45.59833" lon="6.66789">
        <ele>1503.0535</ele>
        <time>2014-03-02T09:23:22Z</time>
      </trkpt>
      <trkpt lat="45.59833" lon="6.66788">
        <ele>1503.0535</ele>
        <time>2014-03-02T09:23:28Z</time>
      </trkpt>
      <trkpt lat="45.59834" lon="6.66781">
        <ele>1505.6674</ele>
        <time>2014-03-02T09:23:34Z</time>
      </trkpt>
      <trkpt lat="45.59833" lon="6.66778">
        <ele>1505.6674</ele>
        <time>2014-03-02T09:23:36Z</time>
      </trkpt>
      <trkpt lat="45.59833" lon="6.66776">
        <ele>1505.6674</ele>
        <time>2014-03-02T09:23:42Z</time>
      </trkpt>
      <trkpt lat="45.59835" lon="6.66769">
        <ele>1508.9348</ele>
        <time>2014-03-02T09:23:56Z</time>
      </trkpt>
      <trkpt lat="45.59837" lon="6.66769">
        <ele>1508.9348</ele>
        <time>2014-03-02T09:23:57Z</time>
      </trkpt>
      <trkpt lat="45.5984" lon="6.66768">
        <ele>1508.9348</ele>
        <time>2014-03-02T09:24:05Z</time>
      </trkpt>
      <trkpt lat="45.59859" lon="6.66753">
        <ele>1513.5448</ele>
        <time>2014-03-02T09:25:06Z</time>
      </trkpt>
      <trkpt lat="45.5986" lon="6.66735">
        <ele>1517.3547</ele>
        <time>2014-03-02T09:25:32Z</time>
      </trkpt>
      <trkpt lat="45.59862" lon="6.66736">
        <ele>1517.3547</ele>
        <time>2014-03-02T09:25:36Z</time>
      </trkpt>
      <trkpt lat="45.59864" lon="6.66736">
        <ele>1517.3547</ele>
        <time>2014-03-02T09:25:43Z</time>
      </trkpt>
      <trkpt lat="45.59867" lon="6.6674">
        <ele>1517.3547</ele>
        <time>2014-03-02T09:25:47Z</time>
      </trkpt>
      <trkpt lat="45.59872" lon="6.66742">
        <ele>1521.4412</ele>
        <time>2014-03-02T09:26:01Z</time>
      </trkpt>
      <trkpt lat="45.59873" lon="6.66733">
        <ele>1521.4412</ele>
        <time>2014-03-02T09:26:13Z</time>
      </trkpt>
      <trkpt lat="45.59877" lon="6.66694">
        <ele>1526.925</ele>
        <time>2014-03-02T09:27:04Z</time>
      </trkpt>
      <trkpt lat="45.59878" lon="6.66691">
        <ele>1526.925</ele>
        <time>2014-03-02T09:27:08Z</time>
      </trkpt>
      <trkpt lat="45.59881" lon="6.66691">
        <ele>1526.925</ele>
        <time>2014-03-02T09:27:17Z</time>
      </trkpt>
      <trkpt lat="45.59883" lon="6.66695">
        <ele>1532.09</ele>
        <time>2014-03-02T09:27:21Z</time>
      </trkpt>
      <trkpt lat="45.59885" lon="6.66695">
        <ele>1532.09</ele>
        <time>2014-03-02T09:27:28Z</time>
      </trkpt>
      <trkpt lat="45.59888" lon="6.66698">
        <ele>1532.09</ele>
        <time>2014-03-02T09:27:40Z</time>
      </trkpt>
      <trkpt lat="45.59894" lon="6.66707">
        <ele>1536.7487</ele>
        <time>2014-03-02T09:27:49Z</time>
      </trkpt>
      <trkpt lat="45.59901" lon="6.66711">
        <ele>1536.7487</ele>
        <time>2014-03-02T09:28:01Z</time>
      </trkpt>
      <trkpt lat="45.59901" lon="6.66711">
        <ele>1536.7487</ele>
        <time>2014-03-02T09:28:01Z</time>
      </trkpt>
      <trkpt lat="45.59907" lon="6.66683">
        <ele>1542.4823</ele>
        <time>2014-03-02T09:28:49Z</time>
      </trkpt>
      <trkpt lat="45.59907" lon="6.66682">
        <ele>1542.4823</ele>
        <time>2014-03-02T09:28:53Z</time>
      </trkpt>
      <trkpt lat="45.59906" lon="6.66673">
        <ele>1542.4823</ele>
        <time>2014-03-02T09:29:07Z</time>
      </trkpt>
      <trkpt lat="45.59931" lon="6.66678">
        <ele>1547.9825</ele>
        <time>2014-03-02T09:30:06Z</time>
      </trkpt>
      <trkpt lat="45.59939" lon="6.66687">
        <ele>1553.055</ele>
        <time>2014-03-02T09:30:24Z</time>
      </trkpt>
      <trkpt lat="45.59941" lon="6.6669">
        <ele>1553.055</ele>
        <time>2014-03-02T09:30:34Z</time>
      </trkpt>
      <trkpt lat="45.59946" lon="6.66694">
        <ele>1553.055</ele>
        <time>2014-03-02T09:30:47Z</time>
      </trkpt>
      <trkpt lat="45.59952" lon="6.66697">
        <ele>1557.9403</ele>
        <time>2014-03-02T09:31:03Z</time>
      </trkpt>
      <trkpt lat="45.59959" lon="6.66699">
        <ele>1557.9403</ele>
        <time>2014-03-02T09:31:09Z</time>
      </trkpt>
      <trkpt lat="45.59958" lon="6.667">
        <ele>1557.9403</ele>
        <time>2014-03-02T09:31:20Z</time>
      </trkpt>
      <trkpt lat="45.59958" lon="6.667">
        <ele>1557.9403</ele>
        <time>2014-03-02T09:31:22Z</time>
      </trkpt>
      <trkpt lat="45.59959" lon="6.667">
        <ele>1557.9403</ele>
        <time>2014-03-02T09:31:28Z</time>
      </trkpt>
      <trkpt lat="45.59959" lon="6.667">
        <ele>1562.5001</ele>
        <time>2014-03-02T09:31:31Z</time>
      </trkpt>
      <trkpt lat="45.5996" lon="6.667">
        <ele>1562.5001</ele>
        <time>2014-03-02T09:31:51Z</time>
      </trkpt>
      <trkpt lat="45.5996" lon="6.667">
        <ele>1562.5001</ele>
        <time>2014-03-02T09:32:02Z</time>
      </trkpt>
      <trkpt lat="45.5996" lon="6.667">
        <ele>1562.5001</ele>
        <time>2014-03-02T09:32:02Z</time>
      </trkpt>
      <trkpt lat="45.5996" lon="6.667">
        <ele>1562.5001</ele>
        <time>2014-03-02T09:32:11Z</time>
      </trkpt>
      <trkpt lat="45.5996" lon="6.667">
        <ele>1562.5001</ele>
        <time>2014-03-02T09:32:36Z</time>
      </trkpt>
      <trkpt lat="45.59971" lon="6.66704">
        <ele>1567.8923</ele>
        <time>2014-03-02T09:33:03Z</time>
      </trkpt>
      <trkpt lat="45.59972" lon="6.66698">
        <ele>1567.8923</ele>
        <time>2014-03-02T09:33:08Z</time>
      </trkpt>
      <trkpt lat="45.59974" lon="6.66695">
        <ele>1567.8923</ele>
        <time>2014-03-02T09:33:13Z</time>
      </trkpt>
      <trkpt lat="45.59974" lon="6.66694">
        <ele>1567.8923</ele>
        <time>2014-03-02T09:33:22Z</time>
      </trkpt>
      <trkpt lat="45.59975" lon="6.66683">
        <ele>1573.5262</ele>
        <time>2014-03-02T09:33:39Z</time>
      </trkpt>
      <trkpt lat="45.59977" lon="6.6667">
        <ele>1579.0717</ele>
        <time>2014-03-02T09:33:56Z</time>
      </trkpt>
      <trkpt lat="45.59977" lon="6.66666">
        <ele>1579.0717</ele>
        <time>2014-03-02T09:34:07Z</time>
      </trkpt>
      <trkpt lat="45.59977" lon="6.66656">
        <ele>1584.0212</ele>
        <time>2014-03-02T09:34:21Z</time>
      </trkpt>
      <trkpt lat="45.59976" lon="6.66652">
        <ele>1584.0212</ele>
        <time>2014-03-02T09:34:26Z</time>
      </trkpt>
      <trkpt lat="45.59976" lon="6.66646">
        <ele>1584.0212</ele>
        <time>2014-03-02T09:34:40Z</time>
      </trkpt>
      <trkpt lat="45.59975" lon="6.66633">
        <ele>1588.9166</ele>
        <time>2014-03-02T09:34:58Z</time>
      </trkpt>
      <trkpt lat="45.59977" lon="6.66634">
        <ele>1588.9166</ele>
        <time>2014-03-02T09:35:02Z</time>
      </trkpt>
      <trkpt lat="45.59979" lon="6.66633">
        <ele>1588.9166</ele>
        <time>2014-03-02T09:35:13Z</time>
      </trkpt>
      <trkpt lat="45.59978" lon="6.66632">
        <ele>1588.9166</ele>
        <time>2014-03-02T09:35:19Z</time>
      </trkpt>
      <trkpt lat="45.59975" lon="6.66622">
        <ele>1593.5242</ele>
        <time>2014-03-02T09:35:31Z</time>
      </trkpt>
      <trkpt lat="45.59972" lon="6.66614">
        <ele>1593.5242</ele>
        <time>2014-03-02T09:35:40Z</time>
      </trkpt>
      <trkpt lat="45.59972" lon="6.66612">
        <ele>1593.5242</ele>
        <time>2014-03-02T09:35:44Z</time>
      </trkpt>
      <trkpt lat="45.59969" lon="6.66596">
        <ele>1597.8307</ele>
        <time>2014-03-02T09:36:02Z</time>
      </trkpt>
      <trkpt lat="45.59967" lon="6.66586">
        <ele>1597.8307</ele>
        <time>2014-03-02T09:36:14Z</time>
      </trkpt>
      <trkpt lat="45.59967" lon="6.66584">
        <ele>1602.315</ele>
        <time>2014-03-02T09:36:19Z</time>
      </trkpt>
      <trkpt lat="45.59966" lon="6.66582">
        <ele>1602.315</ele>
        <time>2014-03-02T09:36:24Z</time>
      </trkpt>
      <trkpt lat="45.59963" lon="6.66575">
        <ele>1602.315</ele>
        <time>2014-03-02T09:36:36Z</time>
      </trkpt>
      <trkpt lat="45.59962" lon="6.66574">
        <ele>1602.315</ele>
        <time>2014-03-02T09:36:46Z</time>
      </trkpt>
      <trkpt lat="45.59961" lon="6.66568">
        <ele>1606.7568</ele>
        <time>2014-03-02T09:36:46Z</time>
      </trkpt>
      <trkpt lat="45.5996" lon="6.66559">
        <ele>1606.7568</ele>
        <time>2014-03-02T09:37:04Z</time>
      </trkpt>
      <trkpt lat="45.5996" lon="6.66559">
        <ele>1606.7568</ele>
        <time>2014-03-02T09:37:07Z</time>
      </trkpt>
      <trkpt lat="45.5996" lon="6.66552">
        <ele>1610.7947</ele>
        <time>2014-03-02T09:37:13Z</time>
      </trkpt>
      <trkpt lat="45.59961" lon="6.66549">
        <ele>1610.7947</ele>
        <time>2014-03-02T09:37:17Z</time>
      </trkpt>
      <trkpt lat="45.59962" lon="6.66538">
        <ele>1614.498</ele>
        <time>2014-03-02T09:37:36Z</time>
      </trkpt>
      <trkpt lat="45.59962" lon="6.66527">
        <ele>1614.498</ele>
        <time>2014-03-02T09:37:47Z</time>
      </trkpt>
      <trkpt lat="45.59963" lon="6.66505">
        <ele>1618.8555</ele>
        <time>2014-03-02T09:38:03Z</time>
      </trkpt>
      <trkpt lat="45.59963" lon="6.66499">
        <ele>1618.8555</ele>
        <time>2014-03-02T09:38:16Z</time>
      </trkpt>
      <trkpt lat="45.59963" lon="6.66483">
        <ele>1623.0801</ele>
        <time>2014-03-02T09:38:32Z</time>
      </trkpt>
      <trkpt lat="45.59961" lon="6.66474">
        <ele>1623.0801</ele>
        <time>2014-03-02T09:38:42Z</time>
      </trkpt>
      <trkpt lat="45.59961" lon="6.66472">
        <ele>1623.0801</ele>
        <time>2014-03-02T09:38:49Z</time>
      </trkpt>
      <trkpt lat="45.5996" lon="6.66457">
        <ele>1628.0869</ele>
        <time>2014-03-02T09:39:02Z</time>
      </trkpt>
      <trkpt lat="45.59962" lon="6.66448">
        <ele>1628.0869</ele>
        <time>2014-03-02T09:39:13Z</time>
      </trkpt>
      <trkpt lat="45.59962" lon="6.66448">
        <ele>1628.0869</ele>
        <time>2014-03-02T09:39:17Z</time>
      </trkpt>
      <trkpt lat="45.59963" lon="6.66438">
        <ele>1633.006</ele>
        <time>2014-03-02T09:39:26Z</time>
      </trkpt>
      <trkpt lat="45.59962" lon="6.66438">
        <ele>1633.006</ele>
        <time>2014-03-02T09:39:35Z</time>
      </trkpt>
      <trkpt lat="45.59963" lon="6.66436">
        <ele>1633.006</ele>
        <time>2014-03-02T09:39:37Z</time>
      </trkpt>
      <trkpt lat="45.59964" lon="6.66435">
        <ele>1633.006</ele>
        <time>2014-03-02T09:39:52Z</time>
      </trkpt>
      <trkpt lat="45.59969" lon="6.66425">
        <ele>1637.5796</ele>
        <time>2014-03-02T09:40:02Z</time>
      </trkpt>
      <trkpt lat="45.5997" lon="6.66423">
        <ele>1637.5796</ele>
        <time>2014-03-02T09:40:09Z</time>
      </trkpt>
      <trkpt lat="45.5997" lon="6.66421">
        <ele>1637.5796</ele>
        <time>2014-03-02T09:40:13Z</time>
      </trkpt>
      <trkpt lat="45.59969" lon="6.6642">
        <ele>1637.5796</ele>
        <time>2014-03-02T09:40:20Z</time>
      </trkpt>
      <trkpt lat="45.59969" lon="6.66403">
        <ele>1641.8585</ele>
        <time>2014-03-02T09:40:29Z</time>
      </trkpt>
      <trkpt lat="45.5997" lon="6.66398">
        <ele>1641.8585</ele>
        <time>2014-03-02T09:40:38Z</time>
      </trkpt>
      <trkpt lat="45.5997" lon="6.66397">
        <ele>1641.8585</ele>
        <time>2014-03-02T09:40:45Z</time>
      </trkpt>
      <trkpt lat="45.59973" lon="6.66395">
        <ele>1641.8585</ele>
        <time>2014-03-02T09:41:05Z</time>
      </trkpt>
      <trkpt lat="45.59973" lon="6.66394">
        <ele>1641.8585</ele>
        <time>2014-03-02T09:41:07Z</time>
      </trkpt>
      <trkpt lat="45.59977" lon="6.66395">
        <ele>1646.2659</ele>
        <time>2014-03-02T09:41:13Z</time>
      </trkpt>
      <trkpt lat="45.5998" lon="6.66394">
        <ele>1646.2659</ele>
        <time>2014-03-02T09:41:22Z</time>
      </trkpt>
      <trkpt lat="45.59979" lon="6.66394">
        <ele>1646.2659</ele>
        <time>2014-03-02T09:41:36Z</time>
      </trkpt>
      <trkpt lat="45.59979" lon="6.66394">
        <ele>1646.2659</ele>
        <time>2014-03-02T09:41:46Z</time>
      </trkpt>
      <trkpt lat="45.59979" lon="6.66394">
        <ele>1646.2659</ele>
        <time>2014-03-02T09:41:56Z</time>
      </trkpt>
      <trkpt lat="45.59979" lon="6.66394">
        <ele>1646.2659</ele>
        <time>2014-03-02T09:42:06Z</time>
      </trkpt>
      <trkpt lat="45.59984" lon="6.66394">
        <ele>1646.2659</ele>
        <time>2014-03-02T09:43:01Z</time>
      </trkpt>
      <trkpt lat="45.59984" lon="6.66394">
        <ele>1646.2659</ele>
        <time>2014-03-02T09:43:12Z</time>
      </trkpt>
      <trkpt lat="45.59984" lon="6.66394">
        <ele>1646.2659</ele>
        <time>2014-03-02T09:43:24Z</time>
      </trkpt>
      <trkpt lat="45.59984" lon="6.66394">
        <ele>1646.2659</ele>
        <time>2014-03-02T09:43:28Z</time>
      </trkpt>
      <trkpt lat="45.59984" lon="6.66394">
        <ele>1646.2659</ele>
        <time>2014-03-02T09:43:32Z</time>
      </trkpt>
      <trkpt lat="45.59984" lon="6.66394">
        <ele>1646.2659</ele>
        <time>2014-03-02T09:43:39Z</time>
      </trkpt>
      <trkpt lat="45.59984" lon="6.66394">
        <ele>1646.2659</ele>
        <time>2014-03-02T09:43:42Z</time>
      </trkpt>
      <trkpt lat="45.59984" lon="6.66394">
        <ele>1646.2659</ele>
        <time>2014-03-02T09:43:52Z</time>
      </trkpt>
      <trkpt lat="45.59984" lon="6.66394">
        <ele>1646.2659</ele>
        <time>2014-03-02T09:43:57Z</time>
      </trkpt>
      <trkpt lat="45.59984" lon="6.66394">
        <ele>1646.2659</ele>
        <time>2014-03-02T09:44:03Z</time>
      </trkpt>
      <trkpt lat="45.59984" lon="6.66394">
        <ele>1646.2659</ele>
        <time>2014-03-02T09:44:08Z</time>
      </trkpt>
      <trkpt lat="45.59984" lon="6.66394">
        <ele>1646.2659</ele>
        <time>2014-03-02T09:44:22Z</time>
      </trkpt>
      <trkpt lat="45.59984" lon="6.66394">
        <ele>1646.2659</ele>
        <time>2014-03-02T09:44:36Z</time>
      </trkpt>
      <trkpt lat="45.59984" lon="6.66394">
        <ele>1646.2659</ele>
        <time>2014-03-02T09:44:46Z</time>
      </trkpt>
      <trkpt lat="45.59986" lon="6.664">
        <ele>1650.6743</ele>
        <time>2014-03-02T09:44:58Z</time>
      </trkpt>
      <trkpt lat="45.59988" lon="6.66403">
        <ele>1650.6743</ele>
        <time>2014-03-02T09:45:07Z</time>
      </trkpt>
      <trkpt lat="45.59999" lon="6.66441">
        <ele>1655.2113</ele>
        <time>2014-03-02T09:45:46Z</time>
      </trkpt>
      <trkpt lat="45.60004" lon="6.66438">
        <ele>1655.2113</ele>
        <time>2014-03-02T09:46:03Z</time>
      </trkpt>
      <trkpt lat="45.60004" lon="6.66437">
        <ele>1655.2113</ele>
        <time>2014-03-02T09:46:03Z</time>
      </trkpt>
      <trkpt lat="45.60004" lon="6.66434">
        <ele>1655.2113</ele>
        <time>2014-03-02T09:46:08Z</time>
      </trkpt>
      <trkpt lat="45.60003" lon="6.66419">
        <ele>1659.0138</ele>
        <time>2014-03-02T09:46:21Z</time>
      </trkpt>
      <trkpt lat="45.60004" lon="6.66407">
        <ele>1659.0138</ele>
        <time>2014-03-02T09:46:32Z</time>
      </trkpt>
      <trkpt lat="45.60003" lon="6.66392">
        <ele>1662.8135</ele>
        <time>2014-03-02T09:46:44Z</time>
      </trkpt>
      <trkpt lat="45.6" lon="6.66372">
        <ele>1666.019</ele>
        <time>2014-03-02T09:47:01Z</time>
      </trkpt>
      <trkpt lat="45.6" lon="6.66371">
        <ele>1666.019</ele>
        <time>2014-03-02T09:47:03Z</time>
      </trkpt>
      <trkpt lat="45.6" lon="6.66335">
        <ele>1669.4692</ele>
        <time>2014-03-02T09:47:39Z</time>
      </trkpt>
      <trkpt lat="45.59998" lon="6.66329">
        <ele>1669.4692</ele>
        <time>2014-03-02T09:47:48Z</time>
      </trkpt>
      <trkpt lat="45.59997" lon="6.66315">
        <ele>1672.7722</ele>
        <time>2014-03-02T09:47:58Z</time>
      </trkpt>
      <trkpt lat="45.59997" lon="6.66305">
        <ele>1672.7722</ele>
        <time>2014-03-02T09:48:02Z</time>
      </trkpt>
      <trkpt lat="45.59996" lon="6.663">
        <ele>1675.4933</ele>
        <time>2014-03-02T09:48:08Z</time>
      </trkpt>
      <trkpt lat="45.60004" lon="6.66257">
        <ele>1677.823</ele>
        <time>2014-03-02T09:49:05Z</time>
      </trkpt>
      <trkpt lat="45.60008" lon="6.66245">
        <ele>1679.6649</ele>
        <time>2014-03-02T09:49:23Z</time>
      </trkpt>
      <trkpt lat="45.6001" lon="6.66234">
        <ele>1679.6649</ele>
        <time>2014-03-02T09:49:35Z</time>
      </trkpt>
      <trkpt lat="45.60011" lon="6.66227">
        <ele>1681.7677</ele>
        <time>2014-03-02T09:49:45Z</time>
      </trkpt>
      <trkpt lat="45.60012" lon="6.66226">
        <ele>1681.7677</ele>
        <time>2014-03-02T09:49:46Z</time>
      </trkpt>
      <trkpt lat="45.60012" lon="6.66223">
        <ele>1681.7677</ele>
        <time>2014-03-02T09:49:52Z</time>
      </trkpt>
      <trkpt lat="45.60013" lon="6.66219">
        <ele>1681.7677</ele>
        <time>2014-03-02T09:50:01Z</time>
      </trkpt>
      <trkpt lat="45.60019" lon="6.6622">
        <ele>1682.9349</ele>
        <time>2014-03-02T09:50:11Z</time>
      </trkpt>
      <trkpt lat="45.60029" lon="6.66195">
        <ele>1684.671</ele>
        <time>2014-03-02T09:50:55Z</time>
      </trkpt>
      <trkpt lat="45.60029" lon="6.66191">
        <ele>1684.671</ele>
        <time>2014-03-02T09:51:02Z</time>
      </trkpt>
      <trkpt lat="45.6003" lon="6.66189">
        <ele>1684.671</ele>
        <time>2014-03-02T09:51:09Z</time>
      </trkpt>
      <trkpt lat="45.6003" lon="6.66188">
        <ele>1684.671</ele>
        <time>2014-03-02T09:51:14Z</time>
      </trkpt>
      <trkpt lat="45.60031" lon="6.66181">
        <ele>1686.9406</ele>
        <time>2014-03-02T09:51:25Z</time>
      </trkpt>
      <trkpt lat="45.6004" lon="6.66186">
        <ele>1689.2042</ele>
        <time>2014-03-02T09:51:48Z</time>
      </trkpt>
      <trkpt lat="45.6004" lon="6.66187">
        <ele>1689.2042</ele>
        <time>2014-03-02T09:51:54Z</time>
      </trkpt>
      <trkpt lat="45.6004" lon="6.66187">
        <ele>1689.2042</ele>
        <time>2014-03-02T09:51:57Z</time>
      </trkpt>
      <trkpt lat="45.60042" lon="6.66189">
        <ele>1689.2042</ele>
        <time>2014-03-02T09:52:04Z</time>
      </trkpt>
      <trkpt lat="45.60043" lon="6.6619">
        <ele>1689.2042</ele>
        <time>2014-03-02T09:52:18Z</time>
      </trkpt>
      <trkpt lat="45.60043" lon="6.66178">
        <ele>1690.8187</ele>
        <time>2014-03-02T09:52:50Z</time>
      </trkpt>
      <trkpt lat="45.6005" lon="6.66185">
        <ele>1690.8187</ele>
        <time>2014-03-02T09:53:03Z</time>
      </trkpt>
      <trkpt lat="45.60054" lon="6.6619">
        <ele>1692.9484</ele>
        <time>2014-03-02T09:53:09Z</time>
      </trkpt>
      <trkpt lat="45.60057" lon="6.66192">
        <ele>1692.9484</ele>
        <time>2014-03-02T09:53:16Z</time>
      </trkpt>
      <trkpt lat="45.60059" lon="6.66195">
        <ele>1692.9484</ele>
        <time>2014-03-02T09:53:22Z</time>
      </trkpt>
      <trkpt lat="45.60061" lon="6.66195">
        <ele>1692.9484</ele>
        <time>2014-03-02T09:53:29Z</time>
      </trkpt>
      <trkpt lat="45.60065" lon="6.662">
        <ele>1695.4451</ele>
        <time>2014-03-02T09:53:31Z</time>
      </trkpt>
      <trkpt lat="45.60071" lon="6.66206">
        <ele>1695.4451</ele>
        <time>2014-03-02T09:53:42Z</time>
      </trkpt>
      <trkpt lat="45.60071" lon="6.66206">
        <ele>1695.4451</ele>
        <time>2014-03-02T09:53:42Z</time>
      </trkpt>
      <trkpt lat="45.60071" lon="6.66206">
        <ele>1695.4451</ele>
        <time>2014-03-02T09:53:49Z</time>
      </trkpt>
      <trkpt lat="45.60077" lon="6.66212">
        <ele>1697.8967</ele>
        <time>2014-03-02T09:54:05Z</time>
      </trkpt>
      <trkpt lat="45.60079" lon="6.66214">
        <ele>1697.8967</ele>
        <time>2014-03-02T09:54:06Z</time>
      </trkpt>
      <trkpt lat="45.60083" lon="6.66196">
        <ele>1700.0078</ele>
        <time>2014-03-02T09:54:32Z</time>
      </trkpt>
      <trkpt lat="45.60083" lon="6.66195">
        <ele>1700.0078</ele>
        <time>2014-03-02T09:54:41Z</time>
      </trkpt>
      <trkpt lat="45.60084" lon="6.66186">
        <ele>1700.0078</ele>
        <time>2014-03-02T09:54:50Z</time>
      </trkpt>
      <trkpt lat="45.60085" lon="6.6618">
        <ele>1702.1687</ele>
        <time>2014-03-02T09:55:02Z</time>
      </trkpt>
      <trkpt lat="45.60087" lon="6.66163">
        <ele>1704.1354</ele>
        <time>2014-03-02T09:55:17Z</time>
      </trkpt>
      <trkpt lat="45.60087" lon="6.66159">
        <ele>1704.1354</ele>
        <time>2014-03-02T09:55:28Z</time>
      </trkpt>
      <trkpt lat="45.60087" lon="6.66152">
        <ele>1704.1354</ele>
        <time>2014-03-02T09:55:32Z</time>
      </trkpt>
      <trkpt lat="45.60089" lon="6.66146">
        <ele>1706.374</ele>
        <time>2014-03-02T09:55:43Z</time>
      </trkpt>
      <trkpt lat="45.60089" lon="6.66139">
        <ele>1706.374</ele>
        <time>2014-03-02T09:55:51Z</time>
      </trkpt>
      <trkpt lat="45.60089" lon="6.66133">
        <ele>1708.6239</ele>
        <time>2014-03-02T09:56:01Z</time>
      </trkpt>
      <trkpt lat="45.60089" lon="6.66132">
        <ele>1708.6239</ele>
        <time>2014-03-02T09:56:01Z</time>
      </trkpt>
      <trkpt lat="45.6009" lon="6.66124">
        <ele>1708.6239</ele>
        <time>2014-03-02T09:56:18Z</time>
      </trkpt>
      <trkpt lat="45.60091" lon="6.66111">
        <ele>1710.7875</ele>
        <time>2014-03-02T09:56:43Z</time>
      </trkpt>
      <trkpt lat="45.60094" lon="6.66099">
        <ele>1710.7875</ele>
        <time>2014-03-02T09:56:55Z</time>
      </trkpt>
      <trkpt lat="45.60094" lon="6.66098">
        <ele>1713.0913</ele>
        <time>2014-03-02T09:56:56Z</time>
      </trkpt>
      <trkpt lat="45.60094" lon="6.66095">
        <ele>1713.0913</ele>
        <time>2014-03-02T09:57:06Z</time>
      </trkpt>
      <trkpt lat="45.60096" lon="6.66085">
        <ele>1716.264</ele>
        <time>2014-03-02T09:57:16Z</time>
      </trkpt>
      <trkpt lat="45.60098" lon="6.66079">
        <ele>1716.264</ele>
        <time>2014-03-02T09:57:30Z</time>
      </trkpt>
      <trkpt lat="45.60098" lon="6.66076">
        <ele>1716.264</ele>
        <time>2014-03-02T09:57:33Z</time>
      </trkpt>
      <trkpt lat="45.60098" lon="6.66075">
        <ele>1716.264</ele>
        <time>2014-03-02T09:57:39Z</time>
      </trkpt>
      <trkpt lat="45.60097" lon="6.66058">
        <ele>1719.9113</ele>
        <time>2014-03-02T09:57:50Z</time>
      </trkpt>
      <trkpt lat="45.60099" lon="6.66052">
        <ele>1719.9113</ele>
        <time>2014-03-02T09:58:01Z</time>
      </trkpt>
      <trkpt lat="45.60099" lon="6.66051">
        <ele>1719.9113</ele>
        <time>2014-03-02T09:58:02Z</time>
      </trkpt>
      <trkpt lat="45.601" lon="6.66049">
        <ele>1719.9113</ele>
        <time>2014-03-02T09:58:09Z</time>
      </trkpt>
      <trkpt lat="45.60102" lon="6.6604">
        <ele>1723.4937</ele>
        <time>2014-03-02T09:58:20Z</time>
      </trkpt>
      <trkpt lat="45.60105" lon="6.66028">
        <ele>1723.4937</ele>
        <time>2014-03-02T09:58:33Z</time>
      </trkpt>
      <trkpt lat="45.60104" lon="6.66018">
        <ele>1727.03</ele>
        <time>2014-03-02T09:58:45Z</time>
      </trkpt>
      <trkpt lat="45.60094" lon="6.65995">
        <ele>1730.7975</ele>
        <time>2014-03-02T09:59:06Z</time>
      </trkpt>
      <trkpt lat="45.60083" lon="6.65977">
        <ele>1734.3458</ele>
        <time>2014-03-02T09:59:23Z</time>
      </trkpt>
      <trkpt lat="45.60078" lon="6.65971">
        <ele>1734.3458</ele>
        <time>2014-03-02T09:59:32Z</time>
      </trkpt>
      <trkpt lat="45.60075" lon="6.65965">
        <ele>1737.5177</ele>
        <time>2014-03-02T09:59:39Z</time>
      </trkpt>
      <trkpt lat="45.60073" lon="6.65951">
        <ele>1740.3416</ele>
        <time>2014-03-02T10:00:00Z</time>
      </trkpt>
      <trkpt lat="45.60071" lon="6.65943">
        <ele>1740.3416</ele>
        <time>2014-03-02T10:00:01Z</time>
      </trkpt>
      <trkpt lat="45.60071" lon="6.65937">
        <ele>1742.9308</ele>
        <time>2014-03-02T10:00:07Z</time>
      </trkpt>
      <trkpt lat="45.6007" lon="6.65936">
        <ele>1742.9308</ele>
        <time>2014-03-02T10:00:13Z</time>
      </trkpt>
      <trkpt lat="45.60066" lon="6.65921">
        <ele>1744.4833</ele>
        <time>2014-03-02T10:00:29Z</time>
      </trkpt>
      <trkpt lat="45.60065" lon="6.65908">
        <ele>1746.0745</ele>
        <time>2014-03-02T10:00:41Z</time>
      </trkpt>
      <trkpt lat="45.60064" lon="6.65902">
        <ele>1746.0745</ele>
        <time>2014-03-02T10:00:47Z</time>
      </trkpt>
      <trkpt lat="45.60057" lon="6.65883">
        <ele>1747.3749</ele>
        <time>2014-03-02T10:01:06Z</time>
      </trkpt>
      <trkpt lat="45.60058" lon="6.65872">
        <ele>1747.3749</ele>
        <time>2014-03-02T10:01:23Z</time>
      </trkpt>
      <trkpt lat="45.60059" lon="6.65869">
        <ele>1748.4402</ele>
        <time>2014-03-02T10:01:34Z</time>
      </trkpt>
      <trkpt lat="45.60059" lon="6.65867">
        <ele>1748.4402</ele>
        <time>2014-03-02T10:01:36Z</time>
      </trkpt>
      <trkpt lat="45.60063" lon="6.65863">
        <ele>1748.4402</ele>
        <time>2014-03-02T10:01:54Z</time>
      </trkpt>
      <trkpt lat="45.60066" lon="6.6586">
        <ele>1749.5096</ele>
        <time>2014-03-02T10:01:58Z</time>
      </trkpt>
      <trkpt lat="45.60069" lon="6.65856">
        <ele>1749.5096</ele>
        <time>2014-03-02T10:02:04Z</time>
      </trkpt>
      <trkpt lat="45.6007" lon="6.65854">
        <ele>1749.5096</ele>
        <time>2014-03-02T10:02:06Z</time>
      </trkpt>
      <trkpt lat="45.60071" lon="6.65841">
        <ele>1750.2288</ele>
        <time>2014-03-02T10:02:22Z</time>
      </trkpt>
      <trkpt lat="45.60072" lon="6.65824">
        <ele>1751.0911</ele>
        <time>2014-03-02T10:02:49Z</time>
      </trkpt>
      <trkpt lat="45.6008" lon="6.65821">
        <ele>1751.0911</ele>
        <time>2014-03-02T10:03:01Z</time>
      </trkpt>
      <trkpt lat="45.60083" lon="6.65824">
        <ele>1752.5967</ele>
        <time>2014-03-02T10:03:06Z</time>
      </trkpt>
      <trkpt lat="45.60089" lon="6.65833">
        <ele>1753.8093</ele>
        <time>2014-03-02T10:03:18Z</time>
      </trkpt>
      <trkpt lat="45.6009" lon="6.65833">
        <ele>1753.8093</ele>
        <time>2014-03-02T10:03:21Z</time>
      </trkpt>
      <trkpt lat="45.6009" lon="6.65813">
        <ele>1755.4614</ele>
        <time>2014-03-02T10:03:49Z</time>
      </trkpt>
      <trkpt lat="45.6009" lon="6.65806">
        <ele>1755.4614</ele>
        <time>2014-03-02T10:03:52Z</time>
      </trkpt>
      <trkpt lat="45.60091" lon="6.65801">
        <ele>1755.4614</ele>
        <time>2014-03-02T10:04:02Z</time>
      </trkpt>
      <trkpt lat="45.60092" lon="6.65779">
        <ele>1757.5388</ele>
        <time>2014-03-02T10:04:29Z</time>
      </trkpt>
      <trkpt lat="45.60092" lon="6.65771">
        <ele>1757.5388</ele>
        <time>2014-03-02T10:04:32Z</time>
      </trkpt>
      <trkpt lat="45.60093" lon="6.65765">
        <ele>1759.4215</ele>
        <time>2014-03-02T10:04:36Z</time>
      </trkpt>
      <trkpt lat="45.60094" lon="6.65756">
        <ele>1759.4215</ele>
        <time>2014-03-02T10:04:48Z</time>
      </trkpt>
      <trkpt lat="45.60096" lon="6.65748">
        <ele>1761.5735</ele>
        <time>2014-03-02T10:05:02Z</time>
      </trkpt>
      <trkpt lat="45.60096" lon="6.65747">
        <ele>1761.5735</ele>
        <time>2014-03-02T10:05:08Z</time>
      </trkpt>
      <trkpt lat="45.601" lon="6.65746">
        <ele>1761.5735</ele>
        <time>2014-03-02T10:05:13Z</time>
      </trkpt>
      <trkpt lat="45.60102" lon="6.65747">
        <ele>1761.5735</ele>
        <time>2014-03-02T10:05:17Z</time>
      </trkpt>
      <trkpt lat="45.60105" lon="6.65747">
        <ele>1763.3857</ele>
        <time>2014-03-02T10:05:40Z</time>
      </trkpt>
      <trkpt lat="45.60105" lon="6.65747">
        <ele>1763.3857</ele>
        <time>2014-03-02T10:05:50Z</time>
      </trkpt>
      <trkpt lat="45.60105" lon="6.65747">
        <ele>1763.3857</ele>
        <time>2014-03-02T10:06:08Z</time>
      </trkpt>
      <trkpt lat="45.60105" lon="6.65747">
        <ele>1763.3857</ele>
        <time>2014-03-02T10:06:14Z</time>
      </trkpt>
      <trkpt lat="45.60105" lon="6.65747">
        <ele>1763.3857</ele>
        <time>2014-03-02T10:06:18Z</time>
      </trkpt>
      <trkpt lat="45.60105" lon="6.65749">
        <ele>1763.3857</ele>
        <time>2014-03-02T10:06:31Z</time>
      </trkpt>
      <trkpt lat="45.60104" lon="6.65739">
        <ele>1763.3857</ele>
        <time>2014-03-02T10:06:38Z</time>
      </trkpt>
      <trkpt lat="45.60104" lon="6.65739">
        <ele>1763.3857</ele>
        <time>2014-03-02T10:06:42Z</time>
      </trkpt>
      <trkpt lat="45.60104" lon="6.65739">
        <ele>1763.3857</ele>
        <time>2014-03-02T10:06:46Z</time>
      </trkpt>
      <trkpt lat="45.60104" lon="6.65738">
        <ele>1763.3857</ele>
        <time>2014-03-02T10:06:52Z</time>
      </trkpt>
      <trkpt lat="45.60104" lon="6.65738">
        <ele>1763.3857</ele>
        <time>2014-03-02T10:07:08Z</time>
      </trkpt>
      <trkpt lat="45.60104" lon="6.65738">
        <ele>1763.3857</ele>
        <time>2014-03-02T10:07:17Z</time>
      </trkpt>
      <trkpt lat="45.60104" lon="6.65738">
        <ele>1763.3857</ele>
        <time>2014-03-02T10:07:34Z</time>
      </trkpt>
      <trkpt lat="45.60104" lon="6.65741">
        <ele>1765.001</ele>
        <time>2014-03-02T10:08:01Z</time>
      </trkpt>
      <trkpt lat="45.60104" lon="6.65742">
        <ele>1765.001</ele>
        <time>2014-03-02T10:08:11Z</time>
      </trkpt>
      <trkpt lat="45.60104" lon="6.65742">
        <ele>1765.001</ele>
        <time>2014-03-02T10:08:18Z</time>
      </trkpt>
      <trkpt lat="45.60104" lon="6.65742">
        <ele>1765.001</ele>
        <time>2014-03-02T10:08:23Z</time>
      </trkpt>
      <trkpt lat="45.60104" lon="6.65742">
        <ele>1765.001</ele>
        <time>2014-03-02T10:08:29Z</time>
      </trkpt>
      <trkpt lat="45.60104" lon="6.65742">
        <ele>1765.001</ele>
        <time>2014-03-02T10:08:32Z</time>
      </trkpt>
      <trkpt lat="45.60104" lon="6.65742">
        <ele>1765.001</ele>
        <time>2014-03-02T10:08:41Z</time>
      </trkpt>
      <trkpt lat="45.60104" lon="6.65743">
        <ele>1765.001</ele>
        <time>2014-03-02T10:08:47Z</time>
      </trkpt>
      <trkpt lat="45.60104" lon="6.65743">
        <ele>1765.001</ele>
        <time>2014-03-02T10:08:54Z</time>
      </trkpt>
      <trkpt lat="45.60105" lon="6.65744">
        <ele>1765.001</ele>
        <time>2014-03-02T10:09:06Z</time>
      </trkpt>
      <trkpt lat="45.60105" lon="6.65745">
        <ele>1765.001</ele>
        <time>2014-03-02T10:09:13Z</time>
      </trkpt>
      <trkpt lat="45.60105" lon="6.65745">
        <ele>1765.001</ele>
        <time>2014-03-02T10:09:16Z</time>
      </trkpt>
      <trkpt lat="45.60105" lon="6.65745">
        <ele>1765.001</ele>
        <time>2014-03-02T10:09:21Z</time>
      </trkpt>
      <trkpt lat="45.60105" lon="6.65745">
        <ele>1765.001</ele>
        <time>2014-03-02T10:09:27Z</time>
      </trkpt>
      <trkpt lat="45.60105" lon="6.65745">
        <ele>1765.001</ele>
        <time>2014-03-02T10:09:36Z</time>
      </trkpt>
      <trkpt lat="45.60105" lon="6.65745">
        <ele>1765.001</ele>
        <time>2014-03-02T10:09:36Z</time>
      </trkpt>
      <trkpt lat="45.60105" lon="6.65745">
        <ele>1765.001</ele>
        <time>2014-03-02T10:09:54Z</time>
      </trkpt>
      <trkpt lat="45.60105" lon="6.65745">
        <ele>1765.001</ele>
        <time>2014-03-02T10:09:59Z</time>
      </trkpt>
      <trkpt lat="45.60106" lon="6.65743">
        <ele>1765.001</ele>
        <time>2014-03-02T10:10:41Z</time>
      </trkpt>
      <trkpt lat="45.60106" lon="6.65743">
        <ele>1765.001</ele>
        <time>2014-03-02T10:11:04Z</time>
      </trkpt>
      <trkpt lat="45.60106" lon="6.65743">
        <ele>1765.001</ele>
        <time>2014-03-02T10:11:15Z</time>
      </trkpt>
      <trkpt lat="45.60106" lon="6.65743">
        <ele>1765.001</ele>
        <time>2014-03-02T10:11:26Z</time>
      </trkpt>
      <trkpt lat="45.60106" lon="6.65746">
        <ele>1766.8405</ele>
        <time>2014-03-02T10:11:42Z</time>
      </trkpt>
      <trkpt lat="45.60107" lon="6.65752">
        <ele>1766.8405</ele>
        <time>2014-03-02T10:11:51Z</time>
      </trkpt>
      <trkpt lat="45.60106" lon="6.65753">
        <ele>1766.8405</ele>
        <time>2014-03-02T10:12:02Z</time>
      </trkpt>
      <trkpt lat="45.60107" lon="6.65751">
        <ele>1766.8405</ele>
        <time>2014-03-02T10:12:10Z</time>
      </trkpt>
      <trkpt lat="45.60107" lon="6.65753">
        <ele>1766.8405</ele>
        <time>2014-03-02T10:12:12Z</time>
      </trkpt>
      <trkpt lat="45.60108" lon="6.65753">
        <ele>1766.8405</ele>
        <time>2014-03-02T10:12:18Z</time>
      </trkpt>
      <trkpt lat="45.60108" lon="6.65753">
        <ele>1766.8405</ele>
        <time>2014-03-02T10:12:23Z</time>
      </trkpt>
      <trkpt lat="45.60108" lon="6.65753">
        <ele>1766.8405</ele>
        <time>2014-03-02T10:12:33Z</time>
      </trkpt>
      <trkpt lat="45.60121" lon="6.65763">
        <ele>1768.2701</ele>
        <time>2014-03-02T10:13:03Z</time>
      </trkpt>
      <trkpt lat="45.60123" lon="6.65762">
        <ele>1768.2701</ele>
        <time>2014-03-02T10:13:12Z</time>
      </trkpt>
      <trkpt lat="45.60124" lon="6.6576">
        <ele>1768.2701</ele>
        <time>2014-03-02T10:13:18Z</time>
      </trkpt>
      <trkpt lat="45.60125" lon="6.65758">
        <ele>1768.2701</ele>
        <time>2014-03-02T10:13:25Z</time>
      </trkpt>
      <trkpt lat="45.60124" lon="6.65758">
        <ele>1768.2701</ele>
        <time>2014-03-02T10:13:29Z</time>
      </trkpt>
      <trkpt lat="45.60127" lon="6.65755">
        <ele>1768.2701</ele>
        <time>2014-03-02T10:13:36Z</time>
      </trkpt>
      <trkpt lat="45.60132" lon="6.65748">
        <ele>1770.0295</ele>
        <time>2014-03-02T10:13:53Z</time>
      </trkpt>
      <trkpt lat="45.60134" lon="6.65741">
        <ele>1770.0295</ele>
        <time>2014-03-02T10:13:58Z</time>
      </trkpt>
      <trkpt lat="45.60134" lon="6.65741">
        <ele>1770.0295</ele>
        <time>2014-03-02T10:14:03Z</time>
      </trkpt>
      <trkpt lat="45.60142" lon="6.65724">
        <ele>1772.0823</ele>
        <time>2014-03-02T10:14:29Z</time>
      </trkpt>
      <trkpt lat="45.60146" lon="6.65716">
        <ele>1772.0823</ele>
        <time>2014-03-02T10:15:01Z</time>
      </trkpt>
      <trkpt lat="45.6015" lon="6.65705">
        <ele>1774.3793</ele>
        <time>2014-03-02T10:15:02Z</time>
      </trkpt>
      <trkpt lat="45.60153" lon="6.657">
        <ele>1774.3793</ele>
        <time>2014-03-02T10:15:09Z</time>
      </trkpt>
      <trkpt lat="45.60154" lon="6.65697">
        <ele>1774.3793</ele>
        <time>2014-03-02T10:15:19Z</time>
      </trkpt>
      <trkpt lat="45.60163" lon="6.65682">
        <ele>1777.3643</ele>
        <time>2014-03-02T10:15:52Z</time>
      </trkpt>
      <trkpt lat="45.60165" lon="6.65679">
        <ele>1777.3643</ele>
        <time>2014-03-02T10:16:01Z</time>
      </trkpt>
      <trkpt lat="45.60175" lon="6.65661">
        <ele>1780.3798</ele>
        <time>2014-03-02T10:16:30Z</time>
      </trkpt>
      <trkpt lat="45.60176" lon="6.6566">
        <ele>1780.3798</ele>
        <time>2014-03-02T10:16:31Z</time>
      </trkpt>
      <trkpt lat="45.60177" lon="6.6566">
        <ele>1780.3798</ele>
        <time>2014-03-02T10:16:40Z</time>
      </trkpt>
      <trkpt lat="45.60179" lon="6.65656">
        <ele>1780.3798</ele>
        <time>2014-03-02T10:16:42Z</time>
      </trkpt>
      <trkpt lat="45.60184" lon="6.65648">
        <ele>1783.883</ele>
        <time>2014-03-02T10:16:58Z</time>
      </trkpt>
      <trkpt lat="45.60185" lon="6.65645">
        <ele>1783.883</ele>
        <time>2014-03-02T10:17:02Z</time>
      </trkpt>
      <trkpt lat="45.60186" lon="6.65644">
        <ele>1783.883</ele>
        <time>2014-03-02T10:17:11Z</time>
      </trkpt>
      <trkpt lat="45.60187" lon="6.65643">
        <ele>1783.883</ele>
        <time>2014-03-02T10:17:12Z</time>
      </trkpt>
      <trkpt lat="45.60189" lon="6.65641">
        <ele>1783.883</ele>
        <time>2014-03-02T10:17:20Z</time>
      </trkpt>
      <trkpt lat="45.60192" lon="6.65634">
        <ele>1787.4316</ele>
        <time>2014-03-02T10:17:38Z</time>
      </trkpt>
      <trkpt lat="45.60192" lon="6.65634">
        <ele>1787.4316</ele>
        <time>2014-03-02T10:17:44Z</time>
      </trkpt>
      <trkpt lat="45.60197" lon="6.65628">
        <ele>1787.4316</ele>
        <time>2014-03-02T10:17:55Z</time>
      </trkpt>
      <trkpt lat="45.60198" lon="6.65625">
        <ele>1790.961</ele>
        <time>2014-03-02T10:18:04Z</time>
      </trkpt>
      <trkpt lat="45.60202" lon="6.65619">
        <ele>1790.961</ele>
        <time>2014-03-02T10:18:17Z</time>
      </trkpt>
      <trkpt lat="45.60205" lon="6.65616">
        <ele>1790.961</ele>
        <time>2014-03-02T10:18:23Z</time>
      </trkpt>
      <trkpt lat="45.60205" lon="6.65615">
        <ele>1794.6855</ele>
        <time>2014-03-02T10:18:29Z</time>
      </trkpt>
      <trkpt lat="45.6021" lon="6.65605">
        <ele>1794.6855</ele>
        <time>2014-03-02T10:18:44Z</time>
      </trkpt>
      <trkpt lat="45.60218" lon="6.65594">
        <ele>1798.2842</ele>
        <time>2014-03-02T10:19:05Z</time>
      </trkpt>
      <trkpt lat="45.60222" lon="6.65592">
        <ele>1798.2842</ele>
        <time>2014-03-02T10:19:22Z</time>
      </trkpt>
      <trkpt lat="45.60223" lon="6.65593">
        <ele>1798.2842</ele>
        <time>2014-03-02T10:19:22Z</time>
      </trkpt>
      <trkpt lat="45.60224" lon="6.65594">
        <ele>1798.2842</ele>
        <time>2014-03-02T10:19:29Z</time>
      </trkpt>
      <trkpt lat="45.60226" lon="6.65595">
        <ele>1802.728</ele>
        <time>2014-03-02T10:19:32Z</time>
      </trkpt>
      <trkpt lat="45.60228" lon="6.65593">
        <ele>1802.728</ele>
        <time>2014-03-02T10:19:37Z</time>
      </trkpt>
      <trkpt lat="45.6023" lon="6.6559">
        <ele>1802.728</ele>
        <time>2014-03-02T10:19:47Z</time>
      </trkpt>
      <trkpt lat="45.60233" lon="6.65588">
        <ele>1802.728</ele>
        <time>2014-03-02T10:19:54Z</time>
      </trkpt>
      <trkpt lat="45.60234" lon="6.65586">
        <ele>1806.3927</ele>
        <time>2014-03-02T10:19:58Z</time>
      </trkpt>
      <trkpt lat="45.60235" lon="6.65584">
        <ele>1806.3927</ele>
        <time>2014-03-02T10:20:02Z</time>
      </trkpt>
      <trkpt lat="45.60235" lon="6.65583">
        <ele>1806.3927</ele>
        <time>2014-03-02T10:20:09Z</time>
      </trkpt>
      <trkpt lat="45.60239" lon="6.6558">
        <ele>1806.3927</ele>
        <time>2014-03-02T10:20:11Z</time>
      </trkpt>
      <trkpt lat="45.6024" lon="6.65578">
        <ele>1806.3927</ele>
        <time>2014-03-02T10:20:16Z</time>
      </trkpt>
      <trkpt lat="45.60243" lon="6.65576">
        <ele>1810.1962</ele>
        <time>2014-03-02T10:20:22Z</time>
      </trkpt>
      <trkpt lat="45.60251" lon="6.65567">
        <ele>1814.0088</ele>
        <time>2014-03-02T10:20:44Z</time>
      </trkpt>
      <trkpt lat="45.60252" lon="6.65565">
        <ele>1814.0088</ele>
        <time>2014-03-02T10:20:47Z</time>
      </trkpt>
      <trkpt lat="45.60253" lon="6.65563">
        <ele>1814.0088</ele>
        <time>2014-03-02T10:20:53Z</time>
      </trkpt>
      <trkpt lat="45.60255" lon="6.65562">
        <ele>1814.0088</ele>
        <time>2014-03-02T10:20:58Z</time>
      </trkpt>
      <trkpt lat="45.60258" lon="6.65558">
        <ele>1818.2003</ele>
        <time>2014-03-02T10:21:03Z</time>
      </trkpt>
      <trkpt lat="45.60258" lon="6.65557">
        <ele>1818.2003</ele>
        <time>2014-03-02T10:21:08Z</time>
      </trkpt>
      <trkpt lat="45.6026" lon="6.65555">
        <ele>1818.2003</ele>
        <time>2014-03-02T10:21:13Z</time>
      </trkpt>
      <trkpt lat="45.60269" lon="6.65547">
        <ele>1822.565</ele>
        <time>2014-03-02T10:21:33Z</time>
      </trkpt>
      <trkpt lat="45.60271" lon="6.65546">
        <ele>1822.565</ele>
        <time>2014-03-02T10:21:46Z</time>
      </trkpt>
      <trkpt lat="45.60278" lon="6.65542">
        <ele>1826.9401</ele>
        <time>2014-03-02T10:22:02Z</time>
      </trkpt>
      <trkpt lat="45.60284" lon="6.65536">
        <ele>1826.9401</ele>
        <time>2014-03-02T10:22:22Z</time>
      </trkpt>
      <trkpt lat="45.60285" lon="6.65535">
        <ele>1831.0598</ele>
        <time>2014-03-02T10:22:36Z</time>
      </trkpt>
      <trkpt lat="45.60291" lon="6.65532">
        <ele>1831.0598</ele>
        <time>2014-03-02T10:22:45Z</time>
      </trkpt>
      <trkpt lat="45.60291" lon="6.65531">
        <ele>1831.0598</ele>
        <time>2014-03-02T10:22:47Z</time>
      </trkpt>
      <trkpt lat="45.60292" lon="6.65531">
        <ele>1831.0598</ele>
        <time>2014-03-02T10:22:54Z</time>
      </trkpt>
      <trkpt lat="45.60298" lon="6.65529">
        <ele>1835.3562</ele>
        <time>2014-03-02T10:23:07Z</time>
      </trkpt>
      <trkpt lat="45.60304" lon="6.65521">
        <ele>1835.3562</ele>
        <time>2014-03-02T10:23:13Z</time>
      </trkpt>
      <trkpt lat="45.60305" lon="6.6552">
        <ele>1839.1481</ele>
        <time>2014-03-02T10:23:20Z</time>
      </trkpt>
      <trkpt lat="45.60309" lon="6.65518">
        <ele>1839.1481</ele>
        <time>2014-03-02T10:23:21Z</time>
      </trkpt>
      <trkpt lat="45.60313" lon="6.65516">
        <ele>1839.1481</ele>
        <time>2014-03-02T10:23:30Z</time>
      </trkpt>
      <trkpt lat="45.60315" lon="6.65514">
        <ele>1843.0162</ele>
        <time>2014-03-02T10:23:40Z</time>
      </trkpt>
      <trkpt lat="45.60315" lon="6.65513">
        <ele>1843.0162</ele>
        <time>2014-03-02T10:23:42Z</time>
      </trkpt>
      <trkpt lat="45.6032" lon="6.6551">
        <ele>1843.0162</ele>
        <time>2014-03-02T10:23:56Z</time>
      </trkpt>
      <trkpt lat="45.60327" lon="6.65501">
        <ele>1846.8218</ele>
        <time>2014-03-02T10:24:17Z</time>
      </trkpt>
      <trkpt lat="45.60334" lon="6.65493">
        <ele>1850.7386</ele>
        <time>2014-03-02T10:24:34Z</time>
      </trkpt>
      <trkpt lat="45.60339" lon="6.65489">
        <ele>1850.7386</ele>
        <time>2014-03-02T10:24:45Z</time>
      </trkpt>
      <trkpt lat="45.60339" lon="6.65487">
        <ele>1850.7386</ele>
        <time>2014-03-02T10:24:47Z</time>
      </trkpt>
      <trkpt lat="45.6034" lon="6.65486">
        <ele>1850.7386</ele>
        <time>2014-03-02T10:24:55Z</time>
      </trkpt>
      <trkpt lat="45.60345" lon="6.65483">
        <ele>1854.4666</ele>
        <time>2014-03-02T10:25:05Z</time>
      </trkpt>
      <trkpt lat="45.60352" lon="6.6548">
        <ele>1854.4666</ele>
        <time>2014-03-02T10:25:19Z</time>
      </trkpt>
      <trkpt lat="45.60352" lon="6.6548">
        <ele>1854.4666</ele>
        <time>2014-03-02T10:25:22Z</time>
      </trkpt>
      <trkpt lat="45.60364" lon="6.6548">
        <ele>1858.5494</ele>
        <time>2014-03-02T10:25:51Z</time>
      </trkpt>
      <trkpt lat="45.60367" lon="6.65483">
        <ele>1858.5494</ele>
        <time>2014-03-02T10:25:58Z</time>
      </trkpt>
      <trkpt lat="45.60368" lon="6.65483">
        <ele>1858.5494</ele>
        <time>2014-03-02T10:26:01Z</time>
      </trkpt>
      <trkpt lat="45.6037" lon="6.65486">
        <ele>1858.5494</ele>
        <time>2014-03-02T10:26:11Z</time>
      </trkpt>
      <trkpt lat="45.60374" lon="6.65486">
        <ele>1862.5538</ele>
        <time>2014-03-02T10:26:20Z</time>
      </trkpt>
      <trkpt lat="45.60378" lon="6.65485">
        <ele>1862.5538</ele>
        <time>2014-03-02T10:26:32Z</time>
      </trkpt>
      <trkpt lat="45.60381" lon="6.65485">
        <ele>1862.5538</ele>
        <time>2014-03-02T10:26:39Z</time>
      </trkpt>
      <trkpt lat="45.60387" lon="6.65484">
        <ele>1866.4242</ele>
        <time>2014-03-02T10:26:48Z</time>
      </trkpt>
      <trkpt lat="45.60388" lon="6.65483">
        <ele>1866.4242</ele>
        <time>2014-03-02T10:26:51Z</time>
      </trkpt>
      <trkpt lat="45.60391" lon="6.65481">
        <ele>1866.4242</ele>
        <time>2014-03-02T10:26:56Z</time>
      </trkpt>
      <trkpt lat="45.60394" lon="6.65479">
        <ele>1866.4242</ele>
        <time>2014-03-02T10:27:03Z</time>
      </trkpt>
      <trkpt lat="45.60395" lon="6.65478">
        <ele>1866.4242</ele>
        <time>2014-03-02T10:27:08Z</time>
      </trkpt>
      <trkpt lat="45.604" lon="6.65478">
        <ele>1870.0231</ele>
        <time>2014-03-02T10:27:23Z</time>
      </trkpt>
      <trkpt lat="45.60404" lon="6.65479">
        <ele>1870.0231</ele>
        <time>2014-03-02T10:27:40Z</time>
      </trkpt>
      <trkpt lat="45.6041" lon="6.65483">
        <ele>1873.9299</ele>
        <time>2014-03-02T10:27:42Z</time>
      </trkpt>
      <trkpt lat="45.60411" lon="6.65484">
        <ele>1873.9299</ele>
        <time>2014-03-02T10:27:47Z</time>
      </trkpt>
      <trkpt lat="45.60414" lon="6.65485">
        <ele>1873.9299</ele>
        <time>2014-03-02T10:27:54Z</time>
      </trkpt>
      <trkpt lat="45.60417" lon="6.65488">
        <ele>1873.9299</ele>
        <time>2014-03-02T10:27:57Z</time>
      </trkpt>
      <trkpt lat="45.6042" lon="6.65492">
        <ele>1877.7448</ele>
        <time>2014-03-02T10:28:03Z</time>
      </trkpt>
      <trkpt lat="45.60421" lon="6.65496">
        <ele>1877.7448</ele>
        <time>2014-03-02T10:28:08Z</time>
      </trkpt>
      <trkpt lat="45.60424" lon="6.65502">
        <ele>1877.7448</ele>
        <time>2014-03-02T10:28:15Z</time>
      </trkpt>
      <trkpt lat="45.60425" lon="6.65502">
        <ele>1881.284</ele>
        <time>2014-03-02T10:28:17Z</time>
      </trkpt>
      <trkpt lat="45.6043" lon="6.65502">
        <ele>1881.284</ele>
        <time>2014-03-02T10:28:28Z</time>
      </trkpt>
      <trkpt lat="45.60438" lon="6.65502">
        <ele>1883.9753</ele>
        <time>2014-03-02T10:28:41Z</time>
      </trkpt>
      <trkpt lat="45.6045" lon="6.655">
        <ele>1886.8906</ele>
        <time>2014-03-02T10:29:07Z</time>
      </trkpt>
      <trkpt lat="45.60452" lon="6.65501">
        <ele>1886.8906</ele>
        <time>2014-03-02T10:29:26Z</time>
      </trkpt>
      <trkpt lat="45.60452" lon="6.65501">
        <ele>1886.8906</ele>
        <time>2014-03-02T10:29:27Z</time>
      </trkpt>
      <trkpt lat="45.60456" lon="6.655">
        <ele>1886.8906</ele>
        <time>2014-03-02T10:29:35Z</time>
      </trkpt>
      <trkpt lat="45.60457" lon="6.655">
        <ele>1886.8906</ele>
        <time>2014-03-02T10:29:36Z</time>
      </trkpt>
      <trkpt lat="45.60457" lon="6.655">
        <ele>1886.8906</ele>
        <time>2014-03-02T10:29:45Z</time>
      </trkpt>
      <trkpt lat="45.60461" lon="6.65502">
        <ele>1890.7917</ele>
        <time>2014-03-02T10:29:56Z</time>
      </trkpt>
      <trkpt lat="45.60467" lon="6.65501">
        <ele>1890.7917</ele>
        <time>2014-03-02T10:30:03Z</time>
      </trkpt>
      <trkpt lat="45.6047" lon="6.65535">
        <ele>1895.575</ele>
        <time>2014-03-02T10:30:56Z</time>
      </trkpt>
      <trkpt lat="45.6047" lon="6.65541">
        <ele>1895.575</ele>
        <time>2014-03-02T10:31:03Z</time>
      </trkpt>
      <trkpt lat="45.6047" lon="6.65543">
        <ele>1895.575</ele>
        <time>2014-03-02T10:31:08Z</time>
      </trkpt>
      <trkpt lat="45.6047" lon="6.65544">
        <ele>1895.575</ele>
        <time>2014-03-02T10:31:13Z</time>
      </trkpt>
      <trkpt lat="45.60472" lon="6.65549">
        <ele>1899.8446</ele>
        <time>2014-03-02T10:31:18Z</time>
      </trkpt>
      <trkpt lat="45.60471" lon="6.65557">
        <ele>1899.8446</ele>
        <time>2014-03-02T10:31:25Z</time>
      </trkpt>
      <trkpt lat="45.60471" lon="6.65558">
        <ele>1899.8446</ele>
        <time>2014-03-02T10:31:26Z</time>
      </trkpt>
      <trkpt lat="45.6047" lon="6.6556">
        <ele>1899.8446</ele>
        <time>2014-03-02T10:31:32Z</time>
      </trkpt>
      <trkpt lat="45.60471" lon="6.65562">
        <ele>1903.7794</ele>
        <time>2014-03-02T10:31:41Z</time>
      </trkpt>
      <trkpt lat="45.60469" lon="6.65572">
        <ele>1903.7794</ele>
        <time>2014-03-02T10:31:49Z</time>
      </trkpt>
      <trkpt lat="45.60469" lon="6.65573">
        <ele>1903.7794</ele>
        <time>2014-03-02T10:31:52Z</time>
      </trkpt>
      <trkpt lat="45.60467" lon="6.65576">
        <ele>1908.324</ele>
        <time>2014-03-02T10:31:58Z</time>
      </trkpt>
      <trkpt lat="45.60467" lon="6.65577">
        <ele>1908.324</ele>
        <time>2014-03-02T10:32:04Z</time>
      </trkpt>
      <trkpt lat="45.60466" lon="6.6558">
        <ele>1908.324</ele>
        <time>2014-03-02T10:32:10Z</time>
      </trkpt>
      <trkpt lat="45.60466" lon="6.6558">
        <ele>1908.324</ele>
        <time>2014-03-02T10:32:11Z</time>
      </trkpt>
      <trkpt lat="45.60465" lon="6.65581">
        <ele>1908.324</ele>
        <time>2014-03-02T10:32:17Z</time>
      </trkpt>
      <trkpt lat="45.60465" lon="6.65582">
        <ele>1908.324</ele>
        <time>2014-03-02T10:32:26Z</time>
      </trkpt>
      <trkpt lat="45.60465" lon="6.65584">
        <ele>1908.324</ele>
        <time>2014-03-02T10:32:33Z</time>
      </trkpt>
      <trkpt lat="45.60464" lon="6.65584">
        <ele>1908.324</ele>
        <time>2014-03-02T10:32:37Z</time>
      </trkpt>
      <trkpt lat="45.60464" lon="6.65584">
        <ele>1908.324</ele>
        <time>2014-03-02T10:32:44Z</time>
      </trkpt>
      <trkpt lat="45.60464" lon="6.65585">
        <ele>1908.324</ele>
        <time>2014-03-02T10:32:54Z</time>
      </trkpt>
      <trkpt lat="45.60467" lon="6.65585">
        <ele>1911.9452</ele>
        <time>2014-03-02T10:33:03Z</time>
      </trkpt>
      <trkpt lat="45.60468" lon="6.65586">
        <ele>1911.9452</ele>
        <time>2014-03-02T10:33:08Z</time>
      </trkpt>
      <trkpt lat="45.60473" lon="6.65585">
        <ele>1911.9452</ele>
        <time>2014-03-02T10:33:19Z</time>
      </trkpt>
      <trkpt lat="45.60477" lon="6.65584">
        <ele>1914.7817</ele>
        <time>2014-03-02T10:33:29Z</time>
      </trkpt>
      <trkpt lat="45.60482" lon="6.65585">
        <ele>1914.7817</ele>
        <time>2014-03-02T10:33:43Z</time>
      </trkpt>
      <trkpt lat="45.60483" lon="6.65585">
        <ele>1914.7817</ele>
        <time>2014-03-02T10:33:47Z</time>
      </trkpt>
      <trkpt lat="45.60488" lon="6.65585">
        <ele>1918.1173</ele>
        <time>2014-03-02T10:34:03Z</time>
      </trkpt>
      <trkpt lat="45.60489" lon="6.65585">
        <ele>1918.1173</ele>
        <time>2014-03-02T10:34:08Z</time>
      </trkpt>
      <trkpt lat="45.60495" lon="6.65585">
        <ele>1918.1173</ele>
        <time>2014-03-02T10:34:20Z</time>
      </trkpt>
      <trkpt lat="45.60495" lon="6.65585">
        <ele>1918.1173</ele>
        <time>2014-03-02T10:34:21Z</time>
      </trkpt>
      <trkpt lat="45.60493" lon="6.65588">
        <ele>1918.1173</ele>
        <time>2014-03-02T10:34:30Z</time>
      </trkpt>
      <trkpt lat="45.60493" lon="6.65589">
        <ele>1921.6556</ele>
        <time>2014-03-02T10:34:32Z</time>
      </trkpt>
      <trkpt lat="45.60491" lon="6.6559">
        <ele>1921.6556</ele>
        <time>2014-03-02T10:34:39Z</time>
      </trkpt>
      <trkpt lat="45.60482" lon="6.656">
        <ele>1925.9576</ele>
        <time>2014-03-02T10:35:01Z</time>
      </trkpt>
      <trkpt lat="45.60481" lon="6.65602">
        <ele>1925.9576</ele>
        <time>2014-03-02T10:35:13Z</time>
      </trkpt>
      <trkpt lat="45.60482" lon="6.65603">
        <ele>1925.9576</ele>
        <time>2014-03-02T10:35:13Z</time>
      </trkpt>
      <trkpt lat="45.60482" lon="6.65603">
        <ele>1925.9576</ele>
        <time>2014-03-02T10:35:18Z</time>
      </trkpt>
      <trkpt lat="45.6048" lon="6.65606">
        <ele>1925.9576</ele>
        <time>2014-03-02T10:35:29Z</time>
      </trkpt>
      <trkpt lat="45.60479" lon="6.65611">
        <ele>1925.9576</ele>
        <time>2014-03-02T10:35:41Z</time>
      </trkpt>
      <trkpt lat="45.60479" lon="6.65614">
        <ele>1930.3735</ele>
        <time>2014-03-02T10:35:50Z</time>
      </trkpt>
      <trkpt lat="45.60478" lon="6.65618">
        <ele>1930.3735</ele>
        <time>2014-03-02T10:35:58Z</time>
      </trkpt>
      <trkpt lat="45.60479" lon="6.65621">
        <ele>1930.3735</ele>
        <time>2014-03-02T10:36:03Z</time>
      </trkpt>
      <trkpt lat="45.60479" lon="6.65623">
        <ele>1930.3735</ele>
        <time>2014-03-02T10:36:15Z</time>
      </trkpt>
      <trkpt lat="45.60481" lon="6.65625">
        <ele>1930.3735</ele>
        <time>2014-03-02T10:36:36Z</time>
      </trkpt>
      <trkpt lat="45.60481" lon="6.65625">
        <ele>1930.3735</ele>
        <time>2014-03-02T10:36:44Z</time>
      </trkpt>
      <trkpt lat="45.60481" lon="6.65625">
        <ele>1930.3735</ele>
        <time>2014-03-02T10:36:50Z</time>
      </trkpt>
      <trkpt lat="45.60481" lon="6.65625">
        <ele>1930.3735</ele>
        <time>2014-03-02T10:36:52Z</time>
      </trkpt>
      <trkpt lat="45.60481" lon="6.65625">
        <ele>1930.3735</ele>
        <time>2014-03-02T10:37:07Z</time>
      </trkpt>
      <trkpt lat="45.60481" lon="6.65625">
        <ele>1930.3735</ele>
        <time>2014-03-02T10:37:13Z</time>
      </trkpt>
      <trkpt lat="45.60479" lon="6.65625">
        <ele>1933.667</ele>
        <time>2014-03-02T10:37:20Z</time>
      </trkpt>
      <trkpt lat="45.6048" lon="6.65625">
        <ele>1933.667</ele>
        <time>2014-03-02T10:37:21Z</time>
      </trkpt>
      <trkpt lat="45.6048" lon="6.65624">
        <ele>1933.667</ele>
        <time>2014-03-02T10:37:32Z</time>
      </trkpt>
      <trkpt lat="45.60479" lon="6.65624">
        <ele>1933.667</ele>
        <time>2014-03-02T10:37:42Z</time>
      </trkpt>
      <trkpt lat="45.60479" lon="6.65624">
        <ele>1933.667</ele>
        <time>2014-03-02T10:37:51Z</time>
      </trkpt>
      <trkpt lat="45.60479" lon="6.65636">
        <ele>1936.9584</ele>
        <time>2014-03-02T10:38:03Z</time>
      </trkpt>
      <trkpt lat="45.60493" lon="6.65657">
        <ele>1939.1385</ele>
        <time>2014-03-02T10:38:28Z</time>
      </trkpt>
      <trkpt lat="45.60495" lon="6.65658">
        <ele>1939.1385</ele>
        <time>2014-03-02T10:38:32Z</time>
      </trkpt>
      <trkpt lat="45.60499" lon="6.65661">
        <ele>1939.1385</ele>
        <time>2014-03-02T10:38:42Z</time>
      </trkpt>
      <trkpt lat="45.60497" lon="6.65666">
        <ele>1941.5895</ele>
        <time>2014-03-02T10:38:52Z</time>
      </trkpt>
      <trkpt lat="45.60493" lon="6.65671">
        <ele>1941.5895</ele>
        <time>2014-03-02T10:39:00Z</time>
      </trkpt>
      <trkpt lat="45.60492" lon="6.65673">
        <ele>1941.5895</ele>
        <time>2014-03-02T10:39:03Z</time>
      </trkpt>
      <trkpt lat="45.60491" lon="6.65673">
        <ele>1941.5895</ele>
        <time>2014-03-02T10:39:08Z</time>
      </trkpt>
      <trkpt lat="45.60494" lon="6.65688">
        <ele>1944.9716</ele>
        <time>2014-03-02T10:39:55Z</time>
      </trkpt>
      <trkpt lat="45.60494" lon="6.65689">
        <ele>1944.9716</ele>
        <time>2014-03-02T10:39:58Z</time>
      </trkpt>
      <trkpt lat="45.60493" lon="6.65693">
        <ele>1944.9716</ele>
        <time>2014-03-02T10:40:02Z</time>
      </trkpt>
      <trkpt lat="45.60495" lon="6.65702">
        <ele>1948.251</ele>
        <time>2014-03-02T10:40:35Z</time>
      </trkpt>
      <trkpt lat="45.60497" lon="6.65703">
        <ele>1948.251</ele>
        <time>2014-03-02T10:40:46Z</time>
      </trkpt>
      <trkpt lat="45.60498" lon="6.65704">
        <ele>1948.251</ele>
        <time>2014-03-02T10:40:55Z</time>
      </trkpt>
      <trkpt lat="45.60499" lon="6.65706">
        <ele>1948.251</ele>
        <time>2014-03-02T10:41:05Z</time>
      </trkpt>
      <trkpt lat="45.60498" lon="6.65708">
        <ele>1948.251</ele>
        <time>2014-03-02T10:41:13Z</time>
      </trkpt>
      <trkpt lat="45.60496" lon="6.65713">
        <ele>1951.8827</ele>
        <time>2014-03-02T10:41:28Z</time>
      </trkpt>
      <trkpt lat="45.60495" lon="6.65715">
        <ele>1951.8827</ele>
        <time>2014-03-02T10:41:41Z</time>
      </trkpt>
      <trkpt lat="45.60495" lon="6.65717">
        <ele>1951.8827</ele>
        <time>2014-03-02T10:41:49Z</time>
      </trkpt>
      <trkpt lat="45.60496" lon="6.65718">
        <ele>1951.8827</ele>
        <time>2014-03-02T10:41:53Z</time>
      </trkpt>
      <trkpt lat="45.60499" lon="6.65722">
        <ele>1951.8827</ele>
        <time>2014-03-02T10:42:00Z</time>
      </trkpt>
      <trkpt lat="45.605" lon="6.65723">
        <ele>1954.8748</ele>
        <time>2014-03-02T10:42:04Z</time>
      </trkpt>
      <trkpt lat="45.60505" lon="6.65727">
        <ele>1954.8748</ele>
        <time>2014-03-02T10:42:23Z</time>
      </trkpt>
      <trkpt lat="45.60504" lon="6.65727">
        <ele>1954.8748</ele>
        <time>2014-03-02T10:42:32Z</time>
      </trkpt>
      <trkpt lat="45.60503" lon="6.65734">
        <ele>1958.1115</ele>
        <time>2014-03-02T10:42:41Z</time>
      </trkpt>
      <trkpt lat="45.60503" lon="6.65738">
        <ele>1958.1115</ele>
        <time>2014-03-02T10:42:50Z</time>
      </trkpt>
      <trkpt lat="45.60503" lon="6.65739">
        <ele>1958.1115</ele>
        <time>2014-03-02T10:42:58Z</time>
      </trkpt>
      <trkpt lat="45.60503" lon="6.65742">
        <ele>1958.1115</ele>
        <time>2014-03-02T10:43:05Z</time>
      </trkpt>
      <trkpt lat="45.60503" lon="6.65742">
        <ele>1958.1115</ele>
        <time>2014-03-02T10:43:08Z</time>
      </trkpt>
      <trkpt lat="45.6051" lon="6.65747">
        <ele>1961.4604</ele>
        <time>2014-03-02T10:43:27Z</time>
      </trkpt>
      <trkpt lat="45.6051" lon="6.65748">
        <ele>1961.4604</ele>
        <time>2014-03-02T10:43:33Z</time>
      </trkpt>
      <trkpt lat="45.60512" lon="6.6575">
        <ele>1961.4604</ele>
        <time>2014-03-02T10:43:38Z</time>
      </trkpt>
      <trkpt lat="45.60517" lon="6.65754">
        <ele>1965.2164</ele>
        <time>2014-03-02T10:43:53Z</time>
      </trkpt>
      <trkpt lat="45.60517" lon="6.65754">
        <ele>1965.2164</ele>
        <time>2014-03-02T10:44:00Z</time>
      </trkpt>
      <trkpt lat="45.6052" lon="6.65754">
        <ele>1965.2164</ele>
        <time>2014-03-02T10:44:01Z</time>
      </trkpt>
      <trkpt lat="45.60525" lon="6.65759">
        <ele>1965.2164</ele>
        <time>2014-03-02T10:44:24Z</time>
      </trkpt>
      <trkpt lat="45.60528" lon="6.65771">
        <ele>1969.7814</ele>
        <time>2014-03-02T10:44:45Z</time>
      </trkpt>
      <trkpt lat="45.60528" lon="6.65772">
        <ele>1969.7814</ele>
        <time>2014-03-02T10:44:47Z</time>
      </trkpt>
      <trkpt lat="45.60526" lon="6.65783">
        <ele>1969.7814</ele>
        <time>2014-03-02T10:45:04Z</time>
      </trkpt>
      <trkpt lat="45.60527" lon="6.65787">
        <ele>1974.7325</ele>
        <time>2014-03-02T10:45:14Z</time>
      </trkpt>
      <trkpt lat="45.60527" lon="6.65787">
        <ele>1974.7325</ele>
        <time>2014-03-02T10:45:18Z</time>
      </trkpt>
      <trkpt lat="45.60527" lon="6.65796">
        <ele>1974.7325</ele>
        <time>2014-03-02T10:45:29Z</time>
      </trkpt>
      <trkpt lat="45.60531" lon="6.658">
        <ele>1979.4469</ele>
        <time>2014-03-02T10:45:42Z</time>
      </trkpt>
      <trkpt lat="45.60537" lon="6.65802">
        <ele>1979.4469</ele>
        <time>2014-03-02T10:46:00Z</time>
      </trkpt>
      <trkpt lat="45.60543" lon="6.65805">
        <ele>1983.8951</ele>
        <time>2014-03-02T10:46:11Z</time>
      </trkpt>
      <trkpt lat="45.60545" lon="6.65807">
        <ele>1983.8951</ele>
        <time>2014-03-02T10:46:16Z</time>
      </trkpt>
      <trkpt lat="45.60546" lon="6.65807">
        <ele>1983.8951</ele>
        <time>2014-03-02T10:46:25Z</time>
      </trkpt>
      <trkpt lat="45.60548" lon="6.65814">
        <ele>1987.893</ele>
        <time>2014-03-02T10:46:35Z</time>
      </trkpt>
      <trkpt lat="45.60544" lon="6.6584">
        <ele>1991.8755</ele>
        <time>2014-03-02T10:47:05Z</time>
      </trkpt>
      <trkpt lat="45.60544" lon="6.65842">
        <ele>1991.8755</ele>
        <time>2014-03-02T10:47:07Z</time>
      </trkpt>
      <trkpt lat="45.60543" lon="6.65852">
        <ele>1991.8755</ele>
        <time>2014-03-02T10:47:24Z</time>
      </trkpt>
      <trkpt lat="45.60543" lon="6.65853">
        <ele>1991.8755</ele>
        <time>2014-03-02T10:47:28Z</time>
      </trkpt>
      <trkpt lat="45.60545" lon="6.65863">
        <ele>1996.1599</ele>
        <time>2014-03-02T10:47:40Z</time>
      </trkpt>
      <trkpt lat="45.60554" lon="6.65871">
        <ele>2000.2468</ele>
        <time>2014-03-02T10:48:00Z</time>
      </trkpt>
      <trkpt lat="45.60564" lon="6.65874">
        <ele>2004.0629</ele>
        <time>2014-03-02T10:48:21Z</time>
      </trkpt>
      <trkpt lat="45.60569" lon="6.65876">
        <ele>2004.0629</ele>
        <time>2014-03-02T10:48:33Z</time>
      </trkpt>
      <trkpt lat="45.6057" lon="6.65877">
        <ele>2004.0629</ele>
        <time>2014-03-02T10:48:38Z</time>
      </trkpt>
      <trkpt lat="45.60575" lon="6.65877">
        <ele>2007.3248</ele>
        <time>2014-03-02T10:48:49Z</time>
      </trkpt>
      <trkpt lat="45.60579" lon="6.65881">
        <ele>2007.3248</ele>
        <time>2014-03-02T10:48:57Z</time>
      </trkpt>
      <trkpt lat="45.60583" lon="6.65884">
        <ele>2010.161</ele>
        <time>2014-03-02T10:49:02Z</time>
      </trkpt>
      <trkpt lat="45.60585" lon="6.65886">
        <ele>2010.161</ele>
        <time>2014-03-02T10:49:06Z</time>
      </trkpt>
      <trkpt lat="45.60586" lon="6.65886">
        <ele>2010.161</ele>
        <time>2014-03-02T10:49:16Z</time>
      </trkpt>
      <trkpt lat="45.60592" lon="6.65895">
        <ele>2012.879</ele>
        <time>2014-03-02T10:49:29Z</time>
      </trkpt>
      <trkpt lat="45.60593" lon="6.65905">
        <ele>2012.879</ele>
        <time>2014-03-02T10:49:51Z</time>
      </trkpt>
      <trkpt lat="45.60596" lon="6.65919">
        <ele>2016.1819</ele>
        <time>2014-03-02T10:50:10Z</time>
      </trkpt>
      <trkpt lat="45.60598" lon="6.65923">
        <ele>2016.1819</ele>
        <time>2014-03-02T10:50:20Z</time>
      </trkpt>
      <trkpt lat="45.60599" lon="6.65927">
        <ele>2016.1819</ele>
        <time>2014-03-02T10:50:23Z</time>
      </trkpt>
      <trkpt lat="45.60603" lon="6.65931">
        <ele>2019.3505</ele>
        <time>2014-03-02T10:50:40Z</time>
      </trkpt>
      <trkpt lat="45.60608" lon="6.65928">
        <ele>2019.3505</ele>
        <time>2014-03-02T10:50:51Z</time>
      </trkpt>
      <trkpt lat="45.60611" lon="6.65925">
        <ele>2019.3505</ele>
        <time>2014-03-02T10:50:58Z</time>
      </trkpt>
      <trkpt lat="45.60614" lon="6.65921">
        <ele>2022.6844</ele>
        <time>2014-03-02T10:51:02Z</time>
      </trkpt>
      <trkpt lat="45.60615" lon="6.65919">
        <ele>2022.6844</ele>
        <time>2014-03-02T10:51:08Z</time>
      </trkpt>
      <trkpt lat="45.60618" lon="6.65926">
        <ele>2022.6844</ele>
        <time>2014-03-02T10:51:29Z</time>
      </trkpt>
      <trkpt lat="45.6063" lon="6.65927">
        <ele>2026.4753</ele>
        <time>2014-03-02T10:52:01Z</time>
      </trkpt>
      <trkpt lat="45.60634" lon="6.6593">
        <ele>2026.4753</ele>
        <time>2014-03-02T10:52:20Z</time>
      </trkpt>
      <trkpt lat="45.6064" lon="6.65934">
        <ele>2029.9976</ele>
        <time>2014-03-02T10:52:40Z</time>
      </trkpt>
      <trkpt lat="45.60648" lon="6.6594">
        <ele>2033.4877</ele>
        <time>2014-03-02T10:53:03Z</time>
      </trkpt>
      <trkpt lat="45.6065" lon="6.65938">
        <ele>2033.4877</ele>
        <time>2014-03-02T10:53:09Z</time>
      </trkpt>
      <trkpt lat="45.6065" lon="6.65936">
        <ele>2033.4877</ele>
        <time>2014-03-02T10:53:30Z</time>
      </trkpt>
      <trkpt lat="45.6065" lon="6.65936">
        <ele>2033.4877</ele>
        <time>2014-03-02T10:53:32Z</time>
      </trkpt>
      <trkpt lat="45.60651" lon="6.65933">
        <ele>2033.4877</ele>
        <time>2014-03-02T10:53:39Z</time>
      </trkpt>
      <trkpt lat="45.60651" lon="6.65933">
        <ele>2033.4877</ele>
        <time>2014-03-02T10:53:44Z</time>
      </trkpt>
      <trkpt lat="45.60652" lon="6.65932">
        <ele>2033.4877</ele>
        <time>2014-03-02T10:53:56Z</time>
      </trkpt>
      <trkpt lat="45.60657" lon="6.65934">
        <ele>2037.28</ele>
        <time>2014-03-02T10:54:10Z</time>
      </trkpt>
      <trkpt lat="45.60658" lon="6.65934">
        <ele>2037.28</ele>
        <time>2014-03-02T10:54:12Z</time>
      </trkpt>
      <trkpt lat="45.60661" lon="6.65936">
        <ele>2037.28</ele>
        <time>2014-03-02T10:54:20Z</time>
      </trkpt>
      <trkpt lat="45.60662" lon="6.65936">
        <ele>2037.28</ele>
        <time>2014-03-02T10:54:31Z</time>
      </trkpt>
      <trkpt lat="45.60674" lon="6.65937">
        <ele>2040.747</ele>
        <time>2014-03-02T10:55:03Z</time>
      </trkpt>
      <trkpt lat="45.6068" lon="6.65936">
        <ele>2040.747</ele>
        <time>2014-03-02T10:55:10Z</time>
      </trkpt>
      <trkpt lat="45.60693" lon="6.65937">
        <ele>2043.9563</ele>
        <time>2014-03-02T10:55:33Z</time>
      </trkpt>
      <trkpt lat="45.60696" lon="6.65937">
        <ele>2043.9563</ele>
        <time>2014-03-02T10:55:38Z</time>
      </trkpt>
      <trkpt lat="45.60699" lon="6.65937">
        <ele>2043.9563</ele>
        <time>2014-03-02T10:55:43Z</time>
      </trkpt>
      <trkpt lat="45.60707" lon="6.65938">
        <ele>2047.1013</ele>
        <time>2014-03-02T10:56:03Z</time>
      </trkpt>
      <trkpt lat="45.6074" lon="6.65937">
        <ele>2050.6064</ele>
        <time>2014-03-02T10:56:56Z</time>
      </trkpt>
      <trkpt lat="45.60744" lon="6.65935">
        <ele>2050.6064</ele>
        <time>2014-03-02T10:57:06Z</time>
      </trkpt>
      <trkpt lat="45.60757" lon="6.65929">
        <ele>2054.3157</ele>
        <time>2014-03-02T10:57:35Z</time>
      </trkpt>
      <trkpt lat="45.60761" lon="6.65929">
        <ele>2054.3157</ele>
        <time>2014-03-02T10:57:47Z</time>
      </trkpt>
      <trkpt lat="45.60766" lon="6.65926">
        <ele>2058.0415</ele>
        <time>2014-03-02T10:58:00Z</time>
      </trkpt>
      <trkpt lat="45.60767" lon="6.65925">
        <ele>2058.0415</ele>
        <time>2014-03-02T10:58:03Z</time>
      </trkpt>
      <trkpt lat="45.60768" lon="6.65925">
        <ele>2058.0415</ele>
        <time>2014-03-02T10:58:10Z</time>
      </trkpt>
      <trkpt lat="45.60768" lon="6.65924">
        <ele>2058.0415</ele>
        <time>2014-03-02T10:58:12Z</time>
      </trkpt>
      <trkpt lat="45.60775" lon="6.65919">
        <ele>2062.1284</ele>
        <time>2014-03-02T10:58:32Z</time>
      </trkpt>
      <trkpt lat="45.60776" lon="6.65918">
        <ele>2062.1284</ele>
        <time>2014-03-02T10:58:39Z</time>
      </trkpt>
      <trkpt lat="45.60776" lon="6.65918">
        <ele>2062.1284</ele>
        <time>2014-03-02T10:58:43Z</time>
      </trkpt>
      <trkpt lat="45.60784" lon="6.65918">
        <ele>2065.8137</ele>
        <time>2014-03-02T10:58:57Z</time>
      </trkpt>
      <trkpt lat="45.6079" lon="6.65919">
        <ele>2065.8137</ele>
        <time>2014-03-02T10:59:06Z</time>
      </trkpt>
      <trkpt lat="45.60791" lon="6.65919">
        <ele>2065.8137</ele>
        <time>2014-03-02T10:59:07Z</time>
      </trkpt>
      <trkpt lat="45.60794" lon="6.6592">
        <ele>2069.4443</ele>
        <time>2014-03-02T10:59:16Z</time>
      </trkpt>
      <trkpt lat="45.60798" lon="6.6592">
        <ele>2069.4443</ele>
        <time>2014-03-02T10:59:26Z</time>
      </trkpt>
      <trkpt lat="45.60812" lon="6.6592">
        <ele>2073.2112</ele>
        <time>2014-03-02T11:00:03Z</time>
      </trkpt>
      <trkpt lat="45.60816" lon="6.65921">
        <ele>2073.2112</ele>
        <time>2014-03-02T11:00:07Z</time>
      </trkpt>
      <trkpt lat="45.6083" lon="6.65921">
        <ele>2077.22</ele>
        <time>2014-03-02T11:00:40Z</time>
      </trkpt>
      <trkpt lat="45.60833" lon="6.6592">
        <ele>2077.22</ele>
        <time>2014-03-02T11:01:01Z</time>
      </trkpt>
      <trkpt lat="45.6084" lon="6.65921">
        <ele>2081.005</ele>
        <time>2014-03-02T11:01:12Z</time>
      </trkpt>
      <trkpt lat="45.60848" lon="6.65923">
        <ele>2081.005</ele>
        <time>2014-03-02T11:01:29Z</time>
      </trkpt>
      <trkpt lat="45.60849" lon="6.65923">
        <ele>2084.4526</ele>
        <time>2014-03-02T11:01:34Z</time>
      </trkpt>
      <trkpt lat="45.60852" lon="6.65923">
        <ele>2084.4526</ele>
        <time>2014-03-02T11:01:45Z</time>
      </trkpt>
      <trkpt lat="45.60853" lon="6.65923">
        <ele>2084.4526</ele>
        <time>2014-03-02T11:01:46Z</time>
      </trkpt>
      <trkpt lat="45.60854" lon="6.65924">
        <ele>2084.4526</ele>
        <time>2014-03-02T11:01:55Z</time>
      </trkpt>
      <trkpt lat="45.60856" lon="6.65922">
        <ele>2084.4526</ele>
        <time>2014-03-02T11:02:04Z</time>
      </trkpt>
      <trkpt lat="45.60856" lon="6.65921">
        <ele>2084.4526</ele>
        <time>2014-03-02T11:02:08Z</time>
      </trkpt>
      <trkpt lat="45.60857" lon="6.65919">
        <ele>2088.3237</ele>
        <time>2014-03-02T11:02:19Z</time>
      </trkpt>
      <trkpt lat="45.60861" lon="6.65917">
        <ele>2088.3237</ele>
        <time>2014-03-02T11:02:30Z</time>
      </trkpt>
      <trkpt lat="45.60862" lon="6.65916">
        <ele>2088.3237</ele>
        <time>2014-03-02T11:02:33Z</time>
      </trkpt>
      <trkpt lat="45.60863" lon="6.65916">
        <ele>2088.3237</ele>
        <time>2014-03-02T11:02:38Z</time>
      </trkpt>
      <trkpt lat="45.60869" lon="6.65919">
        <ele>2091.8801</ele>
        <time>2014-03-02T11:02:49Z</time>
      </trkpt>
      <trkpt lat="45.60873" lon="6.65919">
        <ele>2091.8801</ele>
        <time>2014-03-02T11:03:00Z</time>
      </trkpt>
      <trkpt lat="45.60875" lon="6.6592">
        <ele>2091.8801</ele>
        <time>2014-03-02T11:03:08Z</time>
      </trkpt>
      <trkpt lat="45.60881" lon="6.65926">
        <ele>2095.3328</ele>
        <time>2014-03-02T11:03:20Z</time>
      </trkpt>
      <trkpt lat="45.60903" lon="6.65927">
        <ele>2098.8918</ele>
        <time>2014-03-02T11:04:02Z</time>
      </trkpt>
      <trkpt lat="45.60904" lon="6.65928">
        <ele>2098.8918</ele>
        <time>2014-03-02T11:04:07Z</time>
      </trkpt>
      <trkpt lat="45.60924" lon="6.65931">
        <ele>2103.256</ele>
        <time>2014-03-02T11:04:53Z</time>
      </trkpt>
      <trkpt lat="45.60927" lon="6.65928">
        <ele>2103.256</ele>
        <time>2014-03-02T11:04:58Z</time>
      </trkpt>
      <trkpt lat="45.60929" lon="6.65927">
        <ele>2103.256</ele>
        <time>2014-03-02T11:05:05Z</time>
      </trkpt>
      <trkpt lat="45.60934" lon="6.65924">
        <ele>2107.5574</ele>
        <time>2014-03-02T11:05:17Z</time>
      </trkpt>
      <trkpt lat="45.60937" lon="6.65924">
        <ele>2107.5574</ele>
        <time>2014-03-02T11:05:24Z</time>
      </trkpt>
      <trkpt lat="45.60942" lon="6.65926">
        <ele>2107.5574</ele>
        <time>2014-03-02T11:05:36Z</time>
      </trkpt>
      <trkpt lat="45.60947" lon="6.65927">
        <ele>2111.4956</ele>
        <time>2014-03-02T11:05:47Z</time>
      </trkpt>
      <trkpt lat="45.60949" lon="6.65926">
        <ele>2111.4956</ele>
        <time>2014-03-02T11:05:57Z</time>
      </trkpt>
      <trkpt lat="45.60951" lon="6.65923">
        <ele>2111.4956</ele>
        <time>2014-03-02T11:06:04Z</time>
      </trkpt>
      <trkpt lat="45.60952" lon="6.65922">
        <ele>2111.4956</ele>
        <time>2014-03-02T11:06:08Z</time>
      </trkpt>
      <trkpt lat="45.60955" lon="6.65917">
        <ele>2115.6306</ele>
        <time>2014-03-02T11:06:22Z</time>
      </trkpt>
      <trkpt lat="45.60963" lon="6.65912">
        <ele>2119.4275</ele>
        <time>2014-03-02T11:06:37Z</time>
      </trkpt>
      <trkpt lat="45.60964" lon="6.65912">
        <ele>2119.4275</ele>
        <time>2014-03-02T11:06:46Z</time>
      </trkpt>
      <trkpt lat="45.6097" lon="6.65908">
        <ele>2119.4275</ele>
        <time>2014-03-02T11:06:59Z</time>
      </trkpt>
      <trkpt lat="45.60971" lon="6.65908">
        <ele>2119.4275</ele>
        <time>2014-03-02T11:07:03Z</time>
      </trkpt>
      <trkpt lat="45.60977" lon="6.6591">
        <ele>2122.6084</ele>
        <time>2014-03-02T11:07:17Z</time>
      </trkpt>
      <trkpt lat="45.60981" lon="6.65912">
        <ele>2122.6084</ele>
        <time>2014-03-02T11:07:22Z</time>
      </trkpt>
      <trkpt lat="45.60981" lon="6.65913">
        <ele>2122.6084</ele>
        <time>2014-03-02T11:07:28Z</time>
      </trkpt>
      <trkpt lat="45.60983" lon="6.65914">
        <ele>2122.6084</ele>
        <time>2014-03-02T11:07:34Z</time>
      </trkpt>
      <trkpt lat="45.60986" lon="6.65914">
        <ele>2125.609</ele>
        <time>2014-03-02T11:07:36Z</time>
      </trkpt>
      <trkpt lat="45.60988" lon="6.65914">
        <ele>2125.609</ele>
        <time>2014-03-02T11:07:59Z</time>
      </trkpt>
      <trkpt lat="45.60988" lon="6.65914">
        <ele>2125.609</ele>
        <time>2014-03-02T11:08:03Z</time>
      </trkpt>
      <trkpt lat="45.60988" lon="6.65914">
        <ele>2125.609</ele>
        <time>2014-03-02T11:08:20Z</time>
      </trkpt>
      <trkpt lat="45.60988" lon="6.65914">
        <ele>2125.609</ele>
        <time>2014-03-02T11:08:21Z</time>
      </trkpt>
      <trkpt lat="45.60988" lon="6.65914">
        <ele>2125.609</ele>
        <time>2014-03-02T11:08:30Z</time>
      </trkpt>
      <trkpt lat="45.60988" lon="6.65914">
        <ele>2125.609</ele>
        <time>2014-03-02T11:08:31Z</time>
      </trkpt>
      <trkpt lat="45.60988" lon="6.65914">
        <ele>2125.609</ele>
        <time>2014-03-02T11:08:41Z</time>
      </trkpt>
      <trkpt lat="45.60988" lon="6.65914">
        <ele>2125.609</ele>
        <time>2014-03-02T11:08:51Z</time>
      </trkpt>
      <trkpt lat="45.6099" lon="6.65914">
        <ele>2125.609</ele>
        <time>2014-03-02T11:09:01Z</time>
      </trkpt>
      <trkpt lat="45.6099" lon="6.65914">
        <ele>2125.609</ele>
        <time>2014-03-02T11:09:01Z</time>
      </trkpt>
      <trkpt lat="45.6099" lon="6.65914">
        <ele>2125.609</ele>
        <time>2014-03-02T11:09:11Z</time>
      </trkpt>
      <trkpt lat="45.6099" lon="6.65914">
        <ele>2125.609</ele>
        <time>2014-03-02T11:09:20Z</time>
      </trkpt>
      <trkpt lat="45.6099" lon="6.65914">
        <ele>2125.609</ele>
        <time>2014-03-02T11:09:21Z</time>
      </trkpt>
      <trkpt lat="45.60991" lon="6.65914">
        <ele>2125.609</ele>
        <time>2014-03-02T11:09:43Z</time>
      </trkpt>
      <trkpt lat="45.60991" lon="6.65914">
        <ele>2125.609</ele>
        <time>2014-03-02T11:10:04Z</time>
      </trkpt>
      <trkpt lat="45.60991" lon="6.65914">
        <ele>2125.609</ele>
        <time>2014-03-02T11:10:23Z</time>
      </trkpt>
      <trkpt lat="45.60991" lon="6.65914">
        <ele>2125.609</ele>
        <time>2014-03-02T11:10:31Z</time>
      </trkpt>
      <trkpt lat="45.60991" lon="6.65914">
        <ele>2125.609</ele>
        <time>2014-03-02T11:10:47Z</time>
      </trkpt>
      <trkpt lat="45.60991" lon="6.65914">
        <ele>2125.609</ele>
        <time>2014-03-02T11:10:52Z</time>
      </trkpt>
      <trkpt lat="45.60991" lon="6.65914">
        <ele>2125.609</ele>
        <time>2014-03-02T11:10:57Z</time>
      </trkpt>
      <trkpt lat="45.60991" lon="6.65914">
        <ele>2125.609</ele>
        <time>2014-03-02T11:11:01Z</time>
      </trkpt>
      <trkpt lat="45.60991" lon="6.65914">
        <ele>2125.609</ele>
        <time>2014-03-02T11:11:06Z</time>
      </trkpt>
      <trkpt lat="45.60991" lon="6.65914">
        <ele>2125.609</ele>
        <time>2014-03-02T11:11:11Z</time>
      </trkpt>
      <trkpt lat="45.60991" lon="6.65914">
        <ele>2125.609</ele>
        <time>2014-03-02T11:11:16Z</time>
      </trkpt>
      <trkpt lat="45.60991" lon="6.65914">
        <ele>2125.609</ele>
        <time>2014-03-02T11:11:21Z</time>
      </trkpt>
      <trkpt lat="45.60991" lon="6.65914">
        <ele>2125.609</ele>
        <time>2014-03-02T11:11:26Z</time>
      </trkpt>
      <trkpt lat="45.60991" lon="6.65914">
        <ele>2125.609</ele>
        <time>2014-03-02T11:11:31Z</time>
      </trkpt>
      <trkpt lat="45.60991" lon="6.65914">
        <ele>2125.609</ele>
        <time>2014-03-02T11:11:36Z</time>
      </trkpt>
      <trkpt lat="45.60991" lon="6.65914">
        <ele>2125.609</ele>
        <time>2014-03-02T11:11:41Z</time>
      </trkpt>
      <trkpt lat="45.60991" lon="6.65914">
        <ele>2125.609</ele>
        <time>2014-03-02T11:11:46Z</time>
      </trkpt>
      <trkpt lat="45.60991" lon="6.65914">
        <ele>2125.609</ele>
        <time>2014-03-02T11:11:51Z</time>
      </trkpt>
      <trkpt lat="45.60992" lon="6.65914">
        <ele>2125.609</ele>
        <time>2014-03-02T11:11:56Z</time>
      </trkpt>
      <trkpt lat="45.60992" lon="6.65916">
        <ele>2125.609</ele>
        <time>2014-03-02T11:12:01Z</time>
      </trkpt>
      <trkpt lat="45.60992" lon="6.65916">
        <ele>2125.609</ele>
        <time>2014-03-02T11:12:06Z</time>
      </trkpt>
      <trkpt lat="45.60993" lon="6.65916">
        <ele>2125.609</ele>
        <time>2014-03-02T11:12:11Z</time>
      </trkpt>
      <trkpt lat="45.60993" lon="6.65917">
        <ele>2125.609</ele>
        <time>2014-03-02T11:12:17Z</time>
      </trkpt>
      <trkpt lat="45.60993" lon="6.65917">
        <ele>2125.609</ele>
        <time>2014-03-02T11:12:37Z</time>
      </trkpt>
      <trkpt lat="45.60993" lon="6.65917">
        <ele>2125.609</ele>
        <time>2014-03-02T11:12:43Z</time>
      </trkpt>
      <trkpt lat="45.60993" lon="6.65917">
        <ele>2125.609</ele>
        <time>2014-03-02T11:12:52Z</time>
      </trkpt>
      <trkpt lat="45.60993" lon="6.65917">
        <ele>2125.609</ele>
        <time>2014-03-02T11:12:58Z</time>
      </trkpt>
      <trkpt lat="45.60993" lon="6.65917">
        <ele>2125.609</ele>
        <time>2014-03-02T11:13:02Z</time>
      </trkpt>
      <trkpt lat="45.60993" lon="6.65917">
        <ele>2125.609</ele>
        <time>2014-03-02T11:13:09Z</time>
      </trkpt>
      <trkpt lat="45.60993" lon="6.65917">
        <ele>2125.609</ele>
        <time>2014-03-02T11:13:20Z</time>
      </trkpt>
      <trkpt lat="45.60994" lon="6.65917">
        <ele>2125.609</ele>
        <time>2014-03-02T11:13:21Z</time>
      </trkpt>
      <trkpt lat="45.60995" lon="6.65918">
        <ele>2128.7903</ele>
        <time>2014-03-02T11:13:31Z</time>
      </trkpt>
      <trkpt lat="45.60995" lon="6.65918">
        <ele>2128.7903</ele>
        <time>2014-03-02T11:13:56Z</time>
      </trkpt>
      <trkpt lat="45.60995" lon="6.65918">
        <ele>2128.7903</ele>
        <time>2014-03-02T11:14:04Z</time>
      </trkpt>
      <trkpt lat="45.60995" lon="6.65918">
        <ele>2128.7903</ele>
        <time>2014-03-02T11:14:07Z</time>
      </trkpt>
      <trkpt lat="45.60995" lon="6.65918">
        <ele>2128.7903</ele>
        <time>2014-03-02T11:14:12Z</time>
      </trkpt>
      <trkpt lat="45.60995" lon="6.65918">
        <ele>2128.7903</ele>
        <time>2014-03-02T11:14:22Z</time>
      </trkpt>
      <trkpt lat="45.60995" lon="6.65917">
        <ele>2128.7903</ele>
        <time>2014-03-02T11:15:01Z</time>
      </trkpt>
      <trkpt lat="45.60995" lon="6.65918">
        <ele>2128.7903</ele>
        <time>2014-03-02T11:15:47Z</time>
      </trkpt>
      <trkpt lat="45.60995" lon="6.65919">
        <ele>2128.7903</ele>
        <time>2014-03-02T11:15:53Z</time>
      </trkpt>
      <trkpt lat="45.60995" lon="6.65919">
        <ele>2128.7903</ele>
        <time>2014-03-02T11:16:04Z</time>
      </trkpt>
      <trkpt lat="45.60994" lon="6.65917">
        <ele>2128.7903</ele>
        <time>2014-03-02T11:16:17Z</time>
      </trkpt>
      <trkpt lat="45.60994" lon="6.65917">
        <ele>2128.7903</ele>
        <time>2014-03-02T11:16:25Z</time>
      </trkpt>
      <trkpt lat="45.60993" lon="6.65914">
        <ele>2128.7903</ele>
        <time>2014-03-02T11:16:36Z</time>
      </trkpt>
      <trkpt lat="45.60992" lon="6.65913">
        <ele>2128.7903</ele>
        <time>2014-03-02T11:16:46Z</time>
      </trkpt>
      <trkpt lat="45.60992" lon="6.65913">
        <ele>2128.7903</ele>
        <time>2014-03-02T11:16:55Z</time>
      </trkpt>
      <trkpt lat="45.60992" lon="6.65913">
        <ele>2128.7903</ele>
        <time>2014-03-02T11:17:05Z</time>
      </trkpt>
      <trkpt lat="45.60992" lon="6.65913">
        <ele>2128.7903</ele>
        <time>2014-03-02T11:17:15Z</time>
      </trkpt>
      <trkpt lat="45.60993" lon="6.6591">
        <ele>2128.7903</ele>
        <time>2014-03-02T11:17:33Z</time>
      </trkpt>
      <trkpt lat="45.60993" lon="6.65907">
        <ele>2131.6218</ele>
        <time>2014-03-02T11:18:04Z</time>
      </trkpt>
      <trkpt lat="45.60993" lon="6.65907">
        <ele>2131.6218</ele>
        <time>2014-03-02T11:18:09Z</time>
      </trkpt>
      <trkpt lat="45.60993" lon="6.65902">
        <ele>2131.6218</ele>
        <time>2014-03-02T11:18:15Z</time>
      </trkpt>
      <trkpt lat="45.60993" lon="6.659">
        <ele>2131.6218</ele>
        <time>2014-03-02T11:18:17Z</time>
      </trkpt>
      <trkpt lat="45.61003" lon="6.65879">
        <ele>2134.737</ele>
        <time>2014-03-02T11:19:01Z</time>
      </trkpt>
      <trkpt lat="45.61003" lon="6.65879">
        <ele>2134.737</ele>
        <time>2014-03-02T11:19:01Z</time>
      </trkpt>
      <trkpt lat="45.61004" lon="6.65878">
        <ele>2134.737</ele>
        <time>2014-03-02T11:19:16Z</time>
      </trkpt>
      <trkpt lat="45.61011" lon="6.65873">
        <ele>2134.737</ele>
        <time>2014-03-02T11:19:27Z</time>
      </trkpt>
      <trkpt lat="45.61018" lon="6.65872">
        <ele>2137.6987</ele>
        <time>2014-03-02T11:19:32Z</time>
      </trkpt>
      <trkpt lat="45.61025" lon="6.65872">
        <ele>2137.6987</ele>
        <time>2014-03-02T11:19:48Z</time>
      </trkpt>
      <trkpt lat="45.61025" lon="6.65872">
        <ele>2137.6987</ele>
        <time>2014-03-02T11:19:53Z</time>
      </trkpt>
      <trkpt lat="45.61031" lon="6.65873">
        <ele>2140.5203</ele>
        <time>2014-03-02T11:20:05Z</time>
      </trkpt>
      <trkpt lat="45.61035" lon="6.65874">
        <ele>2140.5203</ele>
        <time>2014-03-02T11:20:17Z</time>
      </trkpt>
      <trkpt lat="45.61039" lon="6.65874">
        <ele>2140.5203</ele>
        <time>2014-03-02T11:20:24Z</time>
      </trkpt>
      <trkpt lat="45.6104" lon="6.65874">
        <ele>2140.5203</ele>
        <time>2014-03-02T11:20:27Z</time>
      </trkpt>
      <trkpt lat="45.61044" lon="6.65873">
        <ele>2142.9692</ele>
        <time>2014-03-02T11:20:33Z</time>
      </trkpt>
      <trkpt lat="45.61044" lon="6.65873">
        <ele>2142.9692</ele>
        <time>2014-03-02T11:20:38Z</time>
      </trkpt>
      <trkpt lat="45.61052" lon="6.65872">
        <ele>2142.9692</ele>
        <time>2014-03-02T11:20:47Z</time>
      </trkpt>
      <trkpt lat="45.61055" lon="6.65871">
        <ele>2145.3792</ele>
        <time>2014-03-02T11:20:52Z</time>
      </trkpt>
      <trkpt lat="45.61058" lon="6.6587">
        <ele>2145.3792</ele>
        <time>2014-03-02T11:21:00Z</time>
      </trkpt>
      <trkpt lat="45.6106" lon="6.6587">
        <ele>2145.3792</ele>
        <time>2014-03-02T11:21:03Z</time>
      </trkpt>
      <trkpt lat="45.61064" lon="6.65866">
        <ele>2148.0735</ele>
        <time>2014-03-02T11:21:09Z</time>
      </trkpt>
      <trkpt lat="45.61067" lon="6.65863">
        <ele>2148.0735</ele>
        <time>2014-03-02T11:21:22Z</time>
      </trkpt>
      <trkpt lat="45.61069" lon="6.65862">
        <ele>2148.0735</ele>
        <time>2014-03-02T11:21:30Z</time>
      </trkpt>
      <trkpt lat="45.61077" lon="6.65845">
        <ele>2151.1782</ele>
        <time>2014-03-02T11:22:01Z</time>
      </trkpt>
      <trkpt lat="45.61078" lon="6.65845">
        <ele>2151.1782</ele>
        <time>2014-03-02T11:22:02Z</time>
      </trkpt>
      <trkpt lat="45.61079" lon="6.65842">
        <ele>2151.1782</ele>
        <time>2014-03-02T11:22:08Z</time>
      </trkpt>
      <trkpt lat="45.61082" lon="6.6584">
        <ele>2151.1782</ele>
        <time>2014-03-02T11:22:18Z</time>
      </trkpt>
      <trkpt lat="45.61084" lon="6.65841">
        <ele>2151.1782</ele>
        <time>2014-03-02T11:22:23Z</time>
      </trkpt>
      <trkpt lat="45.61086" lon="6.65844">
        <ele>2153.8574</ele>
        <time>2014-03-02T11:22:39Z</time>
      </trkpt>
      <trkpt lat="45.61087" lon="6.65848">
        <ele>2153.8574</ele>
        <time>2014-03-02T11:22:51Z</time>
      </trkpt>
      <trkpt lat="45.61087" lon="6.65848">
        <ele>2153.8574</ele>
        <time>2014-03-02T11:22:51Z</time>
      </trkpt>
      <trkpt lat="45.61089" lon="6.65851">
        <ele>2153.8574</ele>
        <time>2014-03-02T11:23:01Z</time>
      </trkpt>
      <trkpt lat="45.61092" lon="6.65855">
        <ele>2157.3413</ele>
        <time>2014-03-02T11:23:30Z</time>
      </trkpt>
      <trkpt lat="45.61092" lon="6.65855">
        <ele>2157.3413</ele>
        <time>2014-03-02T11:23:32Z</time>
      </trkpt>
      <trkpt lat="45.61092" lon="6.65856">
        <ele>2157.3413</ele>
        <time>2014-03-02T11:23:38Z</time>
      </trkpt>
      <trkpt lat="45.61096" lon="6.65861">
        <ele>2157.3413</ele>
        <time>2014-03-02T11:23:52Z</time>
      </trkpt>
      <trkpt lat="45.61098" lon="6.65864">
        <ele>2160.519</ele>
        <time>2014-03-02T11:24:08Z</time>
      </trkpt>
      <trkpt lat="45.61111" lon="6.65889">
        <ele>2163.7888</ele>
        <time>2014-03-02T11:25:01Z</time>
      </trkpt>
      <trkpt lat="45.61112" lon="6.65894">
        <ele>2163.7888</ele>
        <time>2014-03-02T11:25:11Z</time>
      </trkpt>
      <trkpt lat="45.61114" lon="6.65902">
        <ele>2167.1592</ele>
        <time>2014-03-02T11:25:27Z</time>
      </trkpt>
      <trkpt lat="45.61116" lon="6.65911">
        <ele>2167.1592</ele>
        <time>2014-03-02T11:25:43Z</time>
      </trkpt>
      <trkpt lat="45.61116" lon="6.65912">
        <ele>2167.1592</ele>
        <time>2014-03-02T11:25:48Z</time>
      </trkpt>
      <trkpt lat="45.61119" lon="6.6592">
        <ele>2170.6807</ele>
        <time>2014-03-02T11:26:02Z</time>
      </trkpt>
      <trkpt lat="45.61119" lon="6.65924">
        <ele>2170.6807</ele>
        <time>2014-03-02T11:26:11Z</time>
      </trkpt>
      <trkpt lat="45.61121" lon="6.65928">
        <ele>2170.6807</ele>
        <time>2014-03-02T11:26:29Z</time>
      </trkpt>
      <trkpt lat="45.61125" lon="6.65934">
        <ele>2173.6797</ele>
        <time>2014-03-02T11:26:38Z</time>
      </trkpt>
      <trkpt lat="45.61125" lon="6.65934">
        <ele>2173.6797</ele>
        <time>2014-03-02T11:26:43Z</time>
      </trkpt>
      <trkpt lat="45.61129" lon="6.6594">
        <ele>2173.6797</ele>
        <time>2014-03-02T11:26:59Z</time>
      </trkpt>
      <trkpt lat="45.61129" lon="6.6594">
        <ele>2173.6797</ele>
        <time>2014-03-02T11:27:04Z</time>
      </trkpt>
      <trkpt lat="45.61133" lon="6.65951">
        <ele>2176.6138</ele>
        <time>2014-03-02T11:27:22Z</time>
      </trkpt>
      <trkpt lat="45.61135" lon="6.65955">
        <ele>2176.6138</ele>
        <time>2014-03-02T11:27:26Z</time>
      </trkpt>
      <trkpt lat="45.61136" lon="6.65958">
        <ele>2176.6138</ele>
        <time>2014-03-02T11:27:35Z</time>
      </trkpt>
      <trkpt lat="45.6114" lon="6.65961">
        <ele>2179.5754</ele>
        <time>2014-03-02T11:27:45Z</time>
      </trkpt>
      <trkpt lat="45.61144" lon="6.65964">
        <ele>2179.5754</ele>
        <time>2014-03-02T11:27:56Z</time>
      </trkpt>
      <trkpt lat="45.61146" lon="6.65964">
        <ele>2179.5754</ele>
        <time>2014-03-02T11:28:03Z</time>
      </trkpt>
      <trkpt lat="45.61149" lon="6.65963">
        <ele>2182.9104</ele>
        <time>2014-03-02T11:28:07Z</time>
      </trkpt>
      <trkpt lat="45.61152" lon="6.65961">
        <ele>2182.9104</ele>
        <time>2014-03-02T11:28:16Z</time>
      </trkpt>
      <trkpt lat="45.61153" lon="6.6596">
        <ele>2182.9104</ele>
        <time>2014-03-02T11:28:21Z</time>
      </trkpt>
      <trkpt lat="45.61154" lon="6.65959">
        <ele>2182.9104</ele>
        <time>2014-03-02T11:28:28Z</time>
      </trkpt>
      <trkpt lat="45.61163" lon="6.65949">
        <ele>2186.6636</ele>
        <time>2014-03-02T11:28:57Z</time>
      </trkpt>
      <trkpt lat="45.61163" lon="6.65947">
        <ele>2186.6636</ele>
        <time>2014-03-02T11:29:02Z</time>
      </trkpt>
      <trkpt lat="45.61163" lon="6.65947">
        <ele>2186.6636</ele>
        <time>2014-03-02T11:29:10Z</time>
      </trkpt>
      <trkpt lat="45.61165" lon="6.65945">
        <ele>2186.6636</ele>
        <time>2014-03-02T11:29:20Z</time>
      </trkpt>
      <trkpt lat="45.61168" lon="6.65944">
        <ele>2186.6636</ele>
        <time>2014-03-02T11:29:36Z</time>
      </trkpt>
      <trkpt lat="45.61169" lon="6.65944">
        <ele>2186.6636</ele>
        <time>2014-03-02T11:29:46Z</time>
      </trkpt>
      <trkpt lat="45.61172" lon="6.65943">
        <ele>2190.4863</ele>
        <time>2014-03-02T11:30:04Z</time>
      </trkpt>
      <trkpt lat="45.61175" lon="6.65945">
        <ele>2190.4863</ele>
        <time>2014-03-02T11:30:07Z</time>
      </trkpt>
      <trkpt lat="45.61176" lon="6.65945">
        <ele>2190.4863</ele>
        <time>2014-03-02T11:30:12Z</time>
      </trkpt>
      <trkpt lat="45.61179" lon="6.65949">
        <ele>2190.4863</ele>
        <time>2014-03-02T11:30:30Z</time>
      </trkpt>
      <trkpt lat="45.61181" lon="6.65949">
        <ele>2193.9543</ele>
        <time>2014-03-02T11:30:40Z</time>
      </trkpt>
      <trkpt lat="45.61185" lon="6.65943">
        <ele>2193.9543</ele>
        <time>2014-03-02T11:30:57Z</time>
      </trkpt>
      <trkpt lat="45.61186" lon="6.65941">
        <ele>2193.9543</ele>
        <time>2014-03-02T11:31:07Z</time>
      </trkpt>
      <trkpt lat="45.6119" lon="6.65939">
        <ele>2198.0305</ele>
        <time>2014-03-02T11:31:18Z</time>
      </trkpt>
      <trkpt lat="45.61192" lon="6.65939">
        <ele>2198.0305</ele>
        <time>2014-03-02T11:31:21Z</time>
      </trkpt>
      <trkpt lat="45.61194" lon="6.65939">
        <ele>2198.0305</ele>
        <time>2014-03-02T11:31:28Z</time>
      </trkpt>
      <trkpt lat="45.61198" lon="6.65939">
        <ele>2198.0305</ele>
        <time>2014-03-02T11:31:38Z</time>
      </trkpt>
      <trkpt lat="45.61203" lon="6.6594">
        <ele>2202.337</ele>
        <time>2014-03-02T11:31:53Z</time>
      </trkpt>
      <trkpt lat="45.61205" lon="6.6594">
        <ele>2202.337</ele>
        <time>2014-03-02T11:32:01Z</time>
      </trkpt>
      <trkpt lat="45.61205" lon="6.6594">
        <ele>2202.337</ele>
        <time>2014-03-02T11:32:02Z</time>
      </trkpt>
      <trkpt lat="45.61211" lon="6.65941">
        <ele>2202.337</ele>
        <time>2014-03-02T11:32:22Z</time>
      </trkpt>
      <trkpt lat="45.61213" lon="6.65943">
        <ele>2206.5942</ele>
        <time>2014-03-02T11:32:30Z</time>
      </trkpt>
      <trkpt lat="45.61225" lon="6.65943">
        <ele>2210.7898</ele>
        <time>2014-03-02T11:32:47Z</time>
      </trkpt>
      <trkpt lat="45.6123" lon="6.6594">
        <ele>2210.7898</ele>
        <time>2014-03-02T11:32:55Z</time>
      </trkpt>
      <trkpt lat="45.61233" lon="6.65938">
        <ele>2214.609</ele>
        <time>2014-03-02T11:33:03Z</time>
      </trkpt>
      <trkpt lat="45.61235" lon="6.65938">
        <ele>2214.609</ele>
        <time>2014-03-02T11:33:07Z</time>
      </trkpt>
      <trkpt lat="45.61238" lon="6.65938">
        <ele>2214.609</ele>
        <time>2014-03-02T11:33:15Z</time>
      </trkpt>
      <trkpt lat="45.61246" lon="6.65938">
        <ele>2218.481</ele>
        <time>2014-03-02T11:33:39Z</time>
      </trkpt>
      <trkpt lat="45.61258" lon="6.65942">
        <ele>2221.969</ele>
        <time>2014-03-02T11:34:00Z</time>
      </trkpt>
      <trkpt lat="45.6126" lon="6.65942">
        <ele>2221.969</ele>
        <time>2014-03-02T11:34:02Z</time>
      </trkpt>
      <trkpt lat="45.6126" lon="6.65942">
        <ele>2221.969</ele>
        <time>2014-03-02T11:34:09Z</time>
      </trkpt>
      <trkpt lat="45.61265" lon="6.65944">
        <ele>2221.969</ele>
        <time>2014-03-02T11:34:17Z</time>
      </trkpt>
      <trkpt lat="45.61266" lon="6.65944">
        <ele>2221.969</ele>
        <time>2014-03-02T11:34:23Z</time>
      </trkpt>
      <trkpt lat="45.61269" lon="6.65944">
        <ele>2225.346</ele>
        <time>2014-03-02T11:34:27Z</time>
      </trkpt>
      <trkpt lat="45.61273" lon="6.65945">
        <ele>2225.346</ele>
        <time>2014-03-02T11:34:40Z</time>
      </trkpt>
      <trkpt lat="45.6128" lon="6.65946">
        <ele>2228.418</ele>
        <time>2014-03-02T11:34:49Z</time>
      </trkpt>
      <trkpt lat="45.61284" lon="6.65947">
        <ele>2228.418</ele>
        <time>2014-03-02T11:35:00Z</time>
      </trkpt>
      <trkpt lat="45.61285" lon="6.65948">
        <ele>2228.418</ele>
        <time>2014-03-02T11:35:03Z</time>
      </trkpt>
      <trkpt lat="45.61293" lon="6.65955">
        <ele>2231.612</ele>
        <time>2014-03-02T11:35:19Z</time>
      </trkpt>
      <trkpt lat="45.61298" lon="6.65959">
        <ele>2231.612</ele>
        <time>2014-03-02T11:35:33Z</time>
      </trkpt>
      <trkpt lat="45.613" lon="6.65961">
        <ele>2231.612</ele>
        <time>2014-03-02T11:35:39Z</time>
      </trkpt>
      <trkpt lat="45.61304" lon="6.65965">
        <ele>2234.949</ele>
        <time>2014-03-02T11:35:55Z</time>
      </trkpt>
      <trkpt lat="45.61305" lon="6.65965">
        <ele>2234.949</ele>
        <time>2014-03-02T11:35:55Z</time>
      </trkpt>
      <trkpt lat="45.61306" lon="6.65965">
        <ele>2234.949</ele>
        <time>2014-03-02T11:35:58Z</time>
      </trkpt>
      <trkpt lat="45.61308" lon="6.65966">
        <ele>2234.949</ele>
        <time>2014-03-02T11:36:05Z</time>
      </trkpt>
      <trkpt lat="45.61309" lon="6.65966">
        <ele>2234.949</ele>
        <time>2014-03-02T11:36:07Z</time>
      </trkpt>
      <trkpt lat="45.61312" lon="6.65967">
        <ele>2234.949</ele>
        <time>2014-03-02T11:36:16Z</time>
      </trkpt>
      <trkpt lat="45.61316" lon="6.6597">
        <ele>2238.1587</ele>
        <time>2014-03-02T11:36:24Z</time>
      </trkpt>
      <trkpt lat="45.61316" lon="6.6597">
        <ele>2238.1587</ele>
        <time>2014-03-02T11:36:27Z</time>
      </trkpt>
      <trkpt lat="45.6132" lon="6.65972">
        <ele>2238.1587</ele>
        <time>2014-03-02T11:36:34Z</time>
      </trkpt>
      <trkpt lat="45.61324" lon="6.65974">
        <ele>2238.1587</ele>
        <time>2014-03-02T11:36:39Z</time>
      </trkpt>
      <trkpt lat="45.61327" lon="6.65975">
        <ele>2241.1794</ele>
        <time>2014-03-02T11:36:42Z</time>
      </trkpt>
      <trkpt lat="45.61331" lon="6.65976">
        <ele>2241.1794</ele>
        <time>2014-03-02T11:36:56Z</time>
      </trkpt>
      <trkpt lat="45.61337" lon="6.65977">
        <ele>2244.0547</ele>
        <time>2014-03-02T11:37:02Z</time>
      </trkpt>
      <trkpt lat="45.61338" lon="6.65977">
        <ele>2244.0547</ele>
        <time>2014-03-02T11:37:08Z</time>
      </trkpt>
      <trkpt lat="45.61339" lon="6.65977">
        <ele>2244.0547</ele>
        <time>2014-03-02T11:37:11Z</time>
      </trkpt>
      <trkpt lat="45.61346" lon="6.65976">
        <ele>2244.0547</ele>
        <time>2014-03-02T11:37:21Z</time>
      </trkpt>
      <trkpt lat="45.61347" lon="6.65977">
        <ele>2246.6238</ele>
        <time>2014-03-02T11:37:22Z</time>
      </trkpt>
      <trkpt lat="45.61348" lon="6.65976">
        <ele>2246.6238</ele>
        <time>2014-03-02T11:37:29Z</time>
      </trkpt>
      <trkpt lat="45.61354" lon="6.65973">
        <ele>2246.6238</ele>
        <time>2014-03-02T11:37:39Z</time>
      </trkpt>
      <trkpt lat="45.61364" lon="6.65972">
        <ele>2248.5225</ele>
        <time>2014-03-02T11:37:53Z</time>
      </trkpt>
      <trkpt lat="45.61368" lon="6.65974">
        <ele>2248.5225</ele>
        <time>2014-03-02T11:37:59Z</time>
      </trkpt>
      <trkpt lat="45.61368" lon="6.65974">
        <ele>2248.5225</ele>
        <time>2014-03-02T11:38:02Z</time>
      </trkpt>
      <trkpt lat="45.61371" lon="6.65975">
        <ele>2248.5225</ele>
        <time>2014-03-02T11:38:08Z</time>
      </trkpt>
      <trkpt lat="45.61373" lon="6.65976">
        <ele>2250.352</ele>
        <time>2014-03-02T11:38:13Z</time>
      </trkpt>
      <trkpt lat="45.61379" lon="6.65978">
        <ele>2250.352</ele>
        <time>2014-03-02T11:38:21Z</time>
      </trkpt>
      <trkpt lat="45.61382" lon="6.65979">
        <ele>2250.352</ele>
        <time>2014-03-02T11:38:30Z</time>
      </trkpt>
      <trkpt lat="45.61383" lon="6.6598">
        <ele>2251.9058</ele>
        <time>2014-03-02T11:38:32Z</time>
      </trkpt>
      <trkpt lat="45.61387" lon="6.65983">
        <ele>2251.9058</ele>
        <time>2014-03-02T11:38:43Z</time>
      </trkpt>
      <trkpt lat="45.61391" lon="6.65985">
        <ele>2253.5835</ele>
        <time>2014-03-02T11:38:55Z</time>
      </trkpt>
      <trkpt lat="45.61393" lon="6.65988">
        <ele>2253.5835</ele>
        <time>2014-03-02T11:40:03Z</time>
      </trkpt>
      <trkpt lat="45.61414" lon="6.66">
        <ele>2256.3179</ele>
        <time>2014-03-02T11:40:08Z</time>
      </trkpt>
      <trkpt lat="45.61417" lon="6.66002">
        <ele>2256.3179</ele>
        <time>2014-03-02T11:40:17Z</time>
      </trkpt>
      <trkpt lat="45.61417" lon="6.66002">
        <ele>2256.3179</ele>
        <time>2014-03-02T11:40:23Z</time>
      </trkpt>
      <trkpt lat="45.61417" lon="6.66002">
        <ele>2256.3179</ele>
        <time>2014-03-02T11:40:29Z</time>
      </trkpt>
      <trkpt lat="45.61419" lon="6.66003">
        <ele>2256.3179</ele>
        <time>2014-03-02T11:40:41Z</time>
      </trkpt>
      <trkpt lat="45.61421" lon="6.66004">
        <ele>2256.3179</ele>
        <time>2014-03-02T11:40:51Z</time>
      </trkpt>
      <trkpt lat="45.61424" lon="6.66005">
        <ele>2258.8367</ele>
        <time>2014-03-02T11:41:03Z</time>
      </trkpt>
      <trkpt lat="45.61424" lon="6.66005">
        <ele>2258.8367</ele>
        <time>2014-03-02T11:41:03Z</time>
      </trkpt>
      <trkpt lat="45.61424" lon="6.66005">
        <ele>2258.8367</ele>
        <time>2014-03-02T11:41:11Z</time>
      </trkpt>
      <trkpt lat="45.61429" lon="6.66004">
        <ele>2258.8367</ele>
        <time>2014-03-02T11:41:18Z</time>
      </trkpt>
      <trkpt lat="45.6143" lon="6.66004">
        <ele>2258.8367</ele>
        <time>2014-03-02T11:41:29Z</time>
      </trkpt>
      <trkpt lat="45.61437" lon="6.66002">
        <ele>2261.6624</ele>
        <time>2014-03-02T11:41:37Z</time>
      </trkpt>
      <trkpt lat="45.61438" lon="6.66003">
        <ele>2261.6624</ele>
        <time>2014-03-02T11:41:41Z</time>
      </trkpt>
      <trkpt lat="45.61441" lon="6.66005">
        <ele>2261.6624</ele>
        <time>2014-03-02T11:41:53Z</time>
      </trkpt>
      <trkpt lat="45.61441" lon="6.66011">
        <ele>2261.6624</ele>
        <time>2014-03-02T11:41:58Z</time>
      </trkpt>
      <trkpt lat="45.61442" lon="6.66014">
        <ele>2264.4712</ele>
        <time>2014-03-02T11:42:03Z</time>
      </trkpt>
      <trkpt lat="45.61442" lon="6.66018">
        <ele>2264.4712</ele>
        <time>2014-03-02T11:42:08Z</time>
      </trkpt>
      <trkpt lat="45.61444" lon="6.66019">
        <ele>2264.4712</ele>
        <time>2014-03-02T11:42:16Z</time>
      </trkpt>
      <trkpt lat="45.61445" lon="6.66019">
        <ele>2264.4712</ele>
        <time>2014-03-02T11:42:23Z</time>
      </trkpt>
      <trkpt lat="45.61448" lon="6.66017">
        <ele>2264.4712</ele>
        <time>2014-03-02T11:42:33Z</time>
      </trkpt>
      <trkpt lat="45.61448" lon="6.66018">
        <ele>2267.2947</ele>
        <time>2014-03-02T11:42:40Z</time>
      </trkpt>
      <trkpt lat="45.61449" lon="6.66017">
        <ele>2267.2947</ele>
        <time>2014-03-02T11:42:41Z</time>
      </trkpt>
      <trkpt lat="45.6145" lon="6.66016">
        <ele>2267.2947</ele>
        <time>2014-03-02T11:42:51Z</time>
      </trkpt>
      <trkpt lat="45.61452" lon="6.66013">
        <ele>2267.2947</ele>
        <time>2014-03-02T11:43:04Z</time>
      </trkpt>
      <trkpt lat="45.61452" lon="6.66013">
        <ele>2267.2947</ele>
        <time>2014-03-02T11:43:09Z</time>
      </trkpt>
      <trkpt lat="45.61452" lon="6.66013">
        <ele>2267.2947</ele>
        <time>2014-03-02T11:43:18Z</time>
      </trkpt>
      <trkpt lat="45.61452" lon="6.66012">
        <ele>2267.2947</ele>
        <time>2014-03-02T11:43:23Z</time>
      </trkpt>
      <trkpt lat="45.61453" lon="6.66012">
        <ele>2267.2947</ele>
        <time>2014-03-02T11:43:28Z</time>
      </trkpt>
      <trkpt lat="45.61454" lon="6.66011">
        <ele>2267.2947</ele>
        <time>2014-03-02T11:43:35Z</time>
      </trkpt>
      <trkpt lat="45.61454" lon="6.66011">
        <ele>2267.2947</ele>
        <time>2014-03-02T11:43:36Z</time>
      </trkpt>
      <trkpt lat="45.61456" lon="6.6601">
        <ele>2269.513</ele>
        <time>2014-03-02T11:43:44Z</time>
      </trkpt>
      <trkpt lat="45.61456" lon="6.66011">
        <ele>2269.513</ele>
        <time>2014-03-02T11:43:47Z</time>
      </trkpt>
      <trkpt lat="45.61456" lon="6.66014">
        <ele>2269.513</ele>
        <time>2014-03-02T11:43:56Z</time>
      </trkpt>
      <trkpt lat="45.61456" lon="6.66014">
        <ele>2269.513</ele>
        <time>2014-03-02T11:43:57Z</time>
      </trkpt>
      <trkpt lat="45.61455" lon="6.66015">
        <ele>2269.513</ele>
        <time>2014-03-02T11:44:04Z</time>
      </trkpt>
      <trkpt lat="45.61455" lon="6.66015">
        <ele>2269.513</ele>
        <time>2014-03-02T11:44:07Z</time>
      </trkpt>
      <trkpt lat="45.61455" lon="6.66015">
        <ele>2269.513</ele>
        <time>2014-03-02T11:44:54Z</time>
      </trkpt>
      <trkpt lat="45.61455" lon="6.66015">
        <ele>2269.513</ele>
        <time>2014-03-02T11:45:02Z</time>
      </trkpt>
      <trkpt lat="45.61455" lon="6.66015">
        <ele>2269.513</ele>
        <time>2014-03-02T11:45:13Z</time>
      </trkpt>
      <trkpt lat="45.61458" lon="6.66019">
        <ele>2269.513</ele>
        <time>2014-03-02T11:45:24Z</time>
      </trkpt>
      <trkpt lat="45.61458" lon="6.6602">
        <ele>2269.513</ele>
        <time>2014-03-02T11:45:30Z</time>
      </trkpt>
      <trkpt lat="45.6146" lon="6.66021">
        <ele>2272.0671</ele>
        <time>2014-03-02T11:45:31Z</time>
      </trkpt>
      <trkpt lat="45.61461" lon="6.6602">
        <ele>2272.0671</ele>
        <time>2014-03-02T11:45:39Z</time>
      </trkpt>
      <trkpt lat="45.61464" lon="6.66019">
        <ele>2272.0671</ele>
        <time>2014-03-02T11:45:57Z</time>
      </trkpt>
      <trkpt lat="45.61466" lon="6.66018">
        <ele>2272.0671</ele>
        <time>2014-03-02T11:46:04Z</time>
      </trkpt>
      <trkpt lat="45.61466" lon="6.66018">
        <ele>2272.0671</ele>
        <time>2014-03-02T11:46:24Z</time>
      </trkpt>
      <trkpt lat="45.61466" lon="6.66018">
        <ele>2272.0671</ele>
        <time>2014-03-02T11:46:32Z</time>
      </trkpt>
      <trkpt lat="45.61466" lon="6.66018">
        <ele>2272.0671</ele>
        <time>2014-03-02T11:46:39Z</time>
      </trkpt>
      <trkpt lat="45.61466" lon="6.66018">
        <ele>2272.0671</ele>
        <time>2014-03-02T11:46:50Z</time>
      </trkpt>
      <trkpt lat="45.61466" lon="6.66018">
        <ele>2272.0671</ele>
        <time>2014-03-02T11:47:02Z</time>
      </trkpt>
      <trkpt lat="45.61467" lon="6.66018">
        <ele>2272.0671</ele>
        <time>2014-03-02T11:47:11Z</time>
      </trkpt>
      <trkpt lat="45.61468" lon="6.66017">
        <ele>2272.0671</ele>
        <time>2014-03-02T11:47:11Z</time>
      </trkpt>
      <trkpt lat="45.61469" lon="6.66016">
        <ele>2275.28</ele>
        <time>2014-03-02T11:47:20Z</time>
      </trkpt>
      <trkpt lat="45.61471" lon="6.66022">
        <ele>2275.28</ele>
        <time>2014-03-02T11:47:39Z</time>
      </trkpt>
      <trkpt lat="45.61477" lon="6.66021">
        <ele>2278.772</ele>
        <time>2014-03-02T11:48:06Z</time>
      </trkpt>
      <trkpt lat="45.61478" lon="6.66021">
        <ele>2278.772</ele>
        <time>2014-03-02T11:48:16Z</time>
      </trkpt>
      <trkpt lat="45.6148" lon="6.66021">
        <ele>2278.772</ele>
        <time>2014-03-02T11:48:30Z</time>
      </trkpt>
      <trkpt lat="45.61482" lon="6.66019">
        <ele>2278.772</ele>
        <time>2014-03-02T11:48:40Z</time>
      </trkpt>
      <trkpt lat="45.61488" lon="6.66017">
        <ele>2282.0603</ele>
        <time>2014-03-02T11:48:50Z</time>
      </trkpt>
      <trkpt lat="45.61491" lon="6.66017">
        <ele>2282.0603</ele>
        <time>2014-03-02T11:48:59Z</time>
      </trkpt>
      <trkpt lat="45.61498" lon="6.66016">
        <ele>2285.2605</ele>
        <time>2014-03-02T11:49:03Z</time>
      </trkpt>
      <trkpt lat="45.61499" lon="6.66016">
        <ele>2285.2605</ele>
        <time>2014-03-02T11:49:08Z</time>
      </trkpt>
      <trkpt lat="45.61508" lon="6.66015">
        <ele>2288.0762</ele>
        <time>2014-03-02T11:49:20Z</time>
      </trkpt>
      <trkpt lat="45.61512" lon="6.66015">
        <ele>2288.0762</ele>
        <time>2014-03-02T11:49:32Z</time>
      </trkpt>
      <trkpt lat="45.61514" lon="6.66015">
        <ele>2288.0762</ele>
        <time>2014-03-02T11:49:38Z</time>
      </trkpt>
      <trkpt lat="45.61518" lon="6.66015">
        <ele>2290.5796</ele>
        <time>2014-03-02T11:49:45Z</time>
      </trkpt>
      <trkpt lat="45.61519" lon="6.66015">
        <ele>2290.5796</ele>
        <time>2014-03-02T11:49:47Z</time>
      </trkpt>
      <trkpt lat="45.61521" lon="6.66015">
        <ele>2290.5796</ele>
        <time>2014-03-02T11:49:52Z</time>
      </trkpt>
      <trkpt lat="45.61524" lon="6.66015">
        <ele>2290.5796</ele>
        <time>2014-03-02T11:49:59Z</time>
      </trkpt>
      <trkpt lat="45.61526" lon="6.66016">
        <ele>2290.5796</ele>
        <time>2014-03-02T11:50:02Z</time>
      </trkpt>
      <trkpt lat="45.61529" lon="6.66017">
        <ele>2293.1846</ele>
        <time>2014-03-02T11:50:09Z</time>
      </trkpt>
      <trkpt lat="45.61532" lon="6.66017">
        <ele>2293.1846</ele>
        <time>2014-03-02T11:50:18Z</time>
      </trkpt>
      <trkpt lat="45.61534" lon="6.66017">
        <ele>2293.1846</ele>
        <time>2014-03-02T11:50:24Z</time>
      </trkpt>
      <trkpt lat="45.61534" lon="6.66017">
        <ele>2293.1846</ele>
        <time>2014-03-02T11:50:27Z</time>
      </trkpt>
      <trkpt lat="45.61536" lon="6.66017">
        <ele>2293.1846</ele>
        <time>2014-03-02T11:50:33Z</time>
      </trkpt>
      <trkpt lat="45.61537" lon="6.66017">
        <ele>2293.1846</ele>
        <time>2014-03-02T11:50:39Z</time>
      </trkpt>
      <trkpt lat="45.61541" lon="6.66019">
        <ele>2295.7983</ele>
        <time>2014-03-02T11:50:49Z</time>
      </trkpt>
      <trkpt lat="45.61542" lon="6.6602">
        <ele>2295.7983</ele>
        <time>2014-03-02T11:50:53Z</time>
      </trkpt>
      <trkpt lat="45.61547" lon="6.6602">
        <ele>2295.7983</ele>
        <time>2014-03-02T11:51:02Z</time>
      </trkpt>
      <trkpt lat="45.61553" lon="6.66021">
        <ele>2298.5515</ele>
        <time>2014-03-02T11:51:07Z</time>
      </trkpt>
      <trkpt lat="45.61555" lon="6.66022">
        <ele>2298.5515</ele>
        <time>2014-03-02T11:51:18Z</time>
      </trkpt>
      <trkpt lat="45.61559" lon="6.66024">
        <ele>2298.5515</ele>
        <time>2014-03-02T11:51:25Z</time>
      </trkpt>
      <trkpt lat="45.61565" lon="6.66025">
        <ele>2301.2761</ele>
        <time>2014-03-02T11:51:37Z</time>
      </trkpt>
      <trkpt lat="45.61565" lon="6.66025">
        <ele>2301.2761</ele>
        <time>2014-03-02T11:51:37Z</time>
      </trkpt>
      <trkpt lat="45.61565" lon="6.66025">
        <ele>2301.2761</ele>
        <time>2014-03-02T11:51:43Z</time>
      </trkpt>
      <trkpt lat="45.61567" lon="6.66025">
        <ele>2301.2761</ele>
        <time>2014-03-02T11:51:47Z</time>
      </trkpt>
      <trkpt lat="45.6157" lon="6.66025">
        <ele>2301.2761</ele>
        <time>2014-03-02T11:51:52Z</time>
      </trkpt>
      <trkpt lat="45.61573" lon="6.66025">
        <ele>2304.249</ele>
        <time>2014-03-02T11:52:02Z</time>
      </trkpt>
      <trkpt lat="45.61575" lon="6.66025">
        <ele>2304.249</ele>
        <time>2014-03-02T11:52:09Z</time>
      </trkpt>
      <trkpt lat="45.61577" lon="6.66024">
        <ele>2304.249</ele>
        <time>2014-03-02T11:52:12Z</time>
      </trkpt>
      <trkpt lat="45.61582" lon="6.66022">
        <ele>2304.249</ele>
        <time>2014-03-02T11:52:26Z</time>
      </trkpt>
      <trkpt lat="45.61583" lon="6.66022">
        <ele>2307.4375</ele>
        <time>2014-03-02T11:52:34Z</time>
      </trkpt>
      <trkpt lat="45.61587" lon="6.6602">
        <ele>2307.4375</ele>
        <time>2014-03-02T11:52:48Z</time>
      </trkpt>
      <trkpt lat="45.6159" lon="6.66021">
        <ele>2307.4375</ele>
        <time>2014-03-02T11:52:52Z</time>
      </trkpt>
      <trkpt lat="45.61591" lon="6.66024">
        <ele>2307.4375</ele>
        <time>2014-03-02T11:53:01Z</time>
      </trkpt>
      <trkpt lat="45.61591" lon="6.66027">
        <ele>2310.6091</ele>
        <time>2014-03-02T11:53:09Z</time>
      </trkpt>
      <trkpt lat="45.61591" lon="6.66037">
        <ele>2310.6091</ele>
        <time>2014-03-02T11:53:19Z</time>
      </trkpt>
      <trkpt lat="45.61591" lon="6.66038">
        <ele>2310.6091</ele>
        <time>2014-03-02T11:53:21Z</time>
      </trkpt>
      <trkpt lat="45.61591" lon="6.66038">
        <ele>2310.6091</ele>
        <time>2014-03-02T11:53:27Z</time>
      </trkpt>
      <trkpt lat="45.61591" lon="6.66039">
        <ele>2310.6091</ele>
        <time>2014-03-02T11:53:31Z</time>
      </trkpt>
      <trkpt lat="45.61593" lon="6.66039">
        <ele>2313.2603</ele>
        <time>2014-03-02T11:53:41Z</time>
      </trkpt>
      <trkpt lat="45.61595" lon="6.66041">
        <ele>2313.2603</ele>
        <time>2014-03-02T11:53:50Z</time>
      </trkpt>
      <trkpt lat="45.61598" lon="6.66049">
        <ele>2313.2603</ele>
        <time>2014-03-02T11:54:04Z</time>
      </trkpt>
      <trkpt lat="45.61598" lon="6.66049">
        <ele>2316.3667</ele>
        <time>2014-03-02T11:54:07Z</time>
      </trkpt>
      <trkpt lat="45.61599" lon="6.66051">
        <ele>2316.3667</ele>
        <time>2014-03-02T11:54:11Z</time>
      </trkpt>
      <trkpt lat="45.61601" lon="6.66054">
        <ele>2316.3667</ele>
        <time>2014-03-02T11:54:16Z</time>
      </trkpt>
      <trkpt lat="45.61602" lon="6.66054">
        <ele>2316.3667</ele>
        <time>2014-03-02T11:54:22Z</time>
      </trkpt>
      <trkpt lat="45.61603" lon="6.66055">
        <ele>2316.3667</ele>
        <time>2014-03-02T11:54:27Z</time>
      </trkpt>
      <trkpt lat="45.61603" lon="6.66056">
        <ele>2316.3667</ele>
        <time>2014-03-02T11:54:33Z</time>
      </trkpt>
      <trkpt lat="45.61603" lon="6.66056">
        <ele>2316.3667</ele>
        <time>2014-03-02T11:54:39Z</time>
      </trkpt>
      <trkpt lat="45.61604" lon="6.66056">
        <ele>2316.3667</ele>
        <time>2014-03-02T11:54:45Z</time>
      </trkpt>
      <trkpt lat="45.61606" lon="6.66054">
        <ele>2319.0588</ele>
        <time>2014-03-02T11:54:55Z</time>
      </trkpt>
      <trkpt lat="45.61608" lon="6.6605">
        <ele>2319.0588</ele>
        <time>2014-03-02T11:55:07Z</time>
      </trkpt>
      <trkpt lat="45.61609" lon="6.66049">
        <ele>2319.0588</ele>
        <time>2014-03-02T11:55:14Z</time>
      </trkpt>
      <trkpt lat="45.61609" lon="6.66049">
        <ele>2319.0588</ele>
        <time>2014-03-02T11:55:33Z</time>
      </trkpt>
      <trkpt lat="45.6161" lon="6.66049">
        <ele>2319.0588</ele>
        <time>2014-03-02T11:55:39Z</time>
      </trkpt>
      <trkpt lat="45.61613" lon="6.66054">
        <ele>2322.233</ele>
        <time>2014-03-02T11:55:55Z</time>
      </trkpt>
      <trkpt lat="45.61613" lon="6.66054">
        <ele>2322.233</ele>
        <time>2014-03-02T11:55:57Z</time>
      </trkpt>
      <trkpt lat="45.61613" lon="6.66055">
        <ele>2322.233</ele>
        <time>2014-03-02T11:56:04Z</time>
      </trkpt>
      <trkpt lat="45.61613" lon="6.66055">
        <ele>2322.233</ele>
        <time>2014-03-02T11:56:15Z</time>
      </trkpt>
      <trkpt lat="45.61614" lon="6.66055">
        <ele>2322.233</ele>
        <time>2014-03-02T11:56:27Z</time>
      </trkpt>
      <trkpt lat="45.61614" lon="6.66055">
        <ele>2322.233</ele>
        <time>2014-03-02T11:56:35Z</time>
      </trkpt>
      <trkpt lat="45.61614" lon="6.66055">
        <ele>2322.233</ele>
        <time>2014-03-02T11:56:48Z</time>
      </trkpt>
      <trkpt lat="45.61614" lon="6.66056">
        <ele>2322.233</ele>
        <time>2014-03-02T11:56:52Z</time>
      </trkpt>
      <trkpt lat="45.61613" lon="6.66055">
        <ele>2322.233</ele>
        <time>2014-03-02T11:56:59Z</time>
      </trkpt>
      <trkpt lat="45.61614" lon="6.66055">
        <ele>2322.233</ele>
        <time>2014-03-02T11:57:03Z</time>
      </trkpt>
      <trkpt lat="45.61614" lon="6.66055">
        <ele>2322.233</ele>
        <time>2014-03-02T11:57:14Z</time>
      </trkpt>
      <trkpt lat="45.61615" lon="6.66053">
        <ele>2322.233</ele>
        <time>2014-03-02T11:57:26Z</time>
      </trkpt>
      <trkpt lat="45.61615" lon="6.66053">
        <ele>2322.233</ele>
        <time>2014-03-02T11:57:35Z</time>
      </trkpt>
      <trkpt lat="45.61615" lon="6.66053">
        <ele>2322.233</ele>
        <time>2014-03-02T11:57:55Z</time>
      </trkpt>
      <trkpt lat="45.61615" lon="6.66053">
        <ele>2322.233</ele>
        <time>2014-03-02T11:58:04Z</time>
      </trkpt>
      <trkpt lat="45.61615" lon="6.66053">
        <ele>2322.233</ele>
        <time>2014-03-02T11:58:18Z</time>
      </trkpt>
      <trkpt lat="45.61618" lon="6.66051">
        <ele>2325.247</ele>
        <time>2014-03-02T11:58:30Z</time>
      </trkpt>
      <trkpt lat="45.61618" lon="6.6605">
        <ele>2325.247</ele>
        <time>2014-03-02T11:58:40Z</time>
      </trkpt>
      <trkpt lat="45.61621" lon="6.66044">
        <ele>2325.247</ele>
        <time>2014-03-02T11:58:54Z</time>
      </trkpt>
      <trkpt lat="45.61622" lon="6.66044">
        <ele>2325.247</ele>
        <time>2014-03-02T11:59:09Z</time>
      </trkpt>
      <trkpt lat="45.61624" lon="6.66046">
        <ele>2328.6606</ele>
        <time>2014-03-02T11:59:13Z</time>
      </trkpt>
      <trkpt lat="45.61624" lon="6.66047">
        <ele>2328.6606</ele>
        <time>2014-03-02T11:59:20Z</time>
      </trkpt>
      <trkpt lat="45.61631" lon="6.66052">
        <ele>2328.6606</ele>
        <time>2014-03-02T11:59:38Z</time>
      </trkpt>
      <trkpt lat="45.61632" lon="6.66052">
        <ele>2332.5872</ele>
        <time>2014-03-02T11:59:42Z</time>
      </trkpt>
      <trkpt lat="45.61637" lon="6.66056">
        <ele>2332.5872</ele>
        <time>2014-03-02T11:59:57Z</time>
      </trkpt>
      <trkpt lat="45.61638" lon="6.66057">
        <ele>2332.5872</ele>
        <time>2014-03-02T12:00:01Z</time>
      </trkpt>
      <trkpt lat="45.6164" lon="6.66058">
        <ele>2332.5872</ele>
        <time>2014-03-02T12:00:06Z</time>
      </trkpt>
      <trkpt lat="45.61643" lon="6.66061">
        <ele>2336.6404</ele>
        <time>2014-03-02T12:00:11Z</time>
      </trkpt>
      <trkpt lat="45.61645" lon="6.66062">
        <ele>2336.6404</ele>
        <time>2014-03-02T12:00:16Z</time>
      </trkpt>
      <trkpt lat="45.61646" lon="6.66062">
        <ele>2336.6404</ele>
        <time>2014-03-02T12:00:21Z</time>
      </trkpt>
      <trkpt lat="45.61646" lon="6.66062">
        <ele>2336.6404</ele>
        <time>2014-03-02T12:00:26Z</time>
      </trkpt>
      <trkpt lat="45.61647" lon="6.66062">
        <ele>2336.6404</ele>
        <time>2014-03-02T12:00:31Z</time>
      </trkpt>
      <trkpt lat="45.61647" lon="6.66062">
        <ele>2336.6404</ele>
        <time>2014-03-02T12:00:36Z</time>
      </trkpt>
      <trkpt lat="45.61647" lon="6.66062">
        <ele>2336.6404</ele>
        <time>2014-03-02T12:00:41Z</time>
      </trkpt>
      <trkpt lat="45.61648" lon="6.66062">
        <ele>2336.6404</ele>
        <time>2014-03-02T12:00:46Z</time>
      </trkpt>
      <trkpt lat="45.61649" lon="6.66061">
        <ele>2336.6404</ele>
        <time>2014-03-02T12:00:51Z</time>
      </trkpt>
      <trkpt lat="45.61649" lon="6.66059">
        <ele>2336.6404</ele>
        <time>2014-03-02T12:00:56Z</time>
      </trkpt>
      <trkpt lat="45.61649" lon="6.66057">
        <ele>2340.26</ele>
        <time>2014-03-02T12:01:01Z</time>
      </trkpt>
      <trkpt lat="45.6165" lon="6.66055">
        <ele>2340.26</ele>
        <time>2014-03-02T12:01:06Z</time>
      </trkpt>
      <trkpt lat="45.61651" lon="6.66054">
        <ele>2340.26</ele>
        <time>2014-03-02T12:01:11Z</time>
      </trkpt>
      <trkpt lat="45.61651" lon="6.66054">
        <ele>2340.26</ele>
        <time>2014-03-02T12:01:16Z</time>
      </trkpt>
      <trkpt lat="45.61651" lon="6.66054">
        <ele>2340.26</ele>
        <time>2014-03-02T12:01:21Z</time>
      </trkpt>
      <trkpt lat="45.61651" lon="6.66053">
        <ele>2340.26</ele>
        <time>2014-03-02T12:01:26Z</time>
      </trkpt>
      <trkpt lat="45.61651" lon="6.66053">
        <ele>2340.26</ele>
        <time>2014-03-02T12:01:31Z</time>
      </trkpt>
      <trkpt lat="45.61651" lon="6.66053">
        <ele>2340.26</ele>
        <time>2014-03-02T12:01:36Z</time>
      </trkpt>
      <trkpt lat="45.61651" lon="6.66053">
        <ele>2340.26</ele>
        <time>2014-03-02T12:01:41Z</time>
      </trkpt>
      <trkpt lat="45.61652" lon="6.66053">
        <ele>2340.26</ele>
        <time>2014-03-02T12:01:46Z</time>
      </trkpt>
      <trkpt lat="45.61655" lon="6.66054">
        <ele>2340.26</ele>
        <time>2014-03-02T12:01:51Z</time>
      </trkpt>
      <trkpt lat="45.61658" lon="6.66054">
        <ele>2344.456</ele>
        <time>2014-03-02T12:01:56Z</time>
      </trkpt>
      <trkpt lat="45.61659" lon="6.66053">
        <ele>2344.456</ele>
        <time>2014-03-02T12:02:01Z</time>
      </trkpt>
      <trkpt lat="45.6166" lon="6.66053">
        <ele>2344.456</ele>
        <time>2014-03-02T12:02:06Z</time>
      </trkpt>
      <trkpt lat="45.61661" lon="6.66053">
        <ele>2344.456</ele>
        <time>2014-03-02T12:02:11Z</time>
      </trkpt>
      <trkpt lat="45.61662" lon="6.66052">
        <ele>2344.456</ele>
        <time>2014-03-02T12:02:16Z</time>
      </trkpt>
      <trkpt lat="45.61663" lon="6.6605">
        <ele>2344.456</ele>
        <time>2014-03-02T12:02:21Z</time>
      </trkpt>
      <trkpt lat="45.61665" lon="6.66049">
        <ele>2344.456</ele>
        <time>2014-03-02T12:02:33Z</time>
      </trkpt>
      <trkpt lat="45.6167" lon="6.66048">
        <ele>2348.635</ele>
        <time>2014-03-02T12:02:39Z</time>
      </trkpt>
      <trkpt lat="45.61681" lon="6.66044">
        <ele>2352.3623</ele>
        <time>2014-03-02T12:02:58Z</time>
      </trkpt>
      <trkpt lat="45.61684" lon="6.66043">
        <ele>2352.3623</ele>
        <time>2014-03-02T12:03:02Z</time>
      </trkpt>
      <trkpt lat="45.61685" lon="6.66043">
        <ele>2352.3623</ele>
        <time>2014-03-02T12:03:12Z</time>
      </trkpt>
      <trkpt lat="45.6169" lon="6.66041">
        <ele>2352.3623</ele>
        <time>2014-03-02T12:03:19Z</time>
      </trkpt>
      <trkpt lat="45.61697" lon="6.66041">
        <ele>2356.0723</ele>
        <time>2014-03-02T12:03:41Z</time>
      </trkpt>
      <trkpt lat="45.61697" lon="6.66041">
        <ele>2356.0723</ele>
        <time>2014-03-02T12:04:05Z</time>
      </trkpt>
      <trkpt lat="45.61697" lon="6.66041">
        <ele>2356.0723</ele>
        <time>2014-03-02T12:04:07Z</time>
      </trkpt>
      <trkpt lat="45.61697" lon="6.66041">
        <ele>2356.0723</ele>
        <time>2014-03-02T12:04:20Z</time>
      </trkpt>
      <trkpt lat="45.61697" lon="6.66041">
        <ele>2356.0723</ele>
        <time>2014-03-02T12:04:21Z</time>
      </trkpt>
      <trkpt lat="45.61697" lon="6.66041">
        <ele>2356.0723</ele>
        <time>2014-03-02T12:04:32Z</time>
      </trkpt>
      <trkpt lat="45.61697" lon="6.66041">
        <ele>2356.0723</ele>
        <time>2014-03-02T12:04:41Z</time>
      </trkpt>
      <trkpt lat="45.61697" lon="6.66041">
        <ele>2356.0723</ele>
        <time>2014-03-02T12:05:02Z</time>
      </trkpt>
      <trkpt lat="45.61697" lon="6.66041">
        <ele>2356.0723</ele>
        <time>2014-03-02T12:05:02Z</time>
      </trkpt>
      <trkpt lat="45.61697" lon="6.66041">
        <ele>2356.0723</ele>
        <time>2014-03-02T12:05:22Z</time>
      </trkpt>
      <trkpt lat="45.61697" lon="6.66041">
        <ele>2356.0723</ele>
        <time>2014-03-02T12:05:28Z</time>
      </trkpt>
      <trkpt lat="45.61697" lon="6.66041">
        <ele>2356.0723</ele>
        <time>2014-03-02T12:05:36Z</time>
      </trkpt>
      <trkpt lat="45.61699" lon="6.66041">
        <ele>2356.0723</ele>
        <time>2014-03-02T12:05:57Z</time>
      </trkpt>
      <trkpt lat="45.617" lon="6.66041">
        <ele>2356.0723</ele>
        <time>2014-03-02T12:06:03Z</time>
      </trkpt>
      <trkpt lat="45.61703" lon="6.6604">
        <ele>2356.0723</ele>
        <time>2014-03-02T12:06:12Z</time>
      </trkpt>
      <trkpt lat="45.61705" lon="6.6604">
        <ele>2356.0723</ele>
        <time>2014-03-02T12:06:17Z</time>
      </trkpt>
      <trkpt lat="45.61707" lon="6.66041">
        <ele>2359.9373</ele>
        <time>2014-03-02T12:06:22Z</time>
      </trkpt>
      <trkpt lat="45.61708" lon="6.66041">
        <ele>2359.9373</ele>
        <time>2014-03-02T12:06:29Z</time>
      </trkpt>
      <trkpt lat="45.61708" lon="6.66041">
        <ele>2359.9373</ele>
        <time>2014-03-02T12:06:42Z</time>
      </trkpt>
      <trkpt lat="45.61708" lon="6.66041">
        <ele>2359.9373</ele>
        <time>2014-03-02T12:06:49Z</time>
      </trkpt>
      <trkpt lat="45.61708" lon="6.66041">
        <ele>2359.9373</ele>
        <time>2014-03-02T12:07:04Z</time>
      </trkpt>
      <trkpt lat="45.61708" lon="6.66041">
        <ele>2359.9373</ele>
        <time>2014-03-02T12:07:12Z</time>
      </trkpt>
      <trkpt lat="45.61708" lon="6.66041">
        <ele>2359.9373</ele>
        <time>2014-03-02T12:07:17Z</time>
      </trkpt>
      <trkpt lat="45.61708" lon="6.66041">
        <ele>2359.9373</ele>
        <time>2014-03-02T12:07:23Z</time>
      </trkpt>
      <trkpt lat="45.61708" lon="6.66041">
        <ele>2359.9373</ele>
        <time>2014-03-02T12:07:27Z</time>
      </trkpt>
      <trkpt lat="45.61708" lon="6.66041">
        <ele>2359.9373</ele>
        <time>2014-03-02T12:07:33Z</time>
      </trkpt>
      <trkpt lat="45.61709" lon="6.66041">
        <ele>2359.9373</ele>
        <time>2014-03-02T12:07:36Z</time>
      </trkpt>
      <trkpt lat="45.61709" lon="6.66041">
        <ele>2359.9373</ele>
        <time>2014-03-02T12:07:45Z</time>
      </trkpt>
      <trkpt lat="45.61714" lon="6.66041">
        <ele>2359.9373</ele>
        <time>2014-03-02T12:07:47Z</time>
      </trkpt>
      <trkpt lat="45.61723" lon="6.66042">
        <ele>2363.4387</ele>
        <time>2014-03-02T12:07:53Z</time>
      </trkpt>
      <trkpt lat="45.61728" lon="6.66043">
        <ele>2363.4387</ele>
        <time>2014-03-02T12:08:00Z</time>
      </trkpt>
      <trkpt lat="45.61733" lon="6.66045">
        <ele>2366.6455</ele>
        <time>2014-03-02T12:08:03Z</time>
      </trkpt>
      <trkpt lat="45.61742" lon="6.66047">
        <ele>2366.6455</ele>
        <time>2014-03-02T12:08:09Z</time>
      </trkpt>
      <trkpt lat="45.61747" lon="6.66051">
        <ele>2369.5208</ele>
        <time>2014-03-02T12:08:18Z</time>
      </trkpt>
      <trkpt lat="45.61754" lon="6.66057">
        <ele>2369.5208</ele>
        <time>2014-03-02T12:08:26Z</time>
      </trkpt>
      <trkpt lat="45.61757" lon="6.66057">
        <ele>2372.075</ele>
        <time>2014-03-02T12:08:34Z</time>
      </trkpt>
      <trkpt lat="45.61763" lon="6.6606">
        <ele>2372.075</ele>
        <time>2014-03-02T12:08:38Z</time>
      </trkpt>
      <trkpt lat="45.61764" lon="6.6606">
        <ele>2372.075</ele>
        <time>2014-03-02T12:08:46Z</time>
      </trkpt>
      <trkpt lat="45.61771" lon="6.66061">
        <ele>2374.3762</ele>
        <time>2014-03-02T12:08:46Z</time>
      </trkpt>
      <trkpt lat="45.61779" lon="6.66063">
        <ele>2374.3762</ele>
        <time>2014-03-02T12:09:03Z</time>
      </trkpt>
      <trkpt lat="45.61781" lon="6.66063">
        <ele>2371.9055</ele>
        <time>2014-03-02T12:09:06Z</time>
      </trkpt>
      <trkpt lat="45.61783" lon="6.66064">
        <ele>2371.9055</ele>
        <time>2014-03-02T12:09:14Z</time>
      </trkpt>
      <trkpt lat="45.61788" lon="6.66063">
        <ele>2371.9055</ele>
        <time>2014-03-02T12:09:23Z</time>
      </trkpt>
      <trkpt lat="45.61797" lon="6.66067">
        <ele>2374.3245</ele>
        <time>2014-03-02T12:09:45Z</time>
      </trkpt>
      <trkpt lat="45.61808" lon="6.66063">
        <ele>2376.6636</ele>
        <time>2014-03-02T12:09:59Z</time>
      </trkpt>
      <trkpt lat="45.61809" lon="6.66063">
        <ele>2376.6636</ele>
        <time>2014-03-02T12:09:59Z</time>
      </trkpt>
      <trkpt lat="45.61809" lon="6.66063">
        <ele>2376.6636</ele>
        <time>2014-03-02T12:10:05Z</time>
      </trkpt>
      <trkpt lat="45.61813" lon="6.66061">
        <ele>2376.6636</ele>
        <time>2014-03-02T12:10:12Z</time>
      </trkpt>
      <trkpt lat="45.61815" lon="6.6606">
        <ele>2376.6636</ele>
        <time>2014-03-02T12:10:19Z</time>
      </trkpt>
      <trkpt lat="45.61821" lon="6.66058">
        <ele>2378.8154</ele>
        <time>2014-03-02T12:10:25Z</time>
      </trkpt>
      <trkpt lat="45.61823" lon="6.66057">
        <ele>2378.8154</ele>
        <time>2014-03-02T12:10:28Z</time>
      </trkpt>
      <trkpt lat="45.61824" lon="6.66057">
        <ele>2378.8154</ele>
        <time>2014-03-02T12:10:33Z</time>
      </trkpt>
      <trkpt lat="45.61837" lon="6.66049">
        <ele>2381.1855</ele>
        <time>2014-03-02T12:10:54Z</time>
      </trkpt>
      <trkpt lat="45.61845" lon="6.66042">
        <ele>2381.1855</ele>
        <time>2014-03-02T12:11:04Z</time>
      </trkpt>
      <trkpt lat="45.61846" lon="6.66041">
        <ele>2383.2117</ele>
        <time>2014-03-02T12:11:08Z</time>
      </trkpt>
      <trkpt lat="45.61852" lon="6.66036">
        <ele>2383.2117</ele>
        <time>2014-03-02T12:11:13Z</time>
      </trkpt>
      <trkpt lat="45.61861" lon="6.66032">
        <ele>2384.6482</ele>
        <time>2014-03-02T12:11:26Z</time>
      </trkpt>
      <trkpt lat="45.61887" lon="6.66029">
        <ele>2385.7878</ele>
        <time>2014-03-02T12:11:51Z</time>
      </trkpt>
      <trkpt lat="45.61891" lon="6.6603">
        <ele>2385.7878</ele>
        <time>2014-03-02T12:12:00Z</time>
      </trkpt>
      <trkpt lat="45.61893" lon="6.6603">
        <ele>2385.7878</ele>
        <time>2014-03-02T12:12:03Z</time>
      </trkpt>
      <trkpt lat="45.61907" lon="6.66032">
        <ele>2386.7437</ele>
        <time>2014-03-02T12:12:25Z</time>
      </trkpt>
      <trkpt lat="45.61912" lon="6.66033">
        <ele>2386.7437</ele>
        <time>2014-03-02T12:12:34Z</time>
      </trkpt>
      <trkpt lat="45.61915" lon="6.66035">
        <ele>2386.7437</ele>
        <time>2014-03-02T12:12:46Z</time>
      </trkpt>
      <trkpt lat="45.61923" lon="6.66037">
        <ele>2388.7021</ele>
        <time>2014-03-02T12:12:53Z</time>
      </trkpt>
      <trkpt lat="45.61925" lon="6.66037">
        <ele>2388.7021</ele>
        <time>2014-03-02T12:12:57Z</time>
      </trkpt>
      <trkpt lat="45.61929" lon="6.66037">
        <ele>2388.7021</ele>
        <time>2014-03-02T12:13:03Z</time>
      </trkpt>
      <trkpt lat="45.61932" lon="6.66038">
        <ele>2388.7021</ele>
        <time>2014-03-02T12:13:10Z</time>
      </trkpt>
      <trkpt lat="45.61935" lon="6.66039">
        <ele>2390.6555</ele>
        <time>2014-03-02T12:13:19Z</time>
      </trkpt>
      <trkpt lat="45.61939" lon="6.6604">
        <ele>2390.6555</ele>
        <time>2014-03-02T12:13:25Z</time>
      </trkpt>
      <trkpt lat="45.61939" lon="6.6604">
        <ele>2390.6555</ele>
        <time>2014-03-02T12:13:26Z</time>
      </trkpt>
      <trkpt lat="45.61943" lon="6.66042">
        <ele>2390.6555</ele>
        <time>2014-03-02T12:13:39Z</time>
      </trkpt>
      <trkpt lat="45.61943" lon="6.66042">
        <ele>2390.6555</ele>
        <time>2014-03-02T12:13:43Z</time>
      </trkpt>
      <trkpt lat="45.61945" lon="6.66043">
        <ele>2392.4192</ele>
        <time>2014-03-02T12:13:46Z</time>
      </trkpt>
      <trkpt lat="45.61945" lon="6.66044">
        <ele>2392.4192</ele>
        <time>2014-03-02T12:14:02Z</time>
      </trkpt>
      <trkpt lat="45.61945" lon="6.66044">
        <ele>2392.4192</ele>
        <time>2014-03-02T12:14:07Z</time>
      </trkpt>
      <trkpt lat="45.61948" lon="6.66046">
        <ele>2392.4192</ele>
        <time>2014-03-02T12:14:24Z</time>
      </trkpt>
      <trkpt lat="45.6196" lon="6.6605">
        <ele>2394.5437</ele>
        <time>2014-03-02T12:14:56Z</time>
      </trkpt>
      <trkpt lat="45.61964" lon="6.66052">
        <ele>2394.5437</ele>
        <time>2014-03-02T12:15:02Z</time>
      </trkpt>
      <trkpt lat="45.61983" lon="6.66056">
        <ele>2397.4365</ele>
        <time>2014-03-02T12:15:56Z</time>
      </trkpt>
      <trkpt lat="45.61986" lon="6.66057">
        <ele>2397.4365</ele>
        <time>2014-03-02T12:16:02Z</time>
      </trkpt>
      <trkpt lat="45.6199" lon="6.66059">
        <ele>2397.4365</ele>
        <time>2014-03-02T12:16:11Z</time>
      </trkpt>
      <trkpt lat="45.61992" lon="6.6606">
        <ele>2400.6519</ele>
        <time>2014-03-02T12:16:18Z</time>
      </trkpt>
      <trkpt lat="45.61995" lon="6.66061">
        <ele>2400.6519</ele>
        <time>2014-03-02T12:16:26Z</time>
      </trkpt>
      <trkpt lat="45.61995" lon="6.66061">
        <ele>2400.6519</ele>
        <time>2014-03-02T12:16:35Z</time>
      </trkpt>
      <trkpt lat="45.61997" lon="6.66062">
        <ele>2400.6519</ele>
        <time>2014-03-02T12:16:37Z</time>
      </trkpt>
      <trkpt lat="45.61997" lon="6.66062">
        <ele>2400.6519</ele>
        <time>2014-03-02T12:16:44Z</time>
      </trkpt>
      <trkpt lat="45.62002" lon="6.66066">
        <ele>2404.1072</ele>
        <time>2014-03-02T12:16:53Z</time>
      </trkpt>
      <trkpt lat="45.62002" lon="6.66066">
        <ele>2404.1072</ele>
        <time>2014-03-02T12:16:56Z</time>
      </trkpt>
      <trkpt lat="45.62004" lon="6.66068">
        <ele>2404.1072</ele>
        <time>2014-03-02T12:17:04Z</time>
      </trkpt>
      <trkpt lat="45.62004" lon="6.66068">
        <ele>2404.1072</ele>
        <time>2014-03-02T12:17:08Z</time>
      </trkpt>
      <trkpt lat="45.62006" lon="6.66068">
        <ele>2404.1072</ele>
        <time>2014-03-02T12:17:11Z</time>
      </trkpt>
      <trkpt lat="45.62008" lon="6.66071">
        <ele>2404.1072</ele>
        <time>2014-03-02T12:17:23Z</time>
      </trkpt>
      <trkpt lat="45.62012" lon="6.66074">
        <ele>2407.927</ele>
        <time>2014-03-02T12:17:35Z</time>
      </trkpt>
      <trkpt lat="45.62017" lon="6.66077">
        <ele>2407.927</ele>
        <time>2014-03-02T12:17:53Z</time>
      </trkpt>
      <trkpt lat="45.62018" lon="6.66077">
        <ele>2407.927</ele>
        <time>2014-03-02T12:17:58Z</time>
      </trkpt>
      <trkpt lat="45.62018" lon="6.66078">
        <ele>2407.927</ele>
        <time>2014-03-02T12:18:02Z</time>
      </trkpt>
      <trkpt lat="45.62023" lon="6.66075">
        <ele>2411.3174</ele>
        <time>2014-03-02T12:18:14Z</time>
      </trkpt>
      <trkpt lat="45.62025" lon="6.66074">
        <ele>2411.3174</ele>
        <time>2014-03-02T12:18:17Z</time>
      </trkpt>
      <trkpt lat="45.62028" lon="6.66072">
        <ele>2411.3174</ele>
        <time>2014-03-02T12:18:23Z</time>
      </trkpt>
      <trkpt lat="45.62031" lon="6.66069">
        <ele>2411.3174</ele>
        <time>2014-03-02T12:18:32Z</time>
      </trkpt>
      <trkpt lat="45.62034" lon="6.66069">
        <ele>2414.4954</ele>
        <time>2014-03-02T12:18:43Z</time>
      </trkpt>
      <trkpt lat="45.62034" lon="6.66069">
        <ele>2414.4954</ele>
        <time>2014-03-02T12:18:53Z</time>
      </trkpt>
      <trkpt lat="45.62035" lon="6.66068">
        <ele>2414.4954</ele>
        <time>2014-03-02T12:18:56Z</time>
      </trkpt>
      <trkpt lat="45.62035" lon="6.66069">
        <ele>2414.4954</ele>
        <time>2014-03-02T12:19:01Z</time>
      </trkpt>
      <trkpt lat="45.62035" lon="6.66069">
        <ele>2414.4954</ele>
        <time>2014-03-02T12:19:06Z</time>
      </trkpt>
      <trkpt lat="45.62035" lon="6.66069">
        <ele>2414.4954</ele>
        <time>2014-03-02T12:19:11Z</time>
      </trkpt>
      <trkpt lat="45.62035" lon="6.66069">
        <ele>2414.4954</ele>
        <time>2014-03-02T12:19:16Z</time>
      </trkpt>
      <trkpt lat="45.62035" lon="6.6607">
        <ele>2414.4954</ele>
        <time>2014-03-02T12:19:21Z</time>
      </trkpt>
      <trkpt lat="45.62035" lon="6.6607">
        <ele>2414.4954</ele>
        <time>2014-03-02T12:19:26Z</time>
      </trkpt>
      <trkpt lat="45.62034" lon="6.6607">
        <ele>2414.4954</ele>
        <time>2014-03-02T12:19:34Z</time>
      </trkpt>
      <trkpt lat="45.62035" lon="6.66071">
        <ele>2414.4954</ele>
        <time>2014-03-02T12:19:41Z</time>
      </trkpt>
      <trkpt lat="45.62035" lon="6.66071">
        <ele>2414.4954</ele>
        <time>2014-03-02T12:19:46Z</time>
      </trkpt>
      <trkpt lat="45.62034" lon="6.66071">
        <ele>2414.4954</ele>
        <time>2014-03-02T12:19:51Z</time>
      </trkpt>
      <trkpt lat="45.62035" lon="6.66071">
        <ele>2414.4954</ele>
        <time>2014-03-02T12:19:59Z</time>
      </trkpt>
      <trkpt lat="45.62035" lon="6.66071">
        <ele>2414.4954</ele>
        <time>2014-03-02T12:20:01Z</time>
      </trkpt>
      <trkpt lat="45.62035" lon="6.66071">
        <ele>2414.4954</ele>
        <time>2014-03-02T12:20:06Z</time>
      </trkpt>
      <trkpt lat="45.62035" lon="6.66071">
        <ele>2414.4954</ele>
        <time>2014-03-02T12:20:11Z</time>
      </trkpt>
      <trkpt lat="45.62035" lon="6.66071">
        <ele>2414.4954</ele>
        <time>2014-03-02T12:20:16Z</time>
      </trkpt>
      <trkpt lat="45.62035" lon="6.66071">
        <ele>2414.4954</ele>
        <time>2014-03-02T12:20:22Z</time>
      </trkpt>
      <trkpt lat="45.62035" lon="6.66071">
        <ele>2414.4954</ele>
        <time>2014-03-02T12:20:30Z</time>
      </trkpt>
      <trkpt lat="45.62042" lon="6.6607">
        <ele>2418.4407</ele>
        <time>2014-03-02T12:20:42Z</time>
      </trkpt>
      <trkpt lat="45.62054" lon="6.66069">
        <ele>2422.0127</ele>
        <time>2014-03-02T12:20:48Z</time>
      </trkpt>
      <trkpt lat="45.62058" lon="6.6607">
        <ele>2422.0127</ele>
        <time>2014-03-02T12:20:52Z</time>
      </trkpt>
      <trkpt lat="45.62067" lon="6.6607">
        <ele>2425.1643</ele>
        <time>2014-03-02T12:21:03Z</time>
      </trkpt>
      <trkpt lat="45.62068" lon="6.6607">
        <ele>2425.1643</ele>
        <time>2014-03-02T12:21:06Z</time>
      </trkpt>
      <trkpt lat="45.62071" lon="6.6607">
        <ele>2425.1643</ele>
        <time>2014-03-02T12:21:17Z</time>
      </trkpt>
      <trkpt lat="45.6208" lon="6.66071">
        <ele>2428.141</ele>
        <time>2014-03-02T12:21:25Z</time>
      </trkpt>
      <trkpt lat="45.62086" lon="6.66072">
        <ele>2428.141</ele>
        <time>2014-03-02T12:21:36Z</time>
      </trkpt>
      <trkpt lat="45.62089" lon="6.66072">
        <ele>2430.7676</ele>
        <time>2014-03-02T12:21:37Z</time>
      </trkpt>
      <trkpt lat="45.62092" lon="6.66073">
        <ele>2430.7676</ele>
        <time>2014-03-02T12:21:44Z</time>
      </trkpt>
      <trkpt lat="45.62101" lon="6.66077">
        <ele>2433.3147</ele>
        <time>2014-03-02T12:21:55Z</time>
      </trkpt>
      <trkpt lat="45.62102" lon="6.66078">
        <ele>2433.3147</ele>
        <time>2014-03-02T12:21:56Z</time>
      </trkpt>
      <trkpt lat="45.62106" lon="6.66081">
        <ele>2433.3147</ele>
        <time>2014-03-02T12:22:01Z</time>
      </trkpt>
      <trkpt lat="45.62108" lon="6.66083">
        <ele>2433.3147</ele>
        <time>2014-03-02T12:22:10Z</time>
      </trkpt>
      <trkpt lat="45.62111" lon="6.66084">
        <ele>2436.005</ele>
        <time>2014-03-02T12:22:20Z</time>
      </trkpt>
      <trkpt lat="45.62119" lon="6.66087">
        <ele>2436.005</ele>
        <time>2014-03-02T12:22:30Z</time>
      </trkpt>
      <trkpt lat="45.62125" lon="6.6609">
        <ele>2439.0725</ele>
        <time>2014-03-02T12:22:40Z</time>
      </trkpt>
      <trkpt lat="45.62131" lon="6.66093">
        <ele>2439.0725</ele>
        <time>2014-03-02T12:22:50Z</time>
      </trkpt>
      <trkpt lat="45.62132" lon="6.66093">
        <ele>2439.0725</ele>
        <time>2014-03-02T12:22:52Z</time>
      </trkpt>
      <trkpt lat="45.62137" lon="6.66096">
        <ele>2442.1284</ele>
        <time>2014-03-02T12:23:00Z</time>
      </trkpt>
      <trkpt lat="45.62142" lon="6.66098">
        <ele>2442.1284</ele>
        <time>2014-03-02T12:23:20Z</time>
      </trkpt>
      <trkpt lat="45.62143" lon="6.66098">
        <ele>2442.1284</ele>
        <time>2014-03-02T12:23:22Z</time>
      </trkpt>
      <trkpt lat="45.62144" lon="6.66098">
        <ele>2442.1284</ele>
        <time>2014-03-02T12:23:27Z</time>
      </trkpt>
      <trkpt lat="45.62145" lon="6.66098">
        <ele>2445.3164</ele>
        <time>2014-03-02T12:23:32Z</time>
      </trkpt>
      <trkpt lat="45.62149" lon="6.661">
        <ele>2445.3164</ele>
        <time>2014-03-02T12:23:46Z</time>
      </trkpt>
      <trkpt lat="45.62152" lon="6.66101">
        <ele>2445.3164</ele>
        <time>2014-03-02T12:23:55Z</time>
      </trkpt>
      <trkpt lat="45.62156" lon="6.66101">
        <ele>2448.4956</ele>
        <time>2014-03-02T12:24:03Z</time>
      </trkpt>
      <trkpt lat="45.62157" lon="6.66102">
        <ele>2448.4956</ele>
        <time>2014-03-02T12:24:09Z</time>
      </trkpt>
      <trkpt lat="45.62157" lon="6.66102">
        <ele>2448.4956</ele>
        <time>2014-03-02T12:24:15Z</time>
      </trkpt>
      <trkpt lat="45.6216" lon="6.66102">
        <ele>2448.4956</ele>
        <time>2014-03-02T12:24:22Z</time>
      </trkpt>
      <trkpt lat="45.62166" lon="6.66105">
        <ele>2451.9106</ele>
        <time>2014-03-02T12:24:29Z</time>
      </trkpt>
      <trkpt lat="45.62168" lon="6.66105">
        <ele>2451.9106</ele>
        <time>2014-03-02T12:24:31Z</time>
      </trkpt>
      <trkpt lat="45.62175" lon="6.66108">
        <ele>2455.1094</ele>
        <time>2014-03-02T12:24:45Z</time>
      </trkpt>
      <trkpt lat="45.62177" lon="6.66109">
        <ele>2455.1094</ele>
        <time>2014-03-02T12:24:57Z</time>
      </trkpt>
      <trkpt lat="45.62177" lon="6.66109">
        <ele>2455.1094</ele>
        <time>2014-03-02T12:24:57Z</time>
      </trkpt>
      <trkpt lat="45.62177" lon="6.66109">
        <ele>2455.1094</ele>
        <time>2014-03-02T12:25:07Z</time>
      </trkpt>
      <trkpt lat="45.62177" lon="6.66109">
        <ele>2455.1094</ele>
        <time>2014-03-02T12:25:14Z</time>
      </trkpt>
      <trkpt lat="45.62177" lon="6.66109">
        <ele>2455.1094</ele>
        <time>2014-03-02T12:25:18Z</time>
      </trkpt>
      <trkpt lat="45.62177" lon="6.66109">
        <ele>2455.1094</ele>
        <time>2014-03-02T12:25:31Z</time>
      </trkpt>
      <trkpt lat="45.62177" lon="6.66109">
        <ele>2455.1094</ele>
        <time>2014-03-02T12:25:42Z</time>
      </trkpt>
      <trkpt lat="45.62177" lon="6.66109">
        <ele>2455.1094</ele>
        <time>2014-03-02T12:25:42Z</time>
      </trkpt>
      <trkpt lat="45.62177" lon="6.66109">
        <ele>2455.1094</ele>
        <time>2014-03-02T12:25:49Z</time>
      </trkpt>
      <trkpt lat="45.62177" lon="6.66109">
        <ele>2455.1094</ele>
        <time>2014-03-02T12:25:53Z</time>
      </trkpt>
      <trkpt lat="45.62177" lon="6.66109">
        <ele>2455.1094</ele>
        <time>2014-03-02T12:25:58Z</time>
      </trkpt>
      <trkpt lat="45.62177" lon="6.66109">
        <ele>2455.1094</ele>
        <time>2014-03-02T12:26:02Z</time>
      </trkpt>
      <trkpt lat="45.62177" lon="6.66109">
        <ele>2455.1094</ele>
        <time>2014-03-02T12:26:14Z</time>
      </trkpt>
      <trkpt lat="45.62177" lon="6.66109">
        <ele>2455.1094</ele>
        <time>2014-03-02T12:26:25Z</time>
      </trkpt>
      <trkpt lat="45.62177" lon="6.66109">
        <ele>2455.1094</ele>
        <time>2014-03-02T12:26:27Z</time>
      </trkpt>
      <trkpt lat="45.62177" lon="6.66109">
        <ele>2455.1094</ele>
        <time>2014-03-02T12:26:44Z</time>
      </trkpt>
      <trkpt lat="45.62177" lon="6.66109">
        <ele>2455.1094</ele>
        <time>2014-03-02T12:26:55Z</time>
      </trkpt>
      <trkpt lat="45.62177" lon="6.66109">
        <ele>2455.1094</ele>
        <time>2014-03-02T12:27:04Z</time>
      </trkpt>
      <trkpt lat="45.62177" lon="6.66109">
        <ele>2455.1094</ele>
        <time>2014-03-02T12:27:07Z</time>
      </trkpt>
      <trkpt lat="45.62177" lon="6.66109">
        <ele>2455.1094</ele>
        <time>2014-03-02T12:27:22Z</time>
      </trkpt>
      <trkpt lat="45.62177" lon="6.66109">
        <ele>2455.1094</ele>
        <time>2014-03-02T12:27:27Z</time>
      </trkpt>
      <trkpt lat="45.62177" lon="6.66109">
        <ele>2455.1094</ele>
        <time>2014-03-02T12:27:35Z</time>
      </trkpt>
      <trkpt lat="45.62177" lon="6.66109">
        <ele>2455.1094</ele>
        <time>2014-03-02T12:27:46Z</time>
      </trkpt>
      <trkpt lat="45.62177" lon="6.66109">
        <ele>2455.1094</ele>
        <time>2014-03-02T12:27:56Z</time>
      </trkpt>
      <trkpt lat="45.62177" lon="6.66109">
        <ele>2455.1094</ele>
        <time>2014-03-02T12:28:05Z</time>
      </trkpt>
      <trkpt lat="45.62178" lon="6.66108">
        <ele>2455.1094</ele>
        <time>2014-03-02T12:28:14Z</time>
      </trkpt>
      <trkpt lat="45.62178" lon="6.66107">
        <ele>2455.1094</ele>
        <time>2014-03-02T12:28:17Z</time>
      </trkpt>
      <trkpt lat="45.62179" lon="6.66108">
        <ele>2455.1094</ele>
        <time>2014-03-02T12:28:31Z</time>
      </trkpt>
      <trkpt lat="45.6218" lon="6.66107">
        <ele>2455.1094</ele>
        <time>2014-03-02T12:28:38Z</time>
      </trkpt>
      <trkpt lat="45.62181" lon="6.66105">
        <ele>2458.1785</ele>
        <time>2014-03-02T12:28:41Z</time>
      </trkpt>
      <trkpt lat="45.6218" lon="6.66104">
        <ele>2458.1785</ele>
        <time>2014-03-02T12:28:47Z</time>
      </trkpt>
      <trkpt lat="45.6218" lon="6.66104">
        <ele>2458.1785</ele>
        <time>2014-03-02T12:28:51Z</time>
      </trkpt>
      <trkpt lat="45.6218" lon="6.66104">
        <ele>2458.1785</ele>
        <time>2014-03-02T12:28:56Z</time>
      </trkpt>
      <trkpt lat="45.6218" lon="6.66104">
        <ele>2458.1785</ele>
        <time>2014-03-02T12:29:01Z</time>
      </trkpt>
      <trkpt lat="45.6218" lon="6.66104">
        <ele>2458.1785</ele>
        <time>2014-03-02T12:29:06Z</time>
      </trkpt>
      <trkpt lat="45.6218" lon="6.66104">
        <ele>2458.1785</ele>
        <time>2014-03-02T12:29:11Z</time>
      </trkpt>
      <trkpt lat="45.6218" lon="6.66104">
        <ele>2458.1785</ele>
        <time>2014-03-02T12:29:16Z</time>
      </trkpt>
      <trkpt lat="45.62179" lon="6.66105">
        <ele>2458.1785</ele>
        <time>2014-03-02T12:29:21Z</time>
      </trkpt>
      <trkpt lat="45.62179" lon="6.66105">
        <ele>2458.1785</ele>
        <time>2014-03-02T12:29:27Z</time>
      </trkpt>
      <trkpt lat="45.62179" lon="6.66105">
        <ele>2458.1785</ele>
        <time>2014-03-02T12:29:31Z</time>
      </trkpt>
      <trkpt lat="45.62178" lon="6.66106">
        <ele>2458.1785</ele>
        <time>2014-03-02T12:29:36Z</time>
      </trkpt>
      <trkpt lat="45.62179" lon="6.66106">
        <ele>2458.1785</ele>
        <time>2014-03-02T12:29:41Z</time>
      </trkpt>
      <trkpt lat="45.62179" lon="6.66106">
        <ele>2458.1785</ele>
        <time>2014-03-02T12:29:46Z</time>
      </trkpt>
      <trkpt lat="45.62178" lon="6.66106">
        <ele>2458.1785</ele>
        <time>2014-03-02T12:29:52Z</time>
      </trkpt>
      <trkpt lat="45.62178" lon="6.66106">
        <ele>2458.1785</ele>
        <time>2014-03-02T12:29:58Z</time>
      </trkpt>
      <trkpt lat="45.62177" lon="6.66107">
        <ele>2458.1785</ele>
        <time>2014-03-02T12:30:01Z</time>
      </trkpt>
      <trkpt lat="45.62177" lon="6.66107">
        <ele>2458.1785</ele>
        <time>2014-03-02T12:30:08Z</time>
      </trkpt>
      <trkpt lat="45.62177" lon="6.66107">
        <ele>2458.1785</ele>
        <time>2014-03-02T12:30:14Z</time>
      </trkpt>
      <trkpt lat="45.62177" lon="6.66107">
        <ele>2458.1785</ele>
        <time>2014-03-02T12:30:23Z</time>
      </trkpt>
      <trkpt lat="45.62177" lon="6.66107">
        <ele>2458.1785</ele>
        <time>2014-03-02T12:30:29Z</time>
      </trkpt>
      <trkpt lat="45.62177" lon="6.66107">
        <ele>2458.1785</ele>
        <time>2014-03-02T12:30:40Z</time>
      </trkpt>
      <trkpt lat="45.62177" lon="6.66107">
        <ele>2458.1785</ele>
        <time>2014-03-02T12:30:43Z</time>
      </trkpt>
      <trkpt lat="45.62177" lon="6.66107">
        <ele>2458.1785</ele>
        <time>2014-03-02T12:30:47Z</time>
      </trkpt>
      <trkpt lat="45.62177" lon="6.66107">
        <ele>2458.1785</ele>
        <time>2014-03-02T12:30:53Z</time>
      </trkpt>
      <trkpt lat="45.62178" lon="6.66108">
        <ele>2458.1785</ele>
        <time>2014-03-02T12:31:00Z</time>
      </trkpt>
      <trkpt lat="45.62181" lon="6.66115">
        <ele>2460.9822</ele>
        <time>2014-03-02T12:31:18Z</time>
      </trkpt>
      <trkpt lat="45.62181" lon="6.66115">
        <ele>2460.9822</ele>
        <time>2014-03-02T12:31:22Z</time>
      </trkpt>
      <trkpt lat="45.62181" lon="6.66115">
        <ele>2460.9822</ele>
        <time>2014-03-02T12:31:27Z</time>
      </trkpt>
      <trkpt lat="45.62184" lon="6.66117">
        <ele>2460.9822</ele>
        <time>2014-03-02T12:31:31Z</time>
      </trkpt>
      <trkpt lat="45.62184" lon="6.66117">
        <ele>2460.9822</ele>
        <time>2014-03-02T12:31:36Z</time>
      </trkpt>
      <trkpt lat="45.62184" lon="6.66117">
        <ele>2460.9822</ele>
        <time>2014-03-02T12:31:41Z</time>
      </trkpt>
      <trkpt lat="45.62183" lon="6.66117">
        <ele>2460.9822</ele>
        <time>2014-03-02T12:31:46Z</time>
      </trkpt>
      <trkpt lat="45.62183" lon="6.66118">
        <ele>2460.9822</ele>
        <time>2014-03-02T12:31:51Z</time>
      </trkpt>
      <trkpt lat="45.62183" lon="6.66118">
        <ele>2460.9822</ele>
        <time>2014-03-02T12:31:56Z</time>
      </trkpt>
      <trkpt lat="45.62183" lon="6.66119">
        <ele>2460.9822</ele>
        <time>2014-03-02T12:32:02Z</time>
      </trkpt>
      <trkpt lat="45.62183" lon="6.66119">
        <ele>2460.9822</ele>
        <time>2014-03-02T12:32:07Z</time>
      </trkpt>
      <trkpt lat="45.62179" lon="6.66114">
        <ele>2463.5398</ele>
        <time>2014-03-02T12:32:20Z</time>
      </trkpt>
      <trkpt lat="45.62177" lon="6.66112">
        <ele>2463.5398</ele>
        <time>2014-03-02T12:32:27Z</time>
      </trkpt>
      <trkpt lat="45.62178" lon="6.66114">
        <ele>2463.5398</ele>
        <time>2014-03-02T12:32:33Z</time>
      </trkpt>
      <trkpt lat="45.6218" lon="6.66116">
        <ele>2463.5398</ele>
        <time>2014-03-02T12:32:38Z</time>
      </trkpt>
      <trkpt lat="45.6218" lon="6.66116">
        <ele>2463.5398</ele>
        <time>2014-03-02T12:32:45Z</time>
      </trkpt>
      <trkpt lat="45.62181" lon="6.66118">
        <ele>2465.6682</ele>
        <time>2014-03-02T12:32:56Z</time>
      </trkpt>
      <trkpt lat="45.62181" lon="6.66118">
        <ele>2465.6682</ele>
        <time>2014-03-02T12:33:01Z</time>
      </trkpt>
      <trkpt lat="45.62179" lon="6.6611">
        <ele>2465.6682</ele>
        <time>2014-03-02T12:33:12Z</time>
      </trkpt>
      <trkpt lat="45.62178" lon="6.66108">
        <ele>2465.6682</ele>
        <time>2014-03-02T12:33:20Z</time>
      </trkpt>
      <trkpt lat="45.62182" lon="6.66117">
        <ele>2467.5303</ele>
        <time>2014-03-02T12:33:37Z</time>
      </trkpt>
      <trkpt lat="45.62182" lon="6.66117">
        <ele>2467.5303</ele>
        <time>2014-03-02T12:33:46Z</time>
      </trkpt>
      <trkpt lat="45.62182" lon="6.66117">
        <ele>2467.5303</ele>
        <time>2014-03-02T12:33:46Z</time>
      </trkpt>
      <trkpt lat="45.62182" lon="6.66116">
        <ele>2467.5303</ele>
        <time>2014-03-02T12:33:55Z</time>
      </trkpt>
      <trkpt lat="45.62181" lon="6.66116">
        <ele>2467.5303</ele>
        <time>2014-03-02T12:33:56Z</time>
      </trkpt>
      <trkpt lat="45.62181" lon="6.66116">
        <ele>2467.5303</ele>
        <time>2014-03-02T12:34:02Z</time>
      </trkpt>
      <trkpt lat="45.62181" lon="6.66117">
        <ele>2467.5303</ele>
        <time>2014-03-02T12:34:09Z</time>
      </trkpt>
      <trkpt lat="45.62181" lon="6.66117">
        <ele>2467.5303</ele>
        <time>2014-03-02T12:34:21Z</time>
      </trkpt>
      <trkpt lat="45.62181" lon="6.66117">
        <ele>2467.5303</ele>
        <time>2014-03-02T12:34:28Z</time>
      </trkpt>
      <trkpt lat="45.62181" lon="6.66117">
        <ele>2467.5303</ele>
        <time>2014-03-02T12:34:35Z</time>
      </trkpt>
      <trkpt lat="45.62181" lon="6.66117">
        <ele>2467.5303</ele>
        <time>2014-03-02T12:34:56Z</time>
      </trkpt>
      <trkpt lat="45.62181" lon="6.66117">
        <ele>2467.5303</ele>
        <time>2014-03-02T12:35:09Z</time>
      </trkpt>
      <trkpt lat="45.62181" lon="6.66117">
        <ele>2467.5303</ele>
        <time>2014-03-02T12:35:12Z</time>
      </trkpt>
      <trkpt lat="45.62181" lon="6.66117">
        <ele>2467.5303</ele>
        <time>2014-03-02T12:35:17Z</time>
      </trkpt>
      <trkpt lat="45.62181" lon="6.66117">
        <ele>2467.5303</ele>
        <time>2014-03-02T12:35:21Z</time>
      </trkpt>
      <trkpt lat="45.62181" lon="6.66117">
        <ele>2467.5303</ele>
        <time>2014-03-02T12:35:26Z</time>
      </trkpt>
      <trkpt lat="45.62181" lon="6.66117">
        <ele>2467.5303</ele>
        <time>2014-03-02T12:35:37Z</time>
      </trkpt>
      <trkpt lat="45.62181" lon="6.66117">
        <ele>2467.5303</ele>
        <time>2014-03-02T12:35:47Z</time>
      </trkpt>
      <trkpt lat="45.62181" lon="6.66117">
        <ele>2467.5303</ele>
        <time>2014-03-02T12:36:06Z</time>
      </trkpt>
      <trkpt lat="45.62181" lon="6.66117">
        <ele>2467.5303</ele>
        <time>2014-03-02T12:36:18Z</time>
      </trkpt>
      <trkpt lat="45.62181" lon="6.66117">
        <ele>2467.5303</ele>
        <time>2014-03-02T12:36:25Z</time>
      </trkpt>
      <trkpt lat="45.62181" lon="6.66117">
        <ele>2467.5303</ele>
        <time>2014-03-02T12:36:36Z</time>
      </trkpt>
      <trkpt lat="45.62181" lon="6.66117">
        <ele>2467.5303</ele>
        <time>2014-03-02T12:36:44Z</time>
      </trkpt>
      <trkpt lat="45.62181" lon="6.66117">
        <ele>2467.5303</ele>
        <time>2014-03-02T12:36:49Z</time>
      </trkpt>
      <trkpt lat="45.62181" lon="6.66117">
        <ele>2467.5303</ele>
        <time>2014-03-02T12:36:53Z</time>
      </trkpt>
      <trkpt lat="45.62181" lon="6.66117">
        <ele>2467.5303</ele>
        <time>2014-03-02T12:36:57Z</time>
      </trkpt>
      <trkpt lat="45.62181" lon="6.66117">
        <ele>2467.5303</ele>
        <time>2014-03-02T12:37:04Z</time>
      </trkpt>
      <trkpt lat="45.62181" lon="6.66117">
        <ele>2467.5303</ele>
        <time>2014-03-02T12:37:07Z</time>
      </trkpt>
      <trkpt lat="45.62181" lon="6.66117">
        <ele>2467.5303</ele>
        <time>2014-03-02T12:37:16Z</time>
      </trkpt>
      <trkpt lat="45.62181" lon="6.66117">
        <ele>2467.5303</ele>
        <time>2014-03-02T12:37:26Z</time>
      </trkpt>
      <trkpt lat="45.62181" lon="6.66117">
        <ele>2467.5303</ele>
        <time>2014-03-02T12:37:27Z</time>
      </trkpt>
      <trkpt lat="45.62182" lon="6.66116">
        <ele>2467.5303</ele>
        <time>2014-03-02T12:37:36Z</time>
      </trkpt>
      <trkpt lat="45.62182" lon="6.66116">
        <ele>2467.5303</ele>
        <time>2014-03-02T12:37:45Z</time>
      </trkpt>
      <trkpt lat="45.62182" lon="6.66116">
        <ele>2467.5303</ele>
        <time>2014-03-02T12:37:55Z</time>
      </trkpt>
      <trkpt lat="45.62182" lon="6.66116">
        <ele>2467.5303</ele>
        <time>2014-03-02T12:38:06Z</time>
      </trkpt>
      <trkpt lat="45.62182" lon="6.66116">
        <ele>2467.5303</ele>
        <time>2014-03-02T12:38:06Z</time>
      </trkpt>
      <trkpt lat="45.62182" lon="6.66116">
        <ele>2467.5303</ele>
        <time>2014-03-02T12:38:16Z</time>
      </trkpt>
      <trkpt lat="45.62182" lon="6.66116">
        <ele>2467.5303</ele>
        <time>2014-03-02T12:38:16Z</time>
      </trkpt>
      <trkpt lat="45.62182" lon="6.66116">
        <ele>2467.5303</ele>
        <time>2014-03-02T12:38:28Z</time>
      </trkpt>
      <trkpt lat="45.62182" lon="6.66116">
        <ele>2467.5303</ele>
        <time>2014-03-02T12:38:36Z</time>
      </trkpt>
      <trkpt lat="45.62182" lon="6.66116">
        <ele>2467.5303</ele>
        <time>2014-03-02T12:38:55Z</time>
      </trkpt>
      <trkpt lat="45.62182" lon="6.66116">
        <ele>2467.5303</ele>
        <time>2014-03-02T12:39:05Z</time>
      </trkpt>
      <trkpt lat="45.62182" lon="6.66116">
        <ele>2467.5303</ele>
        <time>2014-03-02T12:39:16Z</time>
      </trkpt>
      <trkpt lat="45.62182" lon="6.66118">
        <ele>2467.5303</ele>
        <time>2014-03-02T12:39:44Z</time>
      </trkpt>
      <trkpt lat="45.62181" lon="6.66118">
        <ele>2467.5303</ele>
        <time>2014-03-02T12:39:48Z</time>
      </trkpt>
      <trkpt lat="45.62181" lon="6.66118">
        <ele>2467.5303</ele>
        <time>2014-03-02T12:39:55Z</time>
      </trkpt>
      <trkpt lat="45.62181" lon="6.66118">
        <ele>2467.5303</ele>
        <time>2014-03-02T12:39:58Z</time>
      </trkpt>
      <trkpt lat="45.62181" lon="6.66118">
        <ele>2467.5303</ele>
        <time>2014-03-02T12:40:03Z</time>
      </trkpt>
      <trkpt lat="45.62181" lon="6.66118">
        <ele>2467.5303</ele>
        <time>2014-03-02T12:41:03Z</time>
      </trkpt>
      <trkpt lat="45.62181" lon="6.66118">
        <ele>2467.5303</ele>
        <time>2014-03-02T12:41:08Z</time>
      </trkpt>
      <trkpt lat="45.62181" lon="6.66118">
        <ele>2467.5303</ele>
        <time>2014-03-02T12:41:13Z</time>
      </trkpt>
      <trkpt lat="45.62181" lon="6.66118">
        <ele>2467.5303</ele>
        <time>2014-03-02T12:41:19Z</time>
      </trkpt>
      <trkpt lat="45.62181" lon="6.66118">
        <ele>2467.5303</ele>
        <time>2014-03-02T12:41:28Z</time>
      </trkpt>
      <trkpt lat="45.62181" lon="6.66118">
        <ele>2467.5303</ele>
        <time>2014-03-02T12:41:42Z</time>
      </trkpt>
      <trkpt lat="45.62181" lon="6.66118">
        <ele>2467.5303</ele>
        <time>2014-03-02T12:41:49Z</time>
      </trkpt>
      <trkpt lat="45.62181" lon="6.66118">
        <ele>2467.5303</ele>
        <time>2014-03-02T12:41:57Z</time>
      </trkpt>
      <trkpt lat="45.62181" lon="6.66118">
        <ele>2467.5303</ele>
        <time>2014-03-02T12:42:05Z</time>
      </trkpt>
      <trkpt lat="45.62181" lon="6.66118">
        <ele>2467.5303</ele>
        <time>2014-03-02T12:42:07Z</time>
      </trkpt>
      <trkpt lat="45.62181" lon="6.66118">
        <ele>2467.5303</ele>
        <time>2014-03-02T12:42:51Z</time>
      </trkpt>
      <trkpt lat="45.62181" lon="6.66118">
        <ele>2467.5303</ele>
        <time>2014-03-02T12:43:29Z</time>
      </trkpt>
      <trkpt lat="45.62181" lon="6.66118">
        <ele>2467.5303</ele>
        <time>2014-03-02T12:43:31Z</time>
      </trkpt>
      <trkpt lat="45.62181" lon="6.66118">
        <ele>2467.5303</ele>
        <time>2014-03-02T12:43:40Z</time>
      </trkpt>
      <trkpt lat="45.62181" lon="6.66118">
        <ele>2467.5303</ele>
        <time>2014-03-02T12:43:48Z</time>
      </trkpt>
      <trkpt lat="45.62181" lon="6.66118">
        <ele>2467.5303</ele>
        <time>2014-03-02T12:44:03Z</time>
      </trkpt>
      <trkpt lat="45.62181" lon="6.66118">
        <ele>2467.5303</ele>
        <time>2014-03-02T12:44:07Z</time>
      </trkpt>
      <trkpt lat="45.62181" lon="6.66118">
        <ele>2467.5303</ele>
        <time>2014-03-02T12:44:15Z</time>
      </trkpt>
      <trkpt lat="45.62181" lon="6.66118">
        <ele>2467.5303</ele>
        <time>2014-03-02T12:44:16Z</time>
      </trkpt>
      <trkpt lat="45.62181" lon="6.66118">
        <ele>2467.5303</ele>
        <time>2014-03-02T12:44:26Z</time>
      </trkpt>
      <trkpt lat="45.62181" lon="6.66118">
        <ele>2467.5303</ele>
        <time>2014-03-02T12:44:27Z</time>
      </trkpt>
      <trkpt lat="45.62181" lon="6.66118">
        <ele>2467.5303</ele>
        <time>2014-03-02T12:44:37Z</time>
      </trkpt>
      <trkpt lat="45.62181" lon="6.66118">
        <ele>2467.5303</ele>
        <time>2014-03-02T12:44:50Z</time>
      </trkpt>
      <trkpt lat="45.62181" lon="6.66118">
        <ele>2467.5303</ele>
        <time>2014-03-02T12:45:02Z</time>
      </trkpt>
      <trkpt lat="45.62181" lon="6.66118">
        <ele>2467.5303</ele>
        <time>2014-03-02T12:45:09Z</time>
      </trkpt>
      <trkpt lat="45.62181" lon="6.66118">
        <ele>2467.5303</ele>
        <time>2014-03-02T12:45:23Z</time>
      </trkpt>
      <trkpt lat="45.62181" lon="6.66118">
        <ele>2467.5303</ele>
        <time>2014-03-02T12:45:30Z</time>
      </trkpt>
      <trkpt lat="45.62181" lon="6.66118">
        <ele>2467.5303</ele>
        <time>2014-03-02T12:45:38Z</time>
      </trkpt>
      <trkpt lat="45.62181" lon="6.66118">
        <ele>2467.5303</ele>
        <time>2014-03-02T12:45:42Z</time>
      </trkpt>
      <trkpt lat="45.62181" lon="6.66118">
        <ele>2467.5303</ele>
        <time>2014-03-02T12:45:55Z</time>
      </trkpt>
      <trkpt lat="45.62181" lon="6.66118">
        <ele>2467.5303</ele>
        <time>2014-03-02T12:45:59Z</time>
      </trkpt>
      <trkpt lat="45.62181" lon="6.66118">
        <ele>2467.5303</ele>
        <time>2014-03-02T12:46:04Z</time>
      </trkpt>
      <trkpt lat="45.62181" lon="6.66118">
        <ele>2467.5303</ele>
        <time>2014-03-02T12:46:18Z</time>
      </trkpt>
      <trkpt lat="45.62181" lon="6.66118">
        <ele>2467.5303</ele>
        <time>2014-03-02T12:46:39Z</time>
      </trkpt>
      <trkpt lat="45.62181" lon="6.66118">
        <ele>2467.5303</ele>
        <time>2014-03-02T12:46:43Z</time>
      </trkpt>
      <trkpt lat="45.62181" lon="6.66118">
        <ele>2467.5303</ele>
        <time>2014-03-02T12:46:47Z</time>
      </trkpt>
      <trkpt lat="45.62181" lon="6.66118">
        <ele>2467.5303</ele>
        <time>2014-03-02T12:46:57Z</time>
      </trkpt>
      <trkpt lat="45.62181" lon="6.66118">
        <ele>2467.5303</ele>
        <time>2014-03-02T12:47:04Z</time>
      </trkpt>
      <trkpt lat="45.62181" lon="6.66118">
        <ele>2467.5303</ele>
        <time>2014-03-02T12:47:14Z</time>
      </trkpt>
      <trkpt lat="45.62181" lon="6.66118">
        <ele>2467.5303</ele>
        <time>2014-03-02T12:47:21Z</time>
      </trkpt>
      <trkpt lat="45.62181" lon="6.66118">
        <ele>2467.5303</ele>
        <time>2014-03-02T12:47:27Z</time>
      </trkpt>
      <trkpt lat="45.62181" lon="6.66118">
        <ele>2467.5303</ele>
        <time>2014-03-02T12:47:34Z</time>
      </trkpt>
      <trkpt lat="45.62181" lon="6.66118">
        <ele>2467.5303</ele>
        <time>2014-03-02T12:47:37Z</time>
      </trkpt>
      <trkpt lat="45.62181" lon="6.66118">
        <ele>2467.5303</ele>
        <time>2014-03-02T12:47:46Z</time>
      </trkpt>
      <trkpt lat="45.62181" lon="6.66118">
        <ele>2467.5303</ele>
        <time>2014-03-02T12:47:55Z</time>
      </trkpt>
      <trkpt lat="45.62181" lon="6.66118">
        <ele>2467.5303</ele>
        <time>2014-03-02T12:47:56Z</time>
      </trkpt>
      <trkpt lat="45.62181" lon="6.66118">
        <ele>2467.5303</ele>
        <time>2014-03-02T12:48:04Z</time>
      </trkpt>
      <trkpt lat="45.62181" lon="6.66118">
        <ele>2467.5303</ele>
        <time>2014-03-02T12:48:15Z</time>
      </trkpt>
      <trkpt lat="45.62181" lon="6.66118">
        <ele>2467.5303</ele>
        <time>2014-03-02T12:48:26Z</time>
      </trkpt>
      <trkpt lat="45.62181" lon="6.66118">
        <ele>2467.5303</ele>
        <time>2014-03-02T12:48:26Z</time>
      </trkpt>
      <trkpt lat="45.62181" lon="6.66118">
        <ele>2467.5303</ele>
        <time>2014-03-02T12:49:02Z</time>
      </trkpt>
      <trkpt lat="45.62181" lon="6.66118">
        <ele>2467.5303</ele>
        <time>2014-03-02T12:49:10Z</time>
      </trkpt>
      <trkpt lat="45.62181" lon="6.66118">
        <ele>2467.5303</ele>
        <time>2014-03-02T12:49:14Z</time>
      </trkpt>
      <trkpt lat="45.62181" lon="6.66118">
        <ele>2467.5303</ele>
        <time>2014-03-02T12:49:24Z</time>
      </trkpt>
      <trkpt lat="45.62181" lon="6.66118">
        <ele>2467.5303</ele>
        <time>2014-03-02T12:49:32Z</time>
      </trkpt>
      <trkpt lat="45.62181" lon="6.66118">
        <ele>2467.5303</ele>
        <time>2014-03-02T12:49:39Z</time>
      </trkpt>
      <trkpt lat="45.62181" lon="6.66118">
        <ele>2467.5303</ele>
        <time>2014-03-02T12:49:50Z</time>
      </trkpt>
      <trkpt lat="45.62181" lon="6.66118">
        <ele>2467.5303</ele>
        <time>2014-03-02T12:50:01Z</time>
      </trkpt>
      <trkpt lat="45.62181" lon="6.66118">
        <ele>2467.5303</ele>
        <time>2014-03-02T12:50:10Z</time>
      </trkpt>
      <trkpt lat="45.62181" lon="6.66118">
        <ele>2467.5303</ele>
        <time>2014-03-02T12:50:21Z</time>
      </trkpt>
      <trkpt lat="45.62181" lon="6.66118">
        <ele>2467.5303</ele>
        <time>2014-03-02T12:51:01Z</time>
      </trkpt>
      <trkpt lat="45.62181" lon="6.66118">
        <ele>2467.5303</ele>
        <time>2014-03-02T12:52:03Z</time>
      </trkpt>
      <trkpt lat="45.62181" lon="6.66118">
        <ele>2467.5303</ele>
        <time>2014-03-02T12:52:12Z</time>
      </trkpt>
      <trkpt lat="45.62181" lon="6.66118">
        <ele>2467.5303</ele>
        <time>2014-03-02T12:52:28Z</time>
      </trkpt>
      <trkpt lat="45.62181" lon="6.66118">
        <ele>2467.5303</ele>
        <time>2014-03-02T12:52:37Z</time>
      </trkpt>
      <trkpt lat="45.62181" lon="6.66118">
        <ele>2467.5303</ele>
        <time>2014-03-02T12:52:58Z</time>
      </trkpt>
      <trkpt lat="45.62181" lon="6.66118">
        <ele>2467.5303</ele>
        <time>2014-03-02T12:53:05Z</time>
      </trkpt>
      <trkpt lat="45.62181" lon="6.66118">
        <ele>2467.5303</ele>
        <time>2014-03-02T12:53:07Z</time>
      </trkpt>
      <trkpt lat="45.62181" lon="6.66118">
        <ele>2467.5303</ele>
        <time>2014-03-02T12:53:14Z</time>
      </trkpt>
      <trkpt lat="45.62181" lon="6.66118">
        <ele>2467.5303</ele>
        <time>2014-03-02T12:53:19Z</time>
      </trkpt>
      <trkpt lat="45.62181" lon="6.66118">
        <ele>2467.5303</ele>
        <time>2014-03-02T12:53:23Z</time>
      </trkpt>
      <trkpt lat="45.62181" lon="6.66118">
        <ele>2467.5303</ele>
        <time>2014-03-02T12:53:27Z</time>
      </trkpt>
      <trkpt lat="45.62181" lon="6.66118">
        <ele>2467.5303</ele>
        <time>2014-03-02T12:53:33Z</time>
      </trkpt>
      <trkpt lat="45.62181" lon="6.66118">
        <ele>2467.5303</ele>
        <time>2014-03-02T12:53:38Z</time>
      </trkpt>
      <trkpt lat="45.62181" lon="6.66118">
        <ele>2467.5303</ele>
        <time>2014-03-02T12:53:42Z</time>
      </trkpt>
      <trkpt lat="45.62181" lon="6.66118">
        <ele>2467.5303</ele>
        <time>2014-03-02T12:53:51Z</time>
      </trkpt>
      <trkpt lat="45.62181" lon="6.66118">
        <ele>2467.5303</ele>
        <time>2014-03-02T12:53:57Z</time>
      </trkpt>
      <trkpt lat="45.62181" lon="6.66118">
        <ele>2467.5303</ele>
        <time>2014-03-02T12:54:04Z</time>
      </trkpt>
      <trkpt lat="45.62181" lon="6.66118">
        <ele>2467.5303</ele>
        <time>2014-03-02T12:54:17Z</time>
      </trkpt>
      <trkpt lat="45.62181" lon="6.66118">
        <ele>2467.5303</ele>
        <time>2014-03-02T12:54:37Z</time>
      </trkpt>
      <trkpt lat="45.62181" lon="6.66118">
        <ele>2467.5303</ele>
        <time>2014-03-02T12:54:59Z</time>
      </trkpt>
      <trkpt lat="45.62181" lon="6.66118">
        <ele>2467.5303</ele>
        <time>2014-03-02T12:55:02Z</time>
      </trkpt>
      <trkpt lat="45.62181" lon="6.66118">
        <ele>2467.5303</ele>
        <time>2014-03-02T12:55:17Z</time>
      </trkpt>
      <trkpt lat="45.62181" lon="6.66118">
        <ele>2467.5303</ele>
        <time>2014-03-02T12:55:28Z</time>
      </trkpt>
      <trkpt lat="45.62181" lon="6.66118">
        <ele>2467.5303</ele>
        <time>2014-03-02T12:55:33Z</time>
      </trkpt>
      <trkpt lat="45.62181" lon="6.66118">
        <ele>2467.5303</ele>
        <time>2014-03-02T12:55:47Z</time>
      </trkpt>
      <trkpt lat="45.62181" lon="6.66118">
        <ele>2467.5303</ele>
        <time>2014-03-02T12:55:56Z</time>
      </trkpt>
      <trkpt lat="45.62181" lon="6.66118">
        <ele>2467.5303</ele>
        <time>2014-03-02T12:56:07Z</time>
      </trkpt>
      <trkpt lat="45.62181" lon="6.66118">
        <ele>2467.5303</ele>
        <time>2014-03-02T12:56:32Z</time>
      </trkpt>
      <trkpt lat="45.62181" lon="6.66118">
        <ele>2467.5303</ele>
        <time>2014-03-02T12:56:47Z</time>
      </trkpt>
      <trkpt lat="45.62181" lon="6.66118">
        <ele>2467.5303</ele>
        <time>2014-03-02T12:56:57Z</time>
      </trkpt>
      <trkpt lat="45.62181" lon="6.66118">
        <ele>2467.5303</ele>
        <time>2014-03-02T12:57:05Z</time>
      </trkpt>
      <trkpt lat="45.62181" lon="6.66118">
        <ele>2467.5303</ele>
        <time>2014-03-02T12:57:14Z</time>
      </trkpt>
      <trkpt lat="45.62181" lon="6.66117">
        <ele>2467.5303</ele>
        <time>2014-03-02T12:57:28Z</time>
      </trkpt>
      <trkpt lat="45.62181" lon="6.66118">
        <ele>2467.5303</ele>
        <time>2014-03-02T12:57:40Z</time>
      </trkpt>
      <trkpt lat="45.62181" lon="6.66118">
        <ele>2467.5303</ele>
        <time>2014-03-02T12:57:44Z</time>
      </trkpt>
      <trkpt lat="45.62181" lon="6.66118">
        <ele>2467.5303</ele>
        <time>2014-03-02T12:57:59Z</time>
      </trkpt>
      <trkpt lat="45.62181" lon="6.66118">
        <ele>2467.5303</ele>
        <time>2014-03-02T12:58:06Z</time>
      </trkpt>
      <trkpt lat="45.62181" lon="6.66118">
        <ele>2467.5303</ele>
        <time>2014-03-02T12:58:08Z</time>
      </trkpt>
      <trkpt lat="45.62181" lon="6.66118">
        <ele>2467.5303</ele>
        <time>2014-03-02T12:58:22Z</time>
      </trkpt>
      <trkpt lat="45.62181" lon="6.66118">
        <ele>2467.5303</ele>
        <time>2014-03-02T12:58:29Z</time>
      </trkpt>
      <trkpt lat="45.62181" lon="6.66118">
        <ele>2467.5303</ele>
        <time>2014-03-02T12:58:35Z</time>
      </trkpt>
      <trkpt lat="45.62184" lon="6.66117">
        <ele>2467.5303</ele>
        <time>2014-03-02T12:58:58Z</time>
      </trkpt>
      <trkpt lat="45.62184" lon="6.66117">
        <ele>2467.5303</ele>
        <time>2014-03-02T12:59:03Z</time>
      </trkpt>
      <trkpt lat="45.62184" lon="6.66117">
        <ele>2468.9749</ele>
        <time>2014-03-02T12:59:09Z</time>
      </trkpt>
      <trkpt lat="45.62184" lon="6.66118">
        <ele>2468.9749</ele>
        <time>2014-03-02T12:59:13Z</time>
      </trkpt>
      <trkpt lat="45.62183" lon="6.66118">
        <ele>2468.9749</ele>
        <time>2014-03-02T12:59:23Z</time>
      </trkpt>
      <trkpt lat="45.62183" lon="6.66118">
        <ele>2468.9749</ele>
        <time>2014-03-02T12:59:41Z</time>
      </trkpt>
      <trkpt lat="45.62183" lon="6.66118">
        <ele>2468.9749</ele>
        <time>2014-03-02T12:59:51Z</time>
      </trkpt>
      <trkpt lat="45.62183" lon="6.66118">
        <ele>2468.9749</ele>
        <time>2014-03-02T13:00:06Z</time>
      </trkpt>
      <trkpt lat="45.62183" lon="6.66118">
        <ele>2468.9749</ele>
        <time>2014-03-02T13:00:20Z</time>
      </trkpt>
      <trkpt lat="45.62183" lon="6.66118">
        <ele>2468.9749</ele>
        <time>2014-03-02T13:00:26Z</time>
      </trkpt>
      <trkpt lat="45.62183" lon="6.66118">
        <ele>2468.9749</ele>
        <time>2014-03-02T13:00:31Z</time>
      </trkpt>
      <trkpt lat="45.62183" lon="6.66118">
        <ele>2468.9749</ele>
        <time>2014-03-02T13:00:42Z</time>
      </trkpt>
      <trkpt lat="45.62183" lon="6.66118">
        <ele>2468.9749</ele>
        <time>2014-03-02T13:00:48Z</time>
      </trkpt>
      <trkpt lat="45.62183" lon="6.66118">
        <ele>2468.9749</ele>
        <time>2014-03-02T13:00:53Z</time>
      </trkpt>
      <trkpt lat="45.62183" lon="6.66118">
        <ele>2468.9749</ele>
        <time>2014-03-02T13:00:58Z</time>
      </trkpt>
      <trkpt lat="45.62183" lon="6.66118">
        <ele>2468.9749</ele>
        <time>2014-03-02T13:01:02Z</time>
      </trkpt>
      <trkpt lat="45.62182" lon="6.66118">
        <ele>2468.9749</ele>
        <time>2014-03-02T13:01:12Z</time>
      </trkpt>
      <trkpt lat="45.62182" lon="6.66118">
        <ele>2468.9749</ele>
        <time>2014-03-02T13:01:19Z</time>
      </trkpt>
      <trkpt lat="45.62182" lon="6.66118">
        <ele>2468.9749</ele>
        <time>2014-03-02T13:01:23Z</time>
      </trkpt>
      <trkpt lat="45.62182" lon="6.66118">
        <ele>2468.9749</ele>
        <time>2014-03-02T13:01:36Z</time>
      </trkpt>
      <trkpt lat="45.62182" lon="6.66118">
        <ele>2468.9749</ele>
        <time>2014-03-02T13:01:36Z</time>
      </trkpt>
      <trkpt lat="45.62182" lon="6.66118">
        <ele>2468.9749</ele>
        <time>2014-03-02T13:01:46Z</time>
      </trkpt>
      <trkpt lat="45.62181" lon="6.66118">
        <ele>2468.9749</ele>
        <time>2014-03-02T13:01:54Z</time>
      </trkpt>
      <trkpt lat="45.62181" lon="6.66118">
        <ele>2468.9749</ele>
        <time>2014-03-02T13:01:56Z</time>
      </trkpt>
      <trkpt lat="45.62181" lon="6.66118">
        <ele>2468.9749</ele>
        <time>2014-03-02T13:02:02Z</time>
      </trkpt>
      <trkpt lat="45.62181" lon="6.66118">
        <ele>2468.9749</ele>
        <time>2014-03-02T13:02:28Z</time>
      </trkpt>
      <trkpt lat="45.62181" lon="6.66118">
        <ele>2468.9749</ele>
        <time>2014-03-02T13:02:39Z</time>
      </trkpt>
      <trkpt lat="45.62181" lon="6.66118">
        <ele>2468.9749</ele>
        <time>2014-03-02T13:03:02Z</time>
      </trkpt>
      <trkpt lat="45.62181" lon="6.66118">
        <ele>2468.9749</ele>
        <time>2014-03-02T13:03:09Z</time>
      </trkpt>
      <trkpt lat="45.62181" lon="6.66118">
        <ele>2468.9749</ele>
        <time>2014-03-02T13:03:28Z</time>
      </trkpt>
      <trkpt lat="45.62181" lon="6.66118">
        <ele>2468.9749</ele>
        <time>2014-03-02T13:03:37Z</time>
      </trkpt>
      <trkpt lat="45.62181" lon="6.66119">
        <ele>2468.9749</ele>
        <time>2014-03-02T13:03:44Z</time>
      </trkpt>
      <trkpt lat="45.62182" lon="6.66118">
        <ele>2468.9749</ele>
        <time>2014-03-02T13:03:47Z</time>
      </trkpt>
      <trkpt lat="45.62183" lon="6.66117">
        <ele>2468.9749</ele>
        <time>2014-03-02T13:03:52Z</time>
      </trkpt>
      <trkpt lat="45.62183" lon="6.66117">
        <ele>2468.9749</ele>
        <time>2014-03-02T13:03:58Z</time>
      </trkpt>
      <trkpt lat="45.62183" lon="6.66117">
        <ele>2468.9749</ele>
        <time>2014-03-02T13:04:03Z</time>
      </trkpt>
      <trkpt lat="45.62183" lon="6.66117">
        <ele>2468.9749</ele>
        <time>2014-03-02T13:04:09Z</time>
      </trkpt>
      <trkpt lat="45.62184" lon="6.66116">
        <ele>2468.9749</ele>
        <time>2014-03-02T13:04:21Z</time>
      </trkpt>
      <trkpt lat="45.62185" lon="6.66116">
        <ele>2468.9749</ele>
        <time>2014-03-02T13:04:28Z</time>
      </trkpt>
      <trkpt lat="45.62185" lon="6.66116">
        <ele>2468.9749</ele>
        <time>2014-03-02T13:04:41Z</time>
      </trkpt>
      <trkpt lat="45.62185" lon="6.66116">
        <ele>2468.9749</ele>
        <time>2014-03-02T13:04:53Z</time>
      </trkpt>
      <trkpt lat="45.62185" lon="6.66116">
        <ele>2468.9749</ele>
        <time>2014-03-02T13:05:00Z</time>
      </trkpt>
      <trkpt lat="45.62185" lon="6.66116">
        <ele>2468.9749</ele>
        <time>2014-03-02T13:05:01Z</time>
      </trkpt>
      <trkpt lat="45.62185" lon="6.66116">
        <ele>2468.9749</ele>
        <time>2014-03-02T13:05:35Z</time>
      </trkpt>
      <trkpt lat="45.62185" lon="6.66116">
        <ele>2468.9749</ele>
        <time>2014-03-02T13:05:46Z</time>
      </trkpt>
      <trkpt lat="45.62185" lon="6.66116">
        <ele>2468.9749</ele>
        <time>2014-03-02T13:05:46Z</time>
      </trkpt>
      <trkpt lat="45.62185" lon="6.66116">
        <ele>2468.9749</ele>
        <time>2014-03-02T13:05:55Z</time>
      </trkpt>
      <trkpt lat="45.62185" lon="6.66116">
        <ele>2468.9749</ele>
        <time>2014-03-02T13:05:57Z</time>
      </trkpt>
      <trkpt lat="45.62185" lon="6.66116">
        <ele>2468.9749</ele>
        <time>2014-03-02T13:06:01Z</time>
      </trkpt>
      <trkpt lat="45.62185" lon="6.66116">
        <ele>2468.9749</ele>
        <time>2014-03-02T13:06:09Z</time>
      </trkpt>
      <trkpt lat="45.62185" lon="6.66116">
        <ele>2468.9749</ele>
        <time>2014-03-02T13:06:14Z</time>
      </trkpt>
      <trkpt lat="45.62185" lon="6.66116">
        <ele>2468.9749</ele>
        <time>2014-03-02T13:06:18Z</time>
      </trkpt>
      <trkpt lat="45.62185" lon="6.66116">
        <ele>2468.9749</ele>
        <time>2014-03-02T13:06:23Z</time>
      </trkpt>
      <trkpt lat="45.62185" lon="6.66116">
        <ele>2468.9749</ele>
        <time>2014-03-02T13:06:27Z</time>
      </trkpt>
      <trkpt lat="45.62185" lon="6.66116">
        <ele>2468.9749</ele>
        <time>2014-03-02T13:06:35Z</time>
      </trkpt>
      <trkpt lat="45.62185" lon="6.66116">
        <ele>2468.9749</ele>
        <time>2014-03-02T13:06:44Z</time>
      </trkpt>
      <trkpt lat="45.62185" lon="6.66116">
        <ele>2468.9749</ele>
        <time>2014-03-02T13:06:47Z</time>
      </trkpt>
      <trkpt lat="45.62184" lon="6.66117">
        <ele>2470.368</ele>
        <time>2014-03-02T13:07:02Z</time>
      </trkpt>
      <trkpt lat="45.62184" lon="6.66117">
        <ele>2470.368</ele>
        <time>2014-03-02T13:07:09Z</time>
      </trkpt>
      <trkpt lat="45.62184" lon="6.66117">
        <ele>2470.368</ele>
        <time>2014-03-02T13:07:13Z</time>
      </trkpt>
      <trkpt lat="45.62184" lon="6.66116">
        <ele>2470.368</ele>
        <time>2014-03-02T13:07:19Z</time>
      </trkpt>
      <trkpt lat="45.62185" lon="6.66115">
        <ele>2470.368</ele>
        <time>2014-03-02T13:07:22Z</time>
      </trkpt>
      <trkpt lat="45.62183" lon="6.66116">
        <ele>2470.368</ele>
        <time>2014-03-02T13:07:27Z</time>
      </trkpt>
      <trkpt lat="45.62182" lon="6.66116">
        <ele>2470.368</ele>
        <time>2014-03-02T13:07:33Z</time>
      </trkpt>
      <trkpt lat="45.62182" lon="6.66116">
        <ele>2470.368</ele>
        <time>2014-03-02T13:07:38Z</time>
      </trkpt>
      <trkpt lat="45.62182" lon="6.66116">
        <ele>2470.368</ele>
        <time>2014-03-02T13:07:43Z</time>
      </trkpt>
      <trkpt lat="45.62182" lon="6.66116">
        <ele>2470.368</ele>
        <time>2014-03-02T13:07:48Z</time>
      </trkpt>
      <trkpt lat="45.62182" lon="6.66116">
        <ele>2470.368</ele>
        <time>2014-03-02T13:07:59Z</time>
      </trkpt>
      <trkpt lat="45.62182" lon="6.66116">
        <ele>2470.368</ele>
        <time>2014-03-02T13:08:03Z</time>
      </trkpt>
      <trkpt lat="45.62182" lon="6.66116">
        <ele>2470.368</ele>
        <time>2014-03-02T13:08:10Z</time>
      </trkpt>
      <trkpt lat="45.62181" lon="6.66117">
        <ele>2470.368</ele>
        <time>2014-03-02T13:08:18Z</time>
      </trkpt>
      <trkpt lat="45.6218" lon="6.66117">
        <ele>2470.368</ele>
        <time>2014-03-02T13:08:23Z</time>
      </trkpt>
      <trkpt lat="45.6218" lon="6.66118">
        <ele>2470.368</ele>
        <time>2014-03-02T13:08:27Z</time>
      </trkpt>
      <trkpt lat="45.62181" lon="6.66118">
        <ele>2470.368</ele>
        <time>2014-03-02T13:08:41Z</time>
      </trkpt>
      <trkpt lat="45.62181" lon="6.66118">
        <ele>2470.368</ele>
        <time>2014-03-02T13:08:48Z</time>
      </trkpt>
      <trkpt lat="45.62181" lon="6.66118">
        <ele>2470.368</ele>
        <time>2014-03-02T13:08:51Z</time>
      </trkpt>
      <trkpt lat="45.62182" lon="6.66118">
        <ele>2470.368</ele>
        <time>2014-03-02T13:09:00Z</time>
      </trkpt>
      <trkpt lat="45.62182" lon="6.66118">
        <ele>2470.368</ele>
        <time>2014-03-02T13:09:02Z</time>
      </trkpt>
      <trkpt lat="45.62182" lon="6.66118">
        <ele>2470.368</ele>
        <time>2014-03-02T13:09:15Z</time>
      </trkpt>
      <trkpt lat="45.62182" lon="6.66118">
        <ele>2470.368</ele>
        <time>2014-03-02T13:09:17Z</time>
      </trkpt>
      <trkpt lat="45.62183" lon="6.66118">
        <ele>2471.5005</ele>
        <time>2014-03-02T13:09:35Z</time>
      </trkpt>
      <trkpt lat="45.62182" lon="6.66118">
        <ele>2471.5005</ele>
        <time>2014-03-02T13:09:38Z</time>
      </trkpt>
      <trkpt lat="45.62182" lon="6.66119">
        <ele>2471.5005</ele>
        <time>2014-03-02T13:09:41Z</time>
      </trkpt>
      <trkpt lat="45.62183" lon="6.66119">
        <ele>2471.5005</ele>
        <time>2014-03-02T13:09:46Z</time>
      </trkpt>
      <trkpt lat="45.62183" lon="6.66119">
        <ele>2471.5005</ele>
        <time>2014-03-02T13:09:52Z</time>
      </trkpt>
      <trkpt lat="45.62182" lon="6.6612">
        <ele>2471.5005</ele>
        <time>2014-03-02T13:10:04Z</time>
      </trkpt>
      <trkpt lat="45.62182" lon="6.6612">
        <ele>2471.5005</ele>
        <time>2014-03-02T13:10:14Z</time>
      </trkpt>
      <trkpt lat="45.62181" lon="6.66119">
        <ele>2471.5005</ele>
        <time>2014-03-02T13:10:27Z</time>
      </trkpt>
      <trkpt lat="45.62181" lon="6.66118">
        <ele>2471.5005</ele>
        <time>2014-03-02T13:10:34Z</time>
      </trkpt>
      <trkpt lat="45.62181" lon="6.66117">
        <ele>2471.5005</ele>
        <time>2014-03-02T13:10:40Z</time>
      </trkpt>
      <trkpt lat="45.62181" lon="6.66117">
        <ele>2471.5005</ele>
        <time>2014-03-02T13:10:51Z</time>
      </trkpt>
      <trkpt lat="45.62181" lon="6.66116">
        <ele>2471.5005</ele>
        <time>2014-03-02T13:10:51Z</time>
      </trkpt>
      <trkpt lat="45.62181" lon="6.66116">
        <ele>2471.5005</ele>
        <time>2014-03-02T13:10:59Z</time>
      </trkpt>
      <trkpt lat="45.62181" lon="6.66116">
        <ele>2471.5005</ele>
        <time>2014-03-02T13:11:03Z</time>
      </trkpt>
      <trkpt lat="45.62181" lon="6.66117">
        <ele>2471.5005</ele>
        <time>2014-03-02T13:11:07Z</time>
      </trkpt>
      <trkpt lat="45.62181" lon="6.66117">
        <ele>2471.5005</ele>
        <time>2014-03-02T13:11:18Z</time>
      </trkpt>
      <trkpt lat="45.62181" lon="6.66117">
        <ele>2471.5005</ele>
        <time>2014-03-02T13:11:24Z</time>
      </trkpt>
      <trkpt lat="45.62181" lon="6.66117">
        <ele>2471.5005</ele>
        <time>2014-03-02T13:11:36Z</time>
      </trkpt>
      <trkpt lat="45.62182" lon="6.66116">
        <ele>2471.229</ele>
        <time>2014-03-02T13:11:45Z</time>
      </trkpt>
      <trkpt lat="45.62183" lon="6.66117">
        <ele>2471.229</ele>
        <time>2014-03-02T13:11:52Z</time>
      </trkpt>
      <trkpt lat="45.62183" lon="6.66117">
        <ele>2471.229</ele>
        <time>2014-03-02T13:12:00Z</time>
      </trkpt>
      <trkpt lat="45.62183" lon="6.66117">
        <ele>2471.229</ele>
        <time>2014-03-02T13:12:02Z</time>
      </trkpt>
      <trkpt lat="45.62183" lon="6.66117">
        <ele>2471.229</ele>
        <time>2014-03-02T13:12:08Z</time>
      </trkpt>
      <trkpt lat="45.62183" lon="6.66117">
        <ele>2471.229</ele>
        <time>2014-03-02T13:12:20Z</time>
      </trkpt>
      <trkpt lat="45.62183" lon="6.66117">
        <ele>2471.229</ele>
        <time>2014-03-02T13:12:26Z</time>
      </trkpt>
      <trkpt lat="45.62183" lon="6.66117">
        <ele>2471.229</ele>
        <time>2014-03-02T13:12:33Z</time>
      </trkpt>
      <trkpt lat="45.62183" lon="6.66117">
        <ele>2471.229</ele>
        <time>2014-03-02T13:12:38Z</time>
      </trkpt>
      <trkpt lat="45.62182" lon="6.66117">
        <ele>2471.229</ele>
        <time>2014-03-02T13:12:52Z</time>
      </trkpt>
      <trkpt lat="45.62183" lon="6.66117">
        <ele>2471.229</ele>
        <time>2014-03-02T13:13:04Z</time>
      </trkpt>
      <trkpt lat="45.62183" lon="6.66117">
        <ele>2471.229</ele>
        <time>2014-03-02T13:13:08Z</time>
      </trkpt>
      <trkpt lat="45.62182" lon="6.66117">
        <ele>2471.229</ele>
        <time>2014-03-02T13:13:14Z</time>
      </trkpt>
      <trkpt lat="45.62182" lon="6.66117">
        <ele>2471.229</ele>
        <time>2014-03-02T13:13:27Z</time>
      </trkpt>
      <trkpt lat="45.62182" lon="6.66117">
        <ele>2471.229</ele>
        <time>2014-03-02T13:13:37Z</time>
      </trkpt>
      <trkpt lat="45.62181" lon="6.66117">
        <ele>2471.229</ele>
        <time>2014-03-02T13:13:41Z</time>
      </trkpt>
      <trkpt lat="45.62181" lon="6.66118">
        <ele>2471.229</ele>
        <time>2014-03-02T13:13:46Z</time>
      </trkpt>
      <trkpt lat="45.62181" lon="6.66118">
        <ele>2471.229</ele>
        <time>2014-03-02T13:14:03Z</time>
      </trkpt>
      <trkpt lat="45.62175" lon="6.66114">
        <ele>2470.919</ele>
        <time>2014-03-02T13:14:45Z</time>
      </trkpt>
      <trkpt lat="45.62174" lon="6.66114">
        <ele>2470.919</ele>
        <time>2014-03-02T13:14:53Z</time>
      </trkpt>
      <trkpt lat="45.62174" lon="6.66114">
        <ele>2470.919</ele>
        <time>2014-03-02T13:15:05Z</time>
      </trkpt>
      <trkpt lat="45.62174" lon="6.66114">
        <ele>2470.919</ele>
        <time>2014-03-02T13:15:15Z</time>
      </trkpt>
      <trkpt lat="45.62173" lon="6.66114">
        <ele>2470.919</ele>
        <time>2014-03-02T13:15:26Z</time>
      </trkpt>
      <trkpt lat="45.62165" lon="6.66108">
        <ele>2470.2783</ele>
        <time>2014-03-02T13:15:56Z</time>
      </trkpt>
      <trkpt lat="45.62165" lon="6.66108">
        <ele>2470.2783</ele>
        <time>2014-03-02T13:16:03Z</time>
      </trkpt>
      <trkpt lat="45.62124" lon="6.66093">
        <ele>2467.367</ele>
        <time>2014-03-02T13:16:39Z</time>
      </trkpt>
      <trkpt lat="45.62124" lon="6.66093">
        <ele>2467.367</ele>
        <time>2014-03-02T13:16:48Z</time>
      </trkpt>
      <trkpt lat="45.62124" lon="6.66093">
        <ele>2467.367</ele>
        <time>2014-03-02T13:16:53Z</time>
      </trkpt>
      <trkpt lat="45.62124" lon="6.66095">
        <ele>2467.367</ele>
        <time>2014-03-02T13:16:57Z</time>
      </trkpt>
      <trkpt lat="45.62123" lon="6.66094">
        <ele>2467.367</ele>
        <time>2014-03-02T13:17:02Z</time>
      </trkpt>
      <trkpt lat="45.62123" lon="6.66094">
        <ele>2467.367</ele>
        <time>2014-03-02T13:17:11Z</time>
      </trkpt>
      <trkpt lat="45.62123" lon="6.66094">
        <ele>2467.367</ele>
        <time>2014-03-02T13:17:12Z</time>
      </trkpt>
      <trkpt lat="45.62123" lon="6.66094">
        <ele>2467.367</ele>
        <time>2014-03-02T13:17:21Z</time>
      </trkpt>
      <trkpt lat="45.62123" lon="6.66094">
        <ele>2467.367</ele>
        <time>2014-03-02T13:17:33Z</time>
      </trkpt>
      <trkpt lat="45.62123" lon="6.66095">
        <ele>2467.367</ele>
        <time>2014-03-02T13:17:38Z</time>
      </trkpt>
      <trkpt lat="45.62117" lon="6.6609">
        <ele>2464.4275</ele>
        <time>2014-03-02T13:17:49Z</time>
      </trkpt>
      <trkpt lat="45.62117" lon="6.6609">
        <ele>2464.4275</ele>
        <time>2014-03-02T13:17:52Z</time>
      </trkpt>
      <trkpt lat="45.62117" lon="6.66091">
        <ele>2464.4275</ele>
        <time>2014-03-02T13:18:00Z</time>
      </trkpt>
      <trkpt lat="45.62116" lon="6.6609">
        <ele>2464.4275</ele>
        <time>2014-03-02T13:18:02Z</time>
      </trkpt>
      <trkpt lat="45.62108" lon="6.66084">
        <ele>2461.4346</ele>
        <time>2014-03-02T13:18:10Z</time>
      </trkpt>
      <trkpt lat="45.62055" lon="6.66069">
        <ele>2456.6777</ele>
        <time>2014-03-02T13:18:31Z</time>
      </trkpt>
      <trkpt lat="45.62041" lon="6.66069">
        <ele>2452.2385</ele>
        <time>2014-03-02T13:18:39Z</time>
      </trkpt>
      <trkpt lat="45.62043" lon="6.66068">
        <ele>2452.2385</ele>
        <time>2014-03-02T13:18:52Z</time>
      </trkpt>
      <trkpt lat="45.62043" lon="6.66068">
        <ele>2452.2385</ele>
        <time>2014-03-02T13:19:00Z</time>
      </trkpt>
      <trkpt lat="45.62042" lon="6.66069">
        <ele>2452.2385</ele>
        <time>2014-03-02T13:19:01Z</time>
      </trkpt>
      <trkpt lat="45.62026" lon="6.66075">
        <ele>2447.4202</ele>
        <time>2014-03-02T13:19:18Z</time>
      </trkpt>
      <trkpt lat="45.62012" lon="6.66078">
        <ele>2441.7087</ele>
        <time>2014-03-02T13:19:22Z</time>
      </trkpt>
      <trkpt lat="45.62004" lon="6.66071">
        <ele>2441.7087</ele>
        <time>2014-03-02T13:19:27Z</time>
      </trkpt>
      <trkpt lat="45.61996" lon="6.66071">
        <ele>2435.8113</ele>
        <time>2014-03-02T13:19:35Z</time>
      </trkpt>
      <trkpt lat="45.61999" lon="6.6607">
        <ele>2435.8113</ele>
        <time>2014-03-02T13:19:37Z</time>
      </trkpt>
      <trkpt lat="45.61977" lon="6.66061">
        <ele>2429.5186</ele>
        <time>2014-03-02T13:19:49Z</time>
      </trkpt>
      <trkpt lat="45.61977" lon="6.66063">
        <ele>2429.5186</ele>
        <time>2014-03-02T13:20:00Z</time>
      </trkpt>
      <trkpt lat="45.61968" lon="6.66061">
        <ele>2422.8826</ele>
        <time>2014-03-02T13:20:02Z</time>
      </trkpt>
      <trkpt lat="45.61959" lon="6.66055">
        <ele>2416.3267</ele>
        <time>2014-03-02T13:20:08Z</time>
      </trkpt>
      <trkpt lat="45.61945" lon="6.66046">
        <ele>2409.8528</ele>
        <time>2014-03-02T13:20:13Z</time>
      </trkpt>
      <trkpt lat="45.61946" lon="6.66046">
        <ele>2409.8528</ele>
        <time>2014-03-02T13:20:18Z</time>
      </trkpt>
      <trkpt lat="45.61929" lon="6.6604">
        <ele>2403.6213</ele>
        <time>2014-03-02T13:20:36Z</time>
      </trkpt>
      <trkpt lat="45.61885" lon="6.66031">
        <ele>2396.8855</ele>
        <time>2014-03-02T13:20:55Z</time>
      </trkpt>
      <trkpt lat="45.61865" lon="6.66034">
        <ele>2390.9868</ele>
        <time>2014-03-02T13:20:57Z</time>
      </trkpt>
      <trkpt lat="45.61854" lon="6.66039">
        <ele>2385.5217</ele>
        <time>2014-03-02T13:21:02Z</time>
      </trkpt>
      <trkpt lat="45.61845" lon="6.66046">
        <ele>2380.6626</ele>
        <time>2014-03-02T13:21:21Z</time>
      </trkpt>
      <trkpt lat="45.61836" lon="6.66052">
        <ele>2376.5527</ele>
        <time>2014-03-02T13:21:28Z</time>
      </trkpt>
      <trkpt lat="45.61821" lon="6.66061">
        <ele>2372.6873</ele>
        <time>2014-03-02T13:21:35Z</time>
      </trkpt>
      <trkpt lat="45.61821" lon="6.66062">
        <ele>2372.6873</ele>
        <time>2014-03-02T13:21:53Z</time>
      </trkpt>
      <trkpt lat="45.61821" lon="6.66062">
        <ele>2372.6873</ele>
        <time>2014-03-02T13:22:03Z</time>
      </trkpt>
      <trkpt lat="45.61821" lon="6.66062">
        <ele>2372.6873</ele>
        <time>2014-03-02T13:22:16Z</time>
      </trkpt>
      <trkpt lat="45.61821" lon="6.66063">
        <ele>2372.6873</ele>
        <time>2014-03-02T13:22:29Z</time>
      </trkpt>
      <trkpt lat="45.61821" lon="6.66063">
        <ele>2372.6873</ele>
        <time>2014-03-02T13:22:40Z</time>
      </trkpt>
      <trkpt lat="45.61822" lon="6.66064">
        <ele>2372.6873</ele>
        <time>2014-03-02T13:22:49Z</time>
      </trkpt>
      <trkpt lat="45.61822" lon="6.66064">
        <ele>2372.6873</ele>
        <time>2014-03-02T13:23:02Z</time>
      </trkpt>
      <trkpt lat="45.61823" lon="6.66063">
        <ele>2372.6873</ele>
        <time>2014-03-02T13:23:21Z</time>
      </trkpt>
      <trkpt lat="45.61823" lon="6.66063">
        <ele>2372.6873</ele>
        <time>2014-03-02T13:23:27Z</time>
      </trkpt>
      <trkpt lat="45.61823" lon="6.66063">
        <ele>2372.6873</ele>
        <time>2014-03-02T13:23:32Z</time>
      </trkpt>
      <trkpt lat="45.61823" lon="6.66063">
        <ele>2372.6873</ele>
        <time>2014-03-02T13:23:36Z</time>
      </trkpt>
      <trkpt lat="45.61823" lon="6.66063">
        <ele>2372.6873</ele>
        <time>2014-03-02T13:23:43Z</time>
      </trkpt>
      <trkpt lat="45.61823" lon="6.66063">
        <ele>2372.6873</ele>
        <time>2014-03-02T13:23:57Z</time>
      </trkpt>
      <trkpt lat="45.61823" lon="6.66063">
        <ele>2372.6873</ele>
        <time>2014-03-02T13:24:06Z</time>
      </trkpt>
      <trkpt lat="45.61823" lon="6.66063">
        <ele>2372.6873</ele>
        <time>2014-03-02T13:24:25Z</time>
      </trkpt>
      <trkpt lat="45.61823" lon="6.66063">
        <ele>2372.6873</ele>
        <time>2014-03-02T13:24:43Z</time>
      </trkpt>
      <trkpt lat="45.61823" lon="6.66063">
        <ele>2372.6873</ele>
        <time>2014-03-02T13:25:03Z</time>
      </trkpt>
      <trkpt lat="45.61823" lon="6.66063">
        <ele>2372.6873</ele>
        <time>2014-03-02T13:25:16Z</time>
      </trkpt>
      <trkpt lat="45.61823" lon="6.66063">
        <ele>2372.6873</ele>
        <time>2014-03-02T13:25:16Z</time>
      </trkpt>
      <trkpt lat="45.61823" lon="6.66063">
        <ele>2372.6873</ele>
        <time>2014-03-02T13:25:25Z</time>
      </trkpt>
      <trkpt lat="45.61823" lon="6.66063">
        <ele>2372.6873</ele>
        <time>2014-03-02T13:25:26Z</time>
      </trkpt>
      <trkpt lat="45.61823" lon="6.66063">
        <ele>2372.6873</ele>
        <time>2014-03-02T13:25:41Z</time>
      </trkpt>
      <trkpt lat="45.61823" lon="6.66063">
        <ele>2372.6873</ele>
        <time>2014-03-02T13:25:51Z</time>
      </trkpt>
      <trkpt lat="45.61823" lon="6.66063">
        <ele>2372.6873</ele>
        <time>2014-03-02T13:25:59Z</time>
      </trkpt>
      <trkpt lat="45.61823" lon="6.66062">
        <ele>2372.6873</ele>
        <time>2014-03-02T13:26:04Z</time>
      </trkpt>
      <trkpt lat="45.61823" lon="6.66062">
        <ele>2372.6873</ele>
        <time>2014-03-02T13:26:22Z</time>
      </trkpt>
      <trkpt lat="45.61822" lon="6.66062">
        <ele>2372.6873</ele>
        <time>2014-03-02T13:26:38Z</time>
      </trkpt>
      <trkpt lat="45.61822" lon="6.66062">
        <ele>2372.6873</ele>
        <time>2014-03-02T13:26:41Z</time>
      </trkpt>
      <trkpt lat="45.61822" lon="6.66062">
        <ele>2372.6873</ele>
        <time>2014-03-02T13:26:56Z</time>
      </trkpt>
      <trkpt lat="45.61822" lon="6.66062">
        <ele>2372.6873</ele>
        <time>2014-03-02T13:27:01Z</time>
      </trkpt>
      <trkpt lat="45.61822" lon="6.66062">
        <ele>2372.6873</ele>
        <time>2014-03-02T13:27:17Z</time>
      </trkpt>
      <trkpt lat="45.61822" lon="6.66062">
        <ele>2372.6873</ele>
        <time>2014-03-02T13:27:56Z</time>
      </trkpt>
      <trkpt lat="45.61822" lon="6.66062">
        <ele>2372.6873</ele>
        <time>2014-03-02T13:28:07Z</time>
      </trkpt>
      <trkpt lat="45.61822" lon="6.66062">
        <ele>2372.6873</ele>
        <time>2014-03-02T13:28:14Z</time>
      </trkpt>
      <trkpt lat="45.61822" lon="6.66062">
        <ele>2372.6873</ele>
        <time>2014-03-02T13:28:24Z</time>
      </trkpt>
      <trkpt lat="45.61822" lon="6.66062">
        <ele>2372.6873</ele>
        <time>2014-03-02T13:29:04Z</time>
      </trkpt>
      <trkpt lat="45.61822" lon="6.66062">
        <ele>2372.6873</ele>
        <time>2014-03-02T13:29:15Z</time>
      </trkpt>
      <trkpt lat="45.61822" lon="6.66062">
        <ele>2372.6873</ele>
        <time>2014-03-02T13:29:26Z</time>
      </trkpt>
      <trkpt lat="45.61822" lon="6.66062">
        <ele>2372.6873</ele>
        <time>2014-03-02T13:29:27Z</time>
      </trkpt>
      <trkpt lat="45.61822" lon="6.66062">
        <ele>2372.6873</ele>
        <time>2014-03-02T13:29:32Z</time>
      </trkpt>
      <trkpt lat="45.61823" lon="6.66062">
        <ele>2372.6873</ele>
        <time>2014-03-02T13:29:45Z</time>
      </trkpt>
      <trkpt lat="45.61823" lon="6.66061">
        <ele>2372.6873</ele>
        <time>2014-03-02T13:29:54Z</time>
      </trkpt>
      <trkpt lat="45.6182" lon="6.66061">
        <ele>2368.7563</ele>
        <time>2014-03-02T13:30:06Z</time>
      </trkpt>
      <trkpt lat="45.61823" lon="6.6606">
        <ele>2368.7563</ele>
        <time>2014-03-02T13:30:32Z</time>
      </trkpt>
      <trkpt lat="45.61823" lon="6.6606">
        <ele>2368.7563</ele>
        <time>2014-03-02T13:30:39Z</time>
      </trkpt>
      <trkpt lat="45.61823" lon="6.6606">
        <ele>2368.7563</ele>
        <time>2014-03-02T13:30:49Z</time>
      </trkpt>
      <trkpt lat="45.61823" lon="6.66059">
        <ele>2368.7563</ele>
        <time>2014-03-02T13:30:52Z</time>
      </trkpt>
      <trkpt lat="45.61823" lon="6.66059">
        <ele>2368.7563</ele>
        <time>2014-03-02T13:31:00Z</time>
      </trkpt>
      <trkpt lat="45.61823" lon="6.66059">
        <ele>2368.7563</ele>
        <time>2014-03-02T13:31:28Z</time>
      </trkpt>
      <trkpt lat="45.61823" lon="6.66059">
        <ele>2368.7563</ele>
        <time>2014-03-02T13:31:40Z</time>
      </trkpt>
      <trkpt lat="45.61823" lon="6.66059">
        <ele>2368.7563</ele>
        <time>2014-03-02T13:31:49Z</time>
      </trkpt>
      <trkpt lat="45.61823" lon="6.66059">
        <ele>2368.7563</ele>
        <time>2014-03-02T13:31:52Z</time>
      </trkpt>
      <trkpt lat="45.61823" lon="6.66059">
        <ele>2368.7563</ele>
        <time>2014-03-02T13:31:59Z</time>
      </trkpt>
      <trkpt lat="45.61823" lon="6.66059">
        <ele>2368.7563</ele>
        <time>2014-03-02T13:32:03Z</time>
      </trkpt>
      <trkpt lat="45.61823" lon="6.66059">
        <ele>2368.7563</ele>
        <time>2014-03-02T13:32:08Z</time>
      </trkpt>
      <trkpt lat="45.61822" lon="6.66059">
        <ele>2368.7563</ele>
        <time>2014-03-02T13:32:20Z</time>
      </trkpt>
      <trkpt lat="45.61822" lon="6.6606">
        <ele>2368.7563</ele>
        <time>2014-03-02T13:32:30Z</time>
      </trkpt>
      <trkpt lat="45.61821" lon="6.6606">
        <ele>2368.7563</ele>
        <time>2014-03-02T13:32:41Z</time>
      </trkpt>
      <trkpt lat="45.61822" lon="6.6606">
        <ele>2368.7563</ele>
        <time>2014-03-02T13:32:49Z</time>
      </trkpt>
      <trkpt lat="45.61822" lon="6.6606">
        <ele>2368.7563</ele>
        <time>2014-03-02T13:33:00Z</time>
      </trkpt>
      <trkpt lat="45.61822" lon="6.6606">
        <ele>2368.7563</ele>
        <time>2014-03-02T13:33:02Z</time>
      </trkpt>
      <trkpt lat="45.61822" lon="6.6606">
        <ele>2368.7563</ele>
        <time>2014-03-02T13:33:13Z</time>
      </trkpt>
      <trkpt lat="45.61821" lon="6.66061">
        <ele>2368.7563</ele>
        <time>2014-03-02T13:33:26Z</time>
      </trkpt>
      <trkpt lat="45.61821" lon="6.66061">
        <ele>2368.7563</ele>
        <time>2014-03-02T13:33:26Z</time>
      </trkpt>
      <trkpt lat="45.61821" lon="6.66061">
        <ele>2368.7563</ele>
        <time>2014-03-02T13:33:39Z</time>
      </trkpt>
      <trkpt lat="45.61821" lon="6.66061">
        <ele>2368.7563</ele>
        <time>2014-03-02T13:33:43Z</time>
      </trkpt>
      <trkpt lat="45.61821" lon="6.6606">
        <ele>2368.7563</ele>
        <time>2014-03-02T13:33:49Z</time>
      </trkpt>
      <trkpt lat="45.6182" lon="6.66062">
        <ele>2368.7563</ele>
        <time>2014-03-02T13:34:00Z</time>
      </trkpt>
      <trkpt lat="45.6182" lon="6.66062">
        <ele>2368.7563</ele>
        <time>2014-03-02T13:34:02Z</time>
      </trkpt>
      <trkpt lat="45.6182" lon="6.66062">
        <ele>2368.7563</ele>
        <time>2014-03-02T13:34:10Z</time>
      </trkpt>
      <trkpt lat="45.61694" lon="6.66042">
        <ele>2362.6274</ele>
        <time>2014-03-02T13:34:51Z</time>
      </trkpt>
      <trkpt lat="45.61684" lon="6.66049">
        <ele>2356.8416</ele>
        <time>2014-03-02T13:35:00Z</time>
      </trkpt>
      <trkpt lat="45.61664" lon="6.66052">
        <ele>2350.955</ele>
        <time>2014-03-02T13:35:02Z</time>
      </trkpt>
      <trkpt lat="45.61663" lon="6.66049">
        <ele>2350.955</ele>
        <time>2014-03-02T13:35:09Z</time>
      </trkpt>
      <trkpt lat="45.61661" lon="6.66052">
        <ele>2350.955</ele>
        <time>2014-03-02T13:35:21Z</time>
      </trkpt>
      <trkpt lat="45.61662" lon="6.66053">
        <ele>2350.955</ele>
        <time>2014-03-02T13:35:21Z</time>
      </trkpt>
      <trkpt lat="45.61661" lon="6.66053">
        <ele>2350.955</ele>
        <time>2014-03-02T13:35:31Z</time>
      </trkpt>
      <trkpt lat="45.6166" lon="6.66055">
        <ele>2350.955</ele>
        <time>2014-03-02T13:35:37Z</time>
      </trkpt>
      <trkpt lat="45.6166" lon="6.66055">
        <ele>2350.955</ele>
        <time>2014-03-02T13:35:43Z</time>
      </trkpt>
      <trkpt lat="45.6166" lon="6.66055">
        <ele>2350.955</ele>
        <time>2014-03-02T13:35:47Z</time>
      </trkpt>
      <trkpt lat="45.6166" lon="6.66054">
        <ele>2350.955</ele>
        <time>2014-03-02T13:35:53Z</time>
      </trkpt>
      <trkpt lat="45.6166" lon="6.66054">
        <ele>2350.955</ele>
        <time>2014-03-02T13:35:58Z</time>
      </trkpt>
      <trkpt lat="45.61659" lon="6.66054">
        <ele>2350.955</ele>
        <time>2014-03-02T13:36:02Z</time>
      </trkpt>
      <trkpt lat="45.61647" lon="6.66064">
        <ele>2344.413</ele>
        <time>2014-03-02T13:36:12Z</time>
      </trkpt>
      <trkpt lat="45.61639" lon="6.66058">
        <ele>2338.201</ele>
        <time>2014-03-02T13:36:17Z</time>
      </trkpt>
      <trkpt lat="45.6163" lon="6.66057">
        <ele>2338.201</ele>
        <time>2014-03-02T13:36:29Z</time>
      </trkpt>
      <trkpt lat="45.6163" lon="6.66055">
        <ele>2331.9626</ele>
        <time>2014-03-02T13:36:32Z</time>
      </trkpt>
      <trkpt lat="45.6163" lon="6.66055">
        <ele>2331.9626</ele>
        <time>2014-03-02T13:36:40Z</time>
      </trkpt>
      <trkpt lat="45.6163" lon="6.66055">
        <ele>2331.9626</ele>
        <time>2014-03-02T13:36:51Z</time>
      </trkpt>
      <trkpt lat="45.61621" lon="6.66052">
        <ele>2325.583</ele>
        <time>2014-03-02T13:36:58Z</time>
      </trkpt>
      <trkpt lat="45.61617" lon="6.66052">
        <ele>2325.583</ele>
        <time>2014-03-02T13:37:03Z</time>
      </trkpt>
      <trkpt lat="45.61614" lon="6.66049">
        <ele>2325.583</ele>
        <time>2014-03-02T13:37:06Z</time>
      </trkpt>
      <trkpt lat="45.61608" lon="6.66049">
        <ele>2319.2014</ele>
        <time>2014-03-02T13:37:15Z</time>
      </trkpt>
      <trkpt lat="45.61603" lon="6.66061">
        <ele>2319.2014</ele>
        <time>2014-03-02T13:37:25Z</time>
      </trkpt>
      <trkpt lat="45.61602" lon="6.66061">
        <ele>2313.1614</ele>
        <time>2014-03-02T13:37:34Z</time>
      </trkpt>
      <trkpt lat="45.61602" lon="6.66061">
        <ele>2313.1614</ele>
        <time>2014-03-02T13:37:45Z</time>
      </trkpt>
      <trkpt lat="45.61602" lon="6.66061">
        <ele>2313.1614</ele>
        <time>2014-03-02T13:38:05Z</time>
      </trkpt>
      <trkpt lat="45.61602" lon="6.66062">
        <ele>2313.1614</ele>
        <time>2014-03-02T13:38:13Z</time>
      </trkpt>
      <trkpt lat="45.61589" lon="6.66046">
        <ele>2307.4634</ele>
        <time>2014-03-02T13:38:26Z</time>
      </trkpt>
      <trkpt lat="45.61589" lon="6.66046">
        <ele>2307.4634</ele>
        <time>2014-03-02T13:38:35Z</time>
      </trkpt>
      <trkpt lat="45.61589" lon="6.66044">
        <ele>2307.4634</ele>
        <time>2014-03-02T13:38:42Z</time>
      </trkpt>
      <trkpt lat="45.61588" lon="6.66044">
        <ele>2307.4634</ele>
        <time>2014-03-02T13:38:49Z</time>
      </trkpt>
      <trkpt lat="45.61588" lon="6.66043">
        <ele>2307.4634</ele>
        <time>2014-03-02T13:38:51Z</time>
      </trkpt>
      <trkpt lat="45.61587" lon="6.66036">
        <ele>2307.4634</ele>
        <time>2014-03-02T13:38:59Z</time>
      </trkpt>
      <trkpt lat="45.61589" lon="6.66019">
        <ele>2301.818</ele>
        <time>2014-03-02T13:39:02Z</time>
      </trkpt>
      <trkpt lat="45.61573" lon="6.66036">
        <ele>2296.0574</ele>
        <time>2014-03-02T13:39:19Z</time>
      </trkpt>
      <trkpt lat="45.61567" lon="6.66046">
        <ele>2290.8901</ele>
        <time>2014-03-02T13:39:30Z</time>
      </trkpt>
      <trkpt lat="45.61564" lon="6.66049">
        <ele>2290.8901</ele>
        <time>2014-03-02T13:39:36Z</time>
      </trkpt>
      <trkpt lat="45.61557" lon="6.66038">
        <ele>2286.0483</ele>
        <time>2014-03-02T13:39:41Z</time>
      </trkpt>
      <trkpt lat="45.61541" lon="6.66033">
        <ele>2281.1243</ele>
        <time>2014-03-02T13:40:05Z</time>
      </trkpt>
      <trkpt lat="45.61538" lon="6.66031">
        <ele>2281.1243</ele>
        <time>2014-03-02T13:40:07Z</time>
      </trkpt>
      <trkpt lat="45.61529" lon="6.66027">
        <ele>2276.3882</ele>
        <time>2014-03-02T13:40:14Z</time>
      </trkpt>
      <trkpt lat="45.61529" lon="6.66023">
        <ele>2276.3882</ele>
        <time>2014-03-02T13:40:23Z</time>
      </trkpt>
      <trkpt lat="45.61521" lon="6.66022">
        <ele>2271.974</ele>
        <time>2014-03-02T13:40:34Z</time>
      </trkpt>
      <trkpt lat="45.61485" lon="6.66025">
        <ele>2267.3708</ele>
        <time>2014-03-02T13:40:47Z</time>
      </trkpt>
      <trkpt lat="45.61485" lon="6.66022">
        <ele>2267.3708</ele>
        <time>2014-03-02T13:41:05Z</time>
      </trkpt>
      <trkpt lat="45.61484" lon="6.66022">
        <ele>2267.3708</ele>
        <time>2014-03-02T13:41:10Z</time>
      </trkpt>
      <trkpt lat="45.61483" lon="6.66021">
        <ele>2267.3708</ele>
        <time>2014-03-02T13:41:13Z</time>
      </trkpt>
      <trkpt lat="45.61482" lon="6.66022">
        <ele>2267.3708</ele>
        <time>2014-03-02T13:41:16Z</time>
      </trkpt>
      <trkpt lat="45.61481" lon="6.66022">
        <ele>2267.3708</ele>
        <time>2014-03-02T13:41:27Z</time>
      </trkpt>
      <trkpt lat="45.61466" lon="6.66031">
        <ele>2263.0415</ele>
        <time>2014-03-02T13:41:48Z</time>
      </trkpt>
      <trkpt lat="45.61461" lon="6.66033">
        <ele>2263.0415</ele>
        <time>2014-03-02T13:41:52Z</time>
      </trkpt>
      <trkpt lat="45.6145" lon="6.66027">
        <ele>2258.0024</ele>
        <time>2014-03-02T13:42:01Z</time>
      </trkpt>
      <trkpt lat="45.61448" lon="6.66023">
        <ele>2258.0024</ele>
        <time>2014-03-02T13:42:03Z</time>
      </trkpt>
      <trkpt lat="45.61438" lon="6.66028">
        <ele>2253.2595</ele>
        <time>2014-03-02T13:42:09Z</time>
      </trkpt>
      <trkpt lat="45.6143" lon="6.66011">
        <ele>2248.7646</ele>
        <time>2014-03-02T13:42:18Z</time>
      </trkpt>
      <trkpt lat="45.6143" lon="6.66015">
        <ele>2248.7646</ele>
        <time>2014-03-02T13:42:22Z</time>
      </trkpt>
      <trkpt lat="45.61429" lon="6.66016">
        <ele>2248.7646</ele>
        <time>2014-03-02T13:42:30Z</time>
      </trkpt>
      <trkpt lat="45.6141" lon="6.66006">
        <ele>2243.9668</ele>
        <time>2014-03-02T13:42:43Z</time>
      </trkpt>
      <trkpt lat="45.61411" lon="6.66002">
        <ele>2243.9668</ele>
        <time>2014-03-02T13:42:49Z</time>
      </trkpt>
      <trkpt lat="45.61411" lon="6.66002">
        <ele>2243.9668</ele>
        <time>2014-03-02T13:42:53Z</time>
      </trkpt>
      <trkpt lat="45.61409" lon="6.66">
        <ele>2243.9668</ele>
        <time>2014-03-02T13:42:59Z</time>
      </trkpt>
      <trkpt lat="45.61405" lon="6.65998">
        <ele>2239.2502</ele>
        <time>2014-03-02T13:43:10Z</time>
      </trkpt>
      <trkpt lat="45.61395" lon="6.65994">
        <ele>2234.6536</ele>
        <time>2014-03-02T13:43:12Z</time>
      </trkpt>
      <trkpt lat="45.6136" lon="6.65978">
        <ele>2229.7788</ele>
        <time>2014-03-02T13:43:25Z</time>
      </trkpt>
      <trkpt lat="45.61358" lon="6.65979">
        <ele>2229.7788</ele>
        <time>2014-03-02T13:43:26Z</time>
      </trkpt>
      <trkpt lat="45.6134" lon="6.65986">
        <ele>2225.4255</ele>
        <time>2014-03-02T13:43:37Z</time>
      </trkpt>
      <trkpt lat="45.61338" lon="6.65985">
        <ele>2225.4255</ele>
        <time>2014-03-02T13:43:44Z</time>
      </trkpt>
      <trkpt lat="45.61329" lon="6.65978">
        <ele>2221.0508</ele>
        <time>2014-03-02T13:43:56Z</time>
      </trkpt>
      <trkpt lat="45.61328" lon="6.65976">
        <ele>2221.0508</ele>
        <time>2014-03-02T13:44:04Z</time>
      </trkpt>
      <trkpt lat="45.61328" lon="6.65976">
        <ele>2221.0508</ele>
        <time>2014-03-02T13:44:13Z</time>
      </trkpt>
      <trkpt lat="45.61328" lon="6.65976">
        <ele>2221.0508</ele>
        <time>2014-03-02T13:44:28Z</time>
      </trkpt>
      <trkpt lat="45.61328" lon="6.65976">
        <ele>2221.0508</ele>
        <time>2014-03-02T13:44:28Z</time>
      </trkpt>
      <trkpt lat="45.61328" lon="6.65976">
        <ele>2221.0508</ele>
        <time>2014-03-02T13:44:35Z</time>
      </trkpt>
      <trkpt lat="45.61326" lon="6.65973">
        <ele>2221.0508</ele>
        <time>2014-03-02T13:44:44Z</time>
      </trkpt>
      <trkpt lat="45.61323" lon="6.65972">
        <ele>2221.0508</ele>
        <time>2014-03-02T13:44:47Z</time>
      </trkpt>
      <trkpt lat="45.61311" lon="6.6597">
        <ele>2216.7703</ele>
        <time>2014-03-02T13:45:00Z</time>
      </trkpt>
      <trkpt lat="45.6131" lon="6.6597">
        <ele>2216.7703</ele>
        <time>2014-03-02T13:45:02Z</time>
      </trkpt>
      <trkpt lat="45.61303" lon="6.65965">
        <ele>2216.7703</ele>
        <time>2014-03-02T13:45:15Z</time>
      </trkpt>
      <trkpt lat="45.61255" lon="6.65943">
        <ele>2211.3506</ele>
        <time>2014-03-02T13:45:25Z</time>
      </trkpt>
      <trkpt lat="45.61234" lon="6.65941">
        <ele>2206.362</ele>
        <time>2014-03-02T13:45:34Z</time>
      </trkpt>
      <trkpt lat="45.61212" lon="6.65953">
        <ele>2201.5996</ele>
        <time>2014-03-02T13:45:44Z</time>
      </trkpt>
      <trkpt lat="45.61212" lon="6.65955">
        <ele>2201.5996</ele>
        <time>2014-03-02T13:45:49Z</time>
      </trkpt>
      <trkpt lat="45.61213" lon="6.65953">
        <ele>2201.5996</ele>
        <time>2014-03-02T13:45:54Z</time>
      </trkpt>
      <trkpt lat="45.61213" lon="6.65953">
        <ele>2201.5996</ele>
        <time>2014-03-02T13:45:56Z</time>
      </trkpt>
      <trkpt lat="45.61213" lon="6.65953">
        <ele>2201.5996</ele>
        <time>2014-03-02T13:46:05Z</time>
      </trkpt>
      <trkpt lat="45.61204" lon="6.65959">
        <ele>2197.926</ele>
        <time>2014-03-02T13:46:26Z</time>
      </trkpt>
      <trkpt lat="45.6118" lon="6.65976">
        <ele>2193.0522</ele>
        <time>2014-03-02T13:46:42Z</time>
      </trkpt>
      <trkpt lat="45.61176" lon="6.65977">
        <ele>2193.0522</ele>
        <time>2014-03-02T13:46:53Z</time>
      </trkpt>
      <trkpt lat="45.61158" lon="6.65953">
        <ele>2187.7148</ele>
        <time>2014-03-02T13:46:58Z</time>
      </trkpt>
      <trkpt lat="45.6116" lon="6.65955">
        <ele>2187.7148</ele>
        <time>2014-03-02T13:47:03Z</time>
      </trkpt>
      <trkpt lat="45.61155" lon="6.65959">
        <ele>2187.7148</ele>
        <time>2014-03-02T13:47:06Z</time>
      </trkpt>
      <trkpt lat="45.61155" lon="6.65965">
        <ele>2182.554</ele>
        <time>2014-03-02T13:47:18Z</time>
      </trkpt>
      <trkpt lat="45.61153" lon="6.65966">
        <ele>2182.554</ele>
        <time>2014-03-02T13:47:44Z</time>
      </trkpt>
      <trkpt lat="45.61149" lon="6.65979">
        <ele>2177.8738</ele>
        <time>2014-03-02T13:48:04Z</time>
      </trkpt>
      <trkpt lat="45.61147" lon="6.65996">
        <ele>2173.609</ele>
        <time>2014-03-02T13:48:15Z</time>
      </trkpt>
      <trkpt lat="45.61149" lon="6.66007">
        <ele>2173.609</ele>
        <time>2014-03-02T13:48:16Z</time>
      </trkpt>
      <trkpt lat="45.61149" lon="6.66006">
        <ele>2173.609</ele>
        <time>2014-03-02T13:48:24Z</time>
      </trkpt>
      <trkpt lat="45.61127" lon="6.65989">
        <ele>2168.804</ele>
        <time>2014-03-02T13:48:30Z</time>
      </trkpt>
      <trkpt lat="45.61124" lon="6.65981">
        <ele>2168.804</ele>
        <time>2014-03-02T13:48:31Z</time>
      </trkpt>
      <trkpt lat="45.61125" lon="6.65983">
        <ele>2168.804</ele>
        <time>2014-03-02T13:48:39Z</time>
      </trkpt>
      <trkpt lat="45.61126" lon="6.65982">
        <ele>2168.804</ele>
        <time>2014-03-02T13:48:41Z</time>
      </trkpt>
      <trkpt lat="45.61125" lon="6.65982">
        <ele>2164.6218</ele>
        <time>2014-03-02T13:48:50Z</time>
      </trkpt>
      <trkpt lat="45.61112" lon="6.65977">
        <ele>2160.0627</ele>
        <time>2014-03-02T13:48:59Z</time>
      </trkpt>
      <trkpt lat="45.61108" lon="6.65971">
        <ele>2160.0627</ele>
        <time>2014-03-02T13:49:06Z</time>
      </trkpt>
      <trkpt lat="45.61108" lon="6.65971">
        <ele>2160.0627</ele>
        <time>2014-03-02T13:49:07Z</time>
      </trkpt>
      <trkpt lat="45.61108" lon="6.65971">
        <ele>2160.0627</ele>
        <time>2014-03-02T13:49:14Z</time>
      </trkpt>
      <trkpt lat="45.61107" lon="6.6597">
        <ele>2160.0627</ele>
        <time>2014-03-02T13:49:26Z</time>
      </trkpt>
      <trkpt lat="45.61105" lon="6.65973">
        <ele>2155.585</ele>
        <time>2014-03-02T13:49:33Z</time>
      </trkpt>
      <trkpt lat="45.61105" lon="6.65973">
        <ele>2155.585</ele>
        <time>2014-03-02T13:49:36Z</time>
      </trkpt>
      <trkpt lat="45.61087" lon="6.6599">
        <ele>2151.1658</ele>
        <time>2014-03-02T13:49:44Z</time>
      </trkpt>
      <trkpt lat="45.61054" lon="6.65989">
        <ele>2146.4675</ele>
        <time>2014-03-02T13:49:54Z</time>
      </trkpt>
      <trkpt lat="45.61022" lon="6.65938">
        <ele>2140.385</ele>
        <time>2014-03-02T13:50:06Z</time>
      </trkpt>
      <trkpt lat="45.61014" lon="6.65923">
        <ele>2134.2036</ele>
        <time>2014-03-02T13:50:17Z</time>
      </trkpt>
      <trkpt lat="45.61014" lon="6.6592">
        <ele>2134.2036</ele>
        <time>2014-03-02T13:51:06Z</time>
      </trkpt>
      <trkpt lat="45.61014" lon="6.6592">
        <ele>2134.2036</ele>
        <time>2014-03-02T13:51:07Z</time>
      </trkpt>
      <trkpt lat="45.61014" lon="6.65921">
        <ele>2134.2036</ele>
        <time>2014-03-02T13:51:15Z</time>
      </trkpt>
      <trkpt lat="45.61014" lon="6.65921">
        <ele>2134.2036</ele>
        <time>2014-03-02T13:51:19Z</time>
      </trkpt>
      <trkpt lat="45.61012" lon="6.65919">
        <ele>2134.2036</ele>
        <time>2014-03-02T13:51:24Z</time>
      </trkpt>
      <trkpt lat="45.61002" lon="6.65915">
        <ele>2127.6309</ele>
        <time>2014-03-02T13:51:35Z</time>
      </trkpt>
      <trkpt lat="45.61001" lon="6.65915">
        <ele>2127.6309</ele>
        <time>2014-03-02T13:51:36Z</time>
      </trkpt>
      <trkpt lat="45.60981" lon="6.65915">
        <ele>2121.0884</ele>
        <time>2014-03-02T13:51:42Z</time>
      </trkpt>
      <trkpt lat="45.60964" lon="6.659">
        <ele>2114.981</ele>
        <time>2014-03-02T13:51:47Z</time>
      </trkpt>
      <trkpt lat="45.6096" lon="6.65901">
        <ele>2114.981</ele>
        <time>2014-03-02T13:51:56Z</time>
      </trkpt>
      <trkpt lat="45.6096" lon="6.65901">
        <ele>2114.981</ele>
        <time>2014-03-02T13:51:56Z</time>
      </trkpt>
      <trkpt lat="45.6096" lon="6.65901">
        <ele>2114.981</ele>
        <time>2014-03-02T13:52:07Z</time>
      </trkpt>
      <trkpt lat="45.6096" lon="6.65901">
        <ele>2114.981</ele>
        <time>2014-03-02T13:52:26Z</time>
      </trkpt>
      <trkpt lat="45.6096" lon="6.65901">
        <ele>2114.981</ele>
        <time>2014-03-02T13:52:31Z</time>
      </trkpt>
      <trkpt lat="45.6096" lon="6.65901">
        <ele>2114.981</ele>
        <time>2014-03-02T13:52:38Z</time>
      </trkpt>
      <trkpt lat="45.6096" lon="6.65901">
        <ele>2114.981</ele>
        <time>2014-03-02T13:52:43Z</time>
      </trkpt>
      <trkpt lat="45.6096" lon="6.65901">
        <ele>2114.981</ele>
        <time>2014-03-02T13:52:48Z</time>
      </trkpt>
      <trkpt lat="45.6096" lon="6.65901">
        <ele>2114.981</ele>
        <time>2014-03-02T13:53:06Z</time>
      </trkpt>
      <trkpt lat="45.6096" lon="6.659">
        <ele>2114.981</ele>
        <time>2014-03-02T13:53:13Z</time>
      </trkpt>
      <trkpt lat="45.60958" lon="6.65902">
        <ele>2114.981</ele>
        <time>2014-03-02T13:53:24Z</time>
      </trkpt>
      <trkpt lat="45.60958" lon="6.65902">
        <ele>2114.981</ele>
        <time>2014-03-02T13:53:28Z</time>
      </trkpt>
      <trkpt lat="45.60958" lon="6.65902">
        <ele>2114.981</ele>
        <time>2014-03-02T13:53:40Z</time>
      </trkpt>
      <trkpt lat="45.60958" lon="6.65902">
        <ele>2114.981</ele>
        <time>2014-03-02T13:53:50Z</time>
      </trkpt>
      <trkpt lat="45.60958" lon="6.65902">
        <ele>2114.981</ele>
        <time>2014-03-02T13:53:52Z</time>
      </trkpt>
      <trkpt lat="45.60957" lon="6.65902">
        <ele>2114.981</ele>
        <time>2014-03-02T13:54:03Z</time>
      </trkpt>
      <trkpt lat="45.60955" lon="6.65903">
        <ele>2109.7253</ele>
        <time>2014-03-02T13:54:03Z</time>
      </trkpt>
      <trkpt lat="45.60943" lon="6.65907">
        <ele>2104.7405</ele>
        <time>2014-03-02T13:54:09Z</time>
      </trkpt>
      <trkpt lat="45.60898" lon="6.65924">
        <ele>2099.0107</ele>
        <time>2014-03-02T13:54:19Z</time>
      </trkpt>
      <trkpt lat="45.60885" lon="6.65933">
        <ele>2093.9902</ele>
        <time>2014-03-02T13:54:30Z</time>
      </trkpt>
      <trkpt lat="45.60885" lon="6.65933">
        <ele>2093.9902</ele>
        <time>2014-03-02T13:54:43Z</time>
      </trkpt>
      <trkpt lat="45.60841" lon="6.65919">
        <ele>2087.6658</ele>
        <time>2014-03-02T13:55:09Z</time>
      </trkpt>
      <trkpt lat="45.60836" lon="6.65918">
        <ele>2087.6658</ele>
        <time>2014-03-02T13:55:09Z</time>
      </trkpt>
      <trkpt lat="45.60829" lon="6.65917">
        <ele>2081.9087</ele>
        <time>2014-03-02T13:55:13Z</time>
      </trkpt>
      <trkpt lat="45.60811" lon="6.65919">
        <ele>2076.7932</ele>
        <time>2014-03-02T13:55:26Z</time>
      </trkpt>
      <trkpt lat="45.60811" lon="6.65919">
        <ele>2076.7932</ele>
        <time>2014-03-02T13:55:37Z</time>
      </trkpt>
      <trkpt lat="45.60809" lon="6.65923">
        <ele>2076.7932</ele>
        <time>2014-03-02T13:56:05Z</time>
      </trkpt>
      <trkpt lat="45.60809" lon="6.65923">
        <ele>2076.7932</ele>
        <time>2014-03-02T13:56:13Z</time>
      </trkpt>
      <trkpt lat="45.60809" lon="6.65923">
        <ele>2076.7932</ele>
        <time>2014-03-02T13:56:19Z</time>
      </trkpt>
      <trkpt lat="45.60809" lon="6.65923">
        <ele>2076.7932</ele>
        <time>2014-03-02T13:56:28Z</time>
      </trkpt>
      <trkpt lat="45.60809" lon="6.65923">
        <ele>2076.7932</ele>
        <time>2014-03-02T13:56:40Z</time>
      </trkpt>
      <trkpt lat="45.60809" lon="6.65923">
        <ele>2076.7932</ele>
        <time>2014-03-02T13:56:50Z</time>
      </trkpt>
      <trkpt lat="45.60809" lon="6.65923">
        <ele>2076.7932</ele>
        <time>2014-03-02T13:56:51Z</time>
      </trkpt>
      <trkpt lat="45.60809" lon="6.65923">
        <ele>2076.7932</ele>
        <time>2014-03-02T13:57:00Z</time>
      </trkpt>
      <trkpt lat="45.60809" lon="6.65923">
        <ele>2076.7932</ele>
        <time>2014-03-02T13:57:02Z</time>
      </trkpt>
      <trkpt lat="45.60809" lon="6.65923">
        <ele>2076.7932</ele>
        <time>2014-03-02T13:57:08Z</time>
      </trkpt>
      <trkpt lat="45.60809" lon="6.65924">
        <ele>2076.7932</ele>
        <time>2014-03-02T13:57:19Z</time>
      </trkpt>
      <trkpt lat="45.60785" lon="6.65922">
        <ele>2071.4648</ele>
        <time>2014-03-02T13:57:28Z</time>
      </trkpt>
      <trkpt lat="45.60757" lon="6.65924">
        <ele>2065.6794</ele>
        <time>2014-03-02T13:57:32Z</time>
      </trkpt>
      <trkpt lat="45.60723" lon="6.65935">
        <ele>2059.5005</ele>
        <time>2014-03-02T13:57:43Z</time>
      </trkpt>
      <trkpt lat="45.60673" lon="6.65946">
        <ele>2052.354</ele>
        <time>2014-03-02T13:58:09Z</time>
      </trkpt>
      <trkpt lat="45.60672" lon="6.65946">
        <ele>2052.354</ele>
        <time>2014-03-02T13:58:41Z</time>
      </trkpt>
      <trkpt lat="45.60672" lon="6.65946">
        <ele>2052.354</ele>
        <time>2014-03-02T13:58:50Z</time>
      </trkpt>
      <trkpt lat="45.60672" lon="6.65946">
        <ele>2052.354</ele>
        <time>2014-03-02T13:59:01Z</time>
      </trkpt>
      <trkpt lat="45.60672" lon="6.65946">
        <ele>2052.354</ele>
        <time>2014-03-02T13:59:01Z</time>
      </trkpt>
      <trkpt lat="45.60672" lon="6.65946">
        <ele>2052.354</ele>
        <time>2014-03-02T13:59:27Z</time>
      </trkpt>
      <trkpt lat="45.60672" lon="6.65946">
        <ele>2052.354</ele>
        <time>2014-03-02T13:59:32Z</time>
      </trkpt>
      <trkpt lat="45.60672" lon="6.65946">
        <ele>2052.354</ele>
        <time>2014-03-02T13:59:45Z</time>
      </trkpt>
      <trkpt lat="45.60672" lon="6.65946">
        <ele>2052.354</ele>
        <time>2014-03-02T13:59:57Z</time>
      </trkpt>
      <trkpt lat="45.6067" lon="6.65949">
        <ele>2052.354</ele>
        <time>2014-03-02T14:00:36Z</time>
      </trkpt>
      <trkpt lat="45.6067" lon="6.65949">
        <ele>2052.354</ele>
        <time>2014-03-02T14:00:56Z</time>
      </trkpt>
      <trkpt lat="45.6067" lon="6.65949">
        <ele>2052.354</ele>
        <time>2014-03-02T14:01:06Z</time>
      </trkpt>
      <trkpt lat="45.60663" lon="6.65951">
        <ele>2045.5548</ele>
        <time>2014-03-02T14:01:17Z</time>
      </trkpt>
      <trkpt lat="45.60619" lon="6.65921">
        <ele>2038.0726</ele>
        <time>2014-03-02T14:01:29Z</time>
      </trkpt>
      <trkpt lat="45.60596" lon="6.65885">
        <ele>2030.3379</ele>
        <time>2014-03-02T14:01:34Z</time>
      </trkpt>
      <trkpt lat="45.60593" lon="6.65879">
        <ele>2030.3379</ele>
        <time>2014-03-02T14:01:37Z</time>
      </trkpt>
      <trkpt lat="45.60574" lon="6.65848">
        <ele>2022.0729</ele>
        <time>2014-03-02T14:01:43Z</time>
      </trkpt>
      <trkpt lat="45.60565" lon="6.65836">
        <ele>2014.1312</ele>
        <time>2014-03-02T14:01:48Z</time>
      </trkpt>
      <trkpt lat="45.60562" lon="6.65822">
        <ele>2006.3949</ele>
        <time>2014-03-02T14:01:56Z</time>
      </trkpt>
      <trkpt lat="45.60563" lon="6.65821">
        <ele>2006.3949</ele>
        <time>2014-03-02T14:01:56Z</time>
      </trkpt>
      <trkpt lat="45.60563" lon="6.6582">
        <ele>2006.3949</ele>
        <time>2014-03-02T14:02:03Z</time>
      </trkpt>
      <trkpt lat="45.60563" lon="6.6582">
        <ele>2006.3949</ele>
        <time>2014-03-02T14:02:08Z</time>
      </trkpt>
      <trkpt lat="45.60563" lon="6.6582">
        <ele>2006.3949</ele>
        <time>2014-03-02T14:02:13Z</time>
      </trkpt>
      <trkpt lat="45.60563" lon="6.6582">
        <ele>2006.3949</ele>
        <time>2014-03-02T14:02:32Z</time>
      </trkpt>
      <trkpt lat="45.60563" lon="6.6582">
        <ele>2006.3949</ele>
        <time>2014-03-02T14:02:41Z</time>
      </trkpt>
      <trkpt lat="45.60563" lon="6.6582">
        <ele>2006.3949</ele>
        <time>2014-03-02T14:02:52Z</time>
      </trkpt>
      <trkpt lat="45.60564" lon="6.65818">
        <ele>2006.3949</ele>
        <time>2014-03-02T14:02:58Z</time>
      </trkpt>
      <trkpt lat="45.60559" lon="6.65798">
        <ele>1998.4082</ele>
        <time>2014-03-02T14:03:03Z</time>
      </trkpt>
      <trkpt lat="45.60541" lon="6.65766">
        <ele>1990.6428</ele>
        <time>2014-03-02T14:03:09Z</time>
      </trkpt>
      <trkpt lat="45.60512" lon="6.65731">
        <ele>1981.6904</ele>
        <time>2014-03-02T14:03:16Z</time>
      </trkpt>
      <trkpt lat="45.60509" lon="6.65666">
        <ele>1971.9786</ele>
        <time>2014-03-02T14:03:26Z</time>
      </trkpt>
      <trkpt lat="45.60503" lon="6.65659">
        <ele>1971.9786</ele>
        <time>2014-03-02T14:03:26Z</time>
      </trkpt>
      <trkpt lat="45.60475" lon="6.65645">
        <ele>1963.2893</ele>
        <time>2014-03-02T14:03:35Z</time>
      </trkpt>
      <trkpt lat="45.60474" lon="6.65645">
        <ele>1963.2893</ele>
        <time>2014-03-02T14:03:37Z</time>
      </trkpt>
      <trkpt lat="45.60457" lon="6.65652">
        <ele>1955.1083</ele>
        <time>2014-03-02T14:03:43Z</time>
      </trkpt>
      <trkpt lat="45.60454" lon="6.65652">
        <ele>1955.1083</ele>
        <time>2014-03-02T14:03:49Z</time>
      </trkpt>
      <trkpt lat="45.60458" lon="6.65649">
        <ele>1955.1083</ele>
        <time>2014-03-02T14:04:02Z</time>
      </trkpt>
      <trkpt lat="45.60458" lon="6.65649">
        <ele>1955.1083</ele>
        <time>2014-03-02T14:04:06Z</time>
      </trkpt>
      <trkpt lat="45.60458" lon="6.65649">
        <ele>1955.1083</ele>
        <time>2014-03-02T14:04:11Z</time>
      </trkpt>
      <trkpt lat="45.60458" lon="6.65649">
        <ele>1955.1083</ele>
        <time>2014-03-02T14:04:16Z</time>
      </trkpt>
      <trkpt lat="45.60458" lon="6.65649">
        <ele>1955.1083</ele>
        <time>2014-03-02T14:04:21Z</time>
      </trkpt>
      <trkpt lat="45.60458" lon="6.65649">
        <ele>1955.1083</ele>
        <time>2014-03-02T14:04:26Z</time>
      </trkpt>
      <trkpt lat="45.60458" lon="6.65649">
        <ele>1955.1083</ele>
        <time>2014-03-02T14:04:31Z</time>
      </trkpt>
      <trkpt lat="45.60458" lon="6.65649">
        <ele>1955.1083</ele>
        <time>2014-03-02T14:04:36Z</time>
      </trkpt>
      <trkpt lat="45.60457" lon="6.65648">
        <ele>1955.1083</ele>
        <time>2014-03-02T14:04:41Z</time>
      </trkpt>
      <trkpt lat="45.60457" lon="6.65647">
        <ele>1955.1083</ele>
        <time>2014-03-02T14:04:46Z</time>
      </trkpt>
      <trkpt lat="45.60456" lon="6.65649">
        <ele>1946.396</ele>
        <time>2014-03-02T14:04:53Z</time>
      </trkpt>
      <trkpt lat="45.60456" lon="6.65646">
        <ele>1946.396</ele>
        <time>2014-03-02T14:05:00Z</time>
      </trkpt>
      <trkpt lat="45.60457" lon="6.65646">
        <ele>1946.396</ele>
        <time>2014-03-02T14:05:02Z</time>
      </trkpt>
      <trkpt lat="45.60457" lon="6.65646">
        <ele>1946.396</ele>
        <time>2014-03-02T14:05:07Z</time>
      </trkpt>
      <trkpt lat="45.60457" lon="6.65646">
        <ele>1946.396</ele>
        <time>2014-03-02T14:05:12Z</time>
      </trkpt>
      <trkpt lat="45.60457" lon="6.65646">
        <ele>1946.396</ele>
        <time>2014-03-02T14:05:19Z</time>
      </trkpt>
      <trkpt lat="45.60457" lon="6.65646">
        <ele>1946.396</ele>
        <time>2014-03-02T14:05:23Z</time>
      </trkpt>
      <trkpt lat="45.60457" lon="6.65646">
        <ele>1946.396</ele>
        <time>2014-03-02T14:05:36Z</time>
      </trkpt>
      <trkpt lat="45.60457" lon="6.65645">
        <ele>1946.396</ele>
        <time>2014-03-02T14:05:36Z</time>
      </trkpt>
      <trkpt lat="45.60457" lon="6.65643">
        <ele>1946.396</ele>
        <time>2014-03-02T14:05:51Z</time>
      </trkpt>
      <trkpt lat="45.6045" lon="6.65622">
        <ele>1937.3286</ele>
        <time>2014-03-02T14:05:56Z</time>
      </trkpt>
      <trkpt lat="45.60451" lon="6.65621">
        <ele>1937.3286</ele>
        <time>2014-03-02T14:06:04Z</time>
      </trkpt>
      <trkpt lat="45.60452" lon="6.65621">
        <ele>1937.3286</ele>
        <time>2014-03-02T14:06:10Z</time>
      </trkpt>
      <trkpt lat="45.60452" lon="6.65622">
        <ele>1937.3286</ele>
        <time>2014-03-02T14:06:20Z</time>
      </trkpt>
      <trkpt lat="45.60452" lon="6.65621">
        <ele>1937.3286</ele>
        <time>2014-03-02T14:06:41Z</time>
      </trkpt>
      <trkpt lat="45.60427" lon="6.65602">
        <ele>1925.2604</ele>
        <time>2014-03-02T14:06:58Z</time>
      </trkpt>
      <trkpt lat="45.60427" lon="6.65602">
        <ele>1925.2604</ele>
        <time>2014-03-02T14:07:03Z</time>
      </trkpt>
      <trkpt lat="45.60426" lon="6.656">
        <ele>1925.2604</ele>
        <time>2014-03-02T14:07:08Z</time>
      </trkpt>
      <trkpt lat="45.60426" lon="6.65602">
        <ele>1925.2604</ele>
        <time>2014-03-02T14:07:14Z</time>
      </trkpt>
      <trkpt lat="45.60426" lon="6.65602">
        <ele>1925.2604</ele>
        <time>2014-03-02T14:07:22Z</time>
      </trkpt>
      <trkpt lat="45.60426" lon="6.65602">
        <ele>1925.2604</ele>
        <time>2014-03-02T14:07:29Z</time>
      </trkpt>
      <trkpt lat="45.60422" lon="6.65598">
        <ele>1914.5498</ele>
        <time>2014-03-02T14:07:43Z</time>
      </trkpt>
      <trkpt lat="45.60422" lon="6.65598">
        <ele>1914.5498</ele>
        <time>2014-03-02T14:07:48Z</time>
      </trkpt>
      <trkpt lat="45.60422" lon="6.65598">
        <ele>1914.5498</ele>
        <time>2014-03-02T14:07:54Z</time>
      </trkpt>
      <trkpt lat="45.60422" lon="6.65598">
        <ele>1914.5498</ele>
        <time>2014-03-02T14:07:57Z</time>
      </trkpt>
      <trkpt lat="45.60422" lon="6.65598">
        <ele>1914.5498</ele>
        <time>2014-03-02T14:08:08Z</time>
      </trkpt>
      <trkpt lat="45.6041" lon="6.65571">
        <ele>1904.346</ele>
        <time>2014-03-02T14:08:19Z</time>
      </trkpt>
      <trkpt lat="45.60396" lon="6.65567">
        <ele>1894.637</ele>
        <time>2014-03-02T14:08:22Z</time>
      </trkpt>
      <trkpt lat="45.60397" lon="6.65556">
        <ele>1894.637</ele>
        <time>2014-03-02T14:08:28Z</time>
      </trkpt>
      <trkpt lat="45.60396" lon="6.65556">
        <ele>1894.637</ele>
        <time>2014-03-02T14:08:33Z</time>
      </trkpt>
      <trkpt lat="45.60394" lon="6.65556">
        <ele>1886.1306</ele>
        <time>2014-03-02T14:08:38Z</time>
      </trkpt>
      <trkpt lat="45.60394" lon="6.65556">
        <ele>1886.1306</ele>
        <time>2014-03-02T14:08:43Z</time>
      </trkpt>
      <trkpt lat="45.60394" lon="6.65555">
        <ele>1886.1306</ele>
        <time>2014-03-02T14:08:53Z</time>
      </trkpt>
      <trkpt lat="45.60394" lon="6.65554">
        <ele>1886.1306</ele>
        <time>2014-03-02T14:08:59Z</time>
      </trkpt>
      <trkpt lat="45.60394" lon="6.65553">
        <ele>1886.1306</ele>
        <time>2014-03-02T14:09:03Z</time>
      </trkpt>
      <trkpt lat="45.60394" lon="6.65553">
        <ele>1886.1306</ele>
        <time>2014-03-02T14:09:25Z</time>
      </trkpt>
      <trkpt lat="45.60394" lon="6.65553">
        <ele>1886.1306</ele>
        <time>2014-03-02T14:09:45Z</time>
      </trkpt>
      <trkpt lat="45.60394" lon="6.65553">
        <ele>1886.1306</ele>
        <time>2014-03-02T14:09:58Z</time>
      </trkpt>
      <trkpt lat="45.60394" lon="6.65553">
        <ele>1886.1306</ele>
        <time>2014-03-02T14:10:04Z</time>
      </trkpt>
      <trkpt lat="45.60394" lon="6.65553">
        <ele>1886.1306</ele>
        <time>2014-03-02T14:10:16Z</time>
      </trkpt>
      <trkpt lat="45.60394" lon="6.65553">
        <ele>1886.1306</ele>
        <time>2014-03-02T14:10:32Z</time>
      </trkpt>
      <trkpt lat="45.60394" lon="6.65553">
        <ele>1886.1306</ele>
        <time>2014-03-02T14:10:41Z</time>
      </trkpt>
      <trkpt lat="45.60394" lon="6.65553">
        <ele>1886.1306</ele>
        <time>2014-03-02T14:10:49Z</time>
      </trkpt>
      <trkpt lat="45.60394" lon="6.65553">
        <ele>1886.1306</ele>
        <time>2014-03-02T14:10:52Z</time>
      </trkpt>
      <trkpt lat="45.60394" lon="6.65553">
        <ele>1886.1306</ele>
        <time>2014-03-02T14:11:00Z</time>
      </trkpt>
      <trkpt lat="45.60394" lon="6.65553">
        <ele>1886.1306</ele>
        <time>2014-03-02T14:11:01Z</time>
      </trkpt>
      <trkpt lat="45.60394" lon="6.65553">
        <ele>1886.1306</ele>
        <time>2014-03-02T14:11:08Z</time>
      </trkpt>
      <trkpt lat="45.60394" lon="6.65552">
        <ele>1886.1306</ele>
        <time>2014-03-02T14:11:18Z</time>
      </trkpt>
      <trkpt lat="45.60394" lon="6.65552">
        <ele>1886.1306</ele>
        <time>2014-03-02T14:11:24Z</time>
      </trkpt>
      <trkpt lat="45.60394" lon="6.65552">
        <ele>1886.1306</ele>
        <time>2014-03-02T14:11:28Z</time>
      </trkpt>
      <trkpt lat="45.60394" lon="6.65552">
        <ele>1886.1306</ele>
        <time>2014-03-02T14:11:42Z</time>
      </trkpt>
      <trkpt lat="45.60394" lon="6.65552">
        <ele>1886.1306</ele>
        <time>2014-03-02T14:11:49Z</time>
      </trkpt>
      <trkpt lat="45.60394" lon="6.65552">
        <ele>1886.1306</ele>
        <time>2014-03-02T14:11:59Z</time>
      </trkpt>
      <trkpt lat="45.60394" lon="6.65552">
        <ele>1886.1306</ele>
        <time>2014-03-02T14:12:03Z</time>
      </trkpt>
      <trkpt lat="45.60394" lon="6.65552">
        <ele>1886.1306</ele>
        <time>2014-03-02T14:12:10Z</time>
      </trkpt>
      <trkpt lat="45.60394" lon="6.65552">
        <ele>1886.1306</ele>
        <time>2014-03-02T14:12:12Z</time>
      </trkpt>
      <trkpt lat="45.60394" lon="6.65552">
        <ele>1886.1306</ele>
        <time>2014-03-02T14:12:22Z</time>
      </trkpt>
      <trkpt lat="45.60394" lon="6.65552">
        <ele>1886.1306</ele>
        <time>2014-03-02T14:12:33Z</time>
      </trkpt>
      <trkpt lat="45.60394" lon="6.65552">
        <ele>1886.1306</ele>
        <time>2014-03-02T14:12:33Z</time>
      </trkpt>
      <trkpt lat="45.60394" lon="6.65552">
        <ele>1886.1306</ele>
        <time>2014-03-02T14:12:39Z</time>
      </trkpt>
      <trkpt lat="45.60366" lon="6.65515">
        <ele>1876.9716</ele>
        <time>2014-03-02T14:13:00Z</time>
      </trkpt>
      <trkpt lat="45.60354" lon="6.655">
        <ele>1868.6704</ele>
        <time>2014-03-02T14:13:01Z</time>
      </trkpt>
      <trkpt lat="45.60348" lon="6.65504">
        <ele>1868.6704</ele>
        <time>2014-03-02T14:13:09Z</time>
      </trkpt>
      <trkpt lat="45.6035" lon="6.65506">
        <ele>1868.6704</ele>
        <time>2014-03-02T14:13:24Z</time>
      </trkpt>
      <trkpt lat="45.6035" lon="6.65506">
        <ele>1868.6704</ele>
        <time>2014-03-02T14:13:36Z</time>
      </trkpt>
      <trkpt lat="45.60343" lon="6.65511">
        <ele>1860.1598</ele>
        <time>2014-03-02T14:14:02Z</time>
      </trkpt>
      <trkpt lat="45.60343" lon="6.65511">
        <ele>1860.1598</ele>
        <time>2014-03-02T14:14:12Z</time>
      </trkpt>
      <trkpt lat="45.60294" lon="6.65591">
        <ele>1850.9988</ele>
        <time>2014-03-02T14:14:49Z</time>
      </trkpt>
      <trkpt lat="45.60294" lon="6.65592">
        <ele>1850.9988</ele>
        <time>2014-03-02T14:15:06Z</time>
      </trkpt>
      <trkpt lat="45.60294" lon="6.65592">
        <ele>1850.9988</ele>
        <time>2014-03-02T14:15:18Z</time>
      </trkpt>
      <trkpt lat="45.60288" lon="6.65607">
        <ele>1843.2734</ele>
        <time>2014-03-02T14:15:50Z</time>
      </trkpt>
      <trkpt lat="45.60286" lon="6.6561">
        <ele>1843.2734</ele>
        <time>2014-03-02T14:15:51Z</time>
      </trkpt>
      <trkpt lat="45.60281" lon="6.65628">
        <ele>1835.6697</ele>
        <time>2014-03-02T14:15:57Z</time>
      </trkpt>
      <trkpt lat="45.60247" lon="6.65676">
        <ele>1829.4484</ele>
        <time>2014-03-02T14:16:08Z</time>
      </trkpt>
      <trkpt lat="45.60243" lon="6.65682">
        <ele>1829.4484</ele>
        <time>2014-03-02T14:16:08Z</time>
      </trkpt>
      <trkpt lat="45.60228" lon="6.6571">
        <ele>1823.6692</ele>
        <time>2014-03-02T14:16:18Z</time>
      </trkpt>
      <trkpt lat="45.60227" lon="6.65709">
        <ele>1823.6692</ele>
        <time>2014-03-02T14:16:24Z</time>
      </trkpt>
      <trkpt lat="45.60226" lon="6.65709">
        <ele>1823.6692</ele>
        <time>2014-03-02T14:16:39Z</time>
      </trkpt>
      <trkpt lat="45.60229" lon="6.65709">
        <ele>1823.6692</ele>
        <time>2014-03-02T14:16:45Z</time>
      </trkpt>
      <trkpt lat="45.60229" lon="6.65709">
        <ele>1823.6692</ele>
        <time>2014-03-02T14:16:47Z</time>
      </trkpt>
      <trkpt lat="45.60229" lon="6.65709">
        <ele>1823.6692</ele>
        <time>2014-03-02T14:16:54Z</time>
      </trkpt>
      <trkpt lat="45.60229" lon="6.65709">
        <ele>1823.6692</ele>
        <time>2014-03-02T14:16:57Z</time>
      </trkpt>
      <trkpt lat="45.60229" lon="6.65709">
        <ele>1823.6692</ele>
        <time>2014-03-02T14:17:04Z</time>
      </trkpt>
      <trkpt lat="45.60229" lon="6.65709">
        <ele>1823.6692</ele>
        <time>2014-03-02T14:17:08Z</time>
      </trkpt>
      <trkpt lat="45.60229" lon="6.65709">
        <ele>1823.6692</ele>
        <time>2014-03-02T14:17:13Z</time>
      </trkpt>
      <trkpt lat="45.60229" lon="6.65709">
        <ele>1823.6692</ele>
        <time>2014-03-02T14:17:23Z</time>
      </trkpt>
      <trkpt lat="45.60221" lon="6.65722">
        <ele>1815.6442</ele>
        <time>2014-03-02T14:17:48Z</time>
      </trkpt>
      <trkpt lat="45.60221" lon="6.65722">
        <ele>1815.6442</ele>
        <time>2014-03-02T14:17:51Z</time>
      </trkpt>
      <trkpt lat="45.60222" lon="6.65722">
        <ele>1815.6442</ele>
        <time>2014-03-02T14:17:58Z</time>
      </trkpt>
      <trkpt lat="45.60222" lon="6.65722">
        <ele>1815.6442</ele>
        <time>2014-03-02T14:18:02Z</time>
      </trkpt>
      <trkpt lat="45.60222" lon="6.65722">
        <ele>1815.6442</ele>
        <time>2014-03-02T14:18:12Z</time>
      </trkpt>
      <trkpt lat="45.60222" lon="6.65722">
        <ele>1815.6442</ele>
        <time>2014-03-02T14:18:28Z</time>
      </trkpt>
      <trkpt lat="45.60219" lon="6.65726">
        <ele>1815.6442</ele>
        <time>2014-03-02T14:18:53Z</time>
      </trkpt>
      <trkpt lat="45.60218" lon="6.65729">
        <ele>1815.6442</ele>
        <time>2014-03-02T14:18:56Z</time>
      </trkpt>
      <trkpt lat="45.60216" lon="6.65744">
        <ele>1808.2495</ele>
        <time>2014-03-02T14:19:01Z</time>
      </trkpt>
      <trkpt lat="45.60193" lon="6.65778">
        <ele>1800.2716</ele>
        <time>2014-03-02T14:19:12Z</time>
      </trkpt>
      <trkpt lat="45.60179" lon="6.65797">
        <ele>1792.5331</ele>
        <time>2014-03-02T14:19:19Z</time>
      </trkpt>
      <trkpt lat="45.60183" lon="6.65784">
        <ele>1785.4492</ele>
        <time>2014-03-02T14:19:28Z</time>
      </trkpt>
      <trkpt lat="45.60185" lon="6.65783">
        <ele>1785.4492</ele>
        <time>2014-03-02T14:19:34Z</time>
      </trkpt>
      <trkpt lat="45.60187" lon="6.65782">
        <ele>1785.4492</ele>
        <time>2014-03-02T14:19:45Z</time>
      </trkpt>
      <trkpt lat="45.60187" lon="6.65782">
        <ele>1785.4492</ele>
        <time>2014-03-02T14:19:46Z</time>
      </trkpt>
      <trkpt lat="45.60187" lon="6.65782">
        <ele>1785.4492</ele>
        <time>2014-03-02T14:19:56Z</time>
      </trkpt>
      <trkpt lat="45.60187" lon="6.65782">
        <ele>1785.4492</ele>
        <time>2014-03-02T14:20:07Z</time>
      </trkpt>
      <trkpt lat="45.60187" lon="6.65782">
        <ele>1785.4492</ele>
        <time>2014-03-02T14:20:55Z</time>
      </trkpt>
      <trkpt lat="45.60187" lon="6.65782">
        <ele>1785.4492</ele>
        <time>2014-03-02T14:20:56Z</time>
      </trkpt>
      <trkpt lat="45.60187" lon="6.65782">
        <ele>1785.4492</ele>
        <time>2014-03-02T14:21:02Z</time>
      </trkpt>
      <trkpt lat="45.6018" lon="6.65789">
        <ele>1778.7404</ele>
        <time>2014-03-02T14:21:06Z</time>
      </trkpt>
      <trkpt lat="45.60175" lon="6.65783">
        <ele>1778.7404</ele>
        <time>2014-03-02T14:21:14Z</time>
      </trkpt>
      <trkpt lat="45.60174" lon="6.65783">
        <ele>1778.7404</ele>
        <time>2014-03-02T14:21:17Z</time>
      </trkpt>
      <trkpt lat="45.60173" lon="6.65783">
        <ele>1778.7404</ele>
        <time>2014-03-02T14:21:27Z</time>
      </trkpt>
      <trkpt lat="45.60173" lon="6.65783">
        <ele>1778.7404</ele>
        <time>2014-03-02T14:21:38Z</time>
      </trkpt>
      <trkpt lat="45.60173" lon="6.65783">
        <ele>1778.7404</ele>
        <time>2014-03-02T14:21:44Z</time>
      </trkpt>
      <trkpt lat="45.60173" lon="6.65783">
        <ele>1773.0537</ele>
        <time>2014-03-02T14:21:49Z</time>
      </trkpt>
      <trkpt lat="45.60172" lon="6.65782">
        <ele>1773.0537</ele>
        <time>2014-03-02T14:21:51Z</time>
      </trkpt>
      <trkpt lat="45.60172" lon="6.65783">
        <ele>1773.0537</ele>
        <time>2014-03-02T14:22:00Z</time>
      </trkpt>
      <trkpt lat="45.60173" lon="6.65783">
        <ele>1773.0537</ele>
        <time>2014-03-02T14:22:07Z</time>
      </trkpt>
      <trkpt lat="45.60173" lon="6.65783">
        <ele>1773.0537</ele>
        <time>2014-03-02T14:22:13Z</time>
      </trkpt>
      <trkpt lat="45.60173" lon="6.65783">
        <ele>1773.0537</ele>
        <time>2014-03-02T14:22:19Z</time>
      </trkpt>
      <trkpt lat="45.60173" lon="6.65783">
        <ele>1773.0537</ele>
        <time>2014-03-02T14:22:23Z</time>
      </trkpt>
      <trkpt lat="45.6017" lon="6.65785">
        <ele>1773.0537</ele>
        <time>2014-03-02T14:22:36Z</time>
      </trkpt>
      <trkpt lat="45.6017" lon="6.65785">
        <ele>1773.0537</ele>
        <time>2014-03-02T14:22:44Z</time>
      </trkpt>
      <trkpt lat="45.60144" lon="6.65798">
        <ele>1767.4296</ele>
        <time>2014-03-02T14:22:56Z</time>
      </trkpt>
      <trkpt lat="45.60123" lon="6.65793">
        <ele>1762.2325</ele>
        <time>2014-03-02T14:23:04Z</time>
      </trkpt>
      <trkpt lat="45.60124" lon="6.65787">
        <ele>1762.2325</ele>
        <time>2014-03-02T14:23:27Z</time>
      </trkpt>
      <trkpt lat="45.60124" lon="6.65787">
        <ele>1762.2325</ele>
        <time>2014-03-02T14:23:33Z</time>
      </trkpt>
      <trkpt lat="45.60124" lon="6.65787">
        <ele>1762.2325</ele>
        <time>2014-03-02T14:23:37Z</time>
      </trkpt>
      <trkpt lat="45.60124" lon="6.65786">
        <ele>1762.2325</ele>
        <time>2014-03-02T14:23:44Z</time>
      </trkpt>
      <trkpt lat="45.60124" lon="6.65786">
        <ele>1762.2325</ele>
        <time>2014-03-02T14:24:06Z</time>
      </trkpt>
      <trkpt lat="45.60124" lon="6.65786">
        <ele>1762.2325</ele>
        <time>2014-03-02T14:24:16Z</time>
      </trkpt>
      <trkpt lat="45.60094" lon="6.65818">
        <ele>1754.6716</ele>
        <time>2014-03-02T14:25:06Z</time>
      </trkpt>
      <trkpt lat="45.60094" lon="6.65818">
        <ele>1754.6716</ele>
        <time>2014-03-02T14:25:13Z</time>
      </trkpt>
      <trkpt lat="45.60094" lon="6.65818">
        <ele>1754.6716</ele>
        <time>2014-03-02T14:25:26Z</time>
      </trkpt>
      <trkpt lat="45.60097" lon="6.65815">
        <ele>1754.6716</ele>
        <time>2014-03-02T14:25:38Z</time>
      </trkpt>
      <trkpt lat="45.60098" lon="6.65809">
        <ele>1754.6716</ele>
        <time>2014-03-02T14:26:01Z</time>
      </trkpt>
      <trkpt lat="45.60098" lon="6.65809">
        <ele>1754.6716</ele>
        <time>2014-03-02T14:26:01Z</time>
      </trkpt>
      <trkpt lat="45.60098" lon="6.65809">
        <ele>1754.6716</ele>
        <time>2014-03-02T14:26:11Z</time>
      </trkpt>
      <trkpt lat="45.60099" lon="6.65806">
        <ele>1748.9122</ele>
        <time>2014-03-02T14:26:19Z</time>
      </trkpt>
      <trkpt lat="45.60101" lon="6.65802">
        <ele>1748.9122</ele>
        <time>2014-03-02T14:26:40Z</time>
      </trkpt>
      <trkpt lat="45.60102" lon="6.65801">
        <ele>1748.9122</ele>
        <time>2014-03-02T14:26:42Z</time>
      </trkpt>
      <trkpt lat="45.60102" lon="6.658">
        <ele>1748.9122</ele>
        <time>2014-03-02T14:26:48Z</time>
      </trkpt>
      <trkpt lat="45.60102" lon="6.658">
        <ele>1748.9122</ele>
        <time>2014-03-02T14:26:54Z</time>
      </trkpt>
      <trkpt lat="45.60102" lon="6.658">
        <ele>1748.9122</ele>
        <time>2014-03-02T14:27:06Z</time>
      </trkpt>
      <trkpt lat="45.60102" lon="6.658">
        <ele>1748.9122</ele>
        <time>2014-03-02T14:27:20Z</time>
      </trkpt>
      <trkpt lat="45.60102" lon="6.658">
        <ele>1748.9122</ele>
        <time>2014-03-02T14:27:22Z</time>
      </trkpt>
      <trkpt lat="45.60102" lon="6.658">
        <ele>1748.9122</ele>
        <time>2014-03-02T14:27:31Z</time>
      </trkpt>
      <trkpt lat="45.60102" lon="6.65799">
        <ele>1748.9122</ele>
        <time>2014-03-02T14:27:32Z</time>
      </trkpt>
      <trkpt lat="45.60101" lon="6.65798">
        <ele>1748.9122</ele>
        <time>2014-03-02T14:27:40Z</time>
      </trkpt>
      <trkpt lat="45.60101" lon="6.65797">
        <ele>1748.9122</ele>
        <time>2014-03-02T14:27:52Z</time>
      </trkpt>
      <trkpt lat="45.60101" lon="6.65797">
        <ele>1748.9122</ele>
        <time>2014-03-02T14:28:00Z</time>
      </trkpt>
      <trkpt lat="45.60101" lon="6.65797">
        <ele>1748.9122</ele>
        <time>2014-03-02T14:28:01Z</time>
      </trkpt>
      <trkpt lat="45.60092" lon="6.65819">
        <ele>1743.1157</ele>
        <time>2014-03-02T14:28:30Z</time>
      </trkpt>
      <trkpt lat="45.60091" lon="6.65815">
        <ele>1743.1157</ele>
        <time>2014-03-02T14:28:41Z</time>
      </trkpt>
      <trkpt lat="45.60091" lon="6.65815">
        <ele>1743.1157</ele>
        <time>2014-03-02T14:28:56Z</time>
      </trkpt>
      <trkpt lat="45.60091" lon="6.65815">
        <ele>1743.1157</ele>
        <time>2014-03-02T14:29:05Z</time>
      </trkpt>
      <trkpt lat="45.60091" lon="6.65814">
        <ele>1743.1157</ele>
        <time>2014-03-02T14:29:23Z</time>
      </trkpt>
      <trkpt lat="45.60091" lon="6.65814">
        <ele>1743.1157</ele>
        <time>2014-03-02T14:29:34Z</time>
      </trkpt>
      <trkpt lat="45.60091" lon="6.65814">
        <ele>1743.1157</ele>
        <time>2014-03-02T14:29:45Z</time>
      </trkpt>
      <trkpt lat="45.60091" lon="6.65814">
        <ele>1743.1157</ele>
        <time>2014-03-02T14:30:05Z</time>
      </trkpt>
      <trkpt lat="45.60092" lon="6.65814">
        <ele>1743.1157</ele>
        <time>2014-03-02T14:30:17Z</time>
      </trkpt>
      <trkpt lat="45.60094" lon="6.65814">
        <ele>1743.1157</ele>
        <time>2014-03-02T14:30:56Z</time>
      </trkpt>
      <trkpt lat="45.60094" lon="6.65814">
        <ele>1743.1157</ele>
        <time>2014-03-02T14:31:04Z</time>
      </trkpt>
      <trkpt lat="45.60094" lon="6.65814">
        <ele>1743.1157</ele>
        <time>2014-03-02T14:31:07Z</time>
      </trkpt>
      <trkpt lat="45.60094" lon="6.65814">
        <ele>1743.1157</ele>
        <time>2014-03-02T14:31:21Z</time>
      </trkpt>
      <trkpt lat="45.60094" lon="6.65814">
        <ele>1743.1157</ele>
        <time>2014-03-02T14:31:31Z</time>
      </trkpt>
      <trkpt lat="45.60094" lon="6.65814">
        <ele>1743.1157</ele>
        <time>2014-03-02T14:31:42Z</time>
      </trkpt>
      <trkpt lat="45.60094" lon="6.65814">
        <ele>1743.1157</ele>
        <time>2014-03-02T14:31:58Z</time>
      </trkpt>
      <trkpt lat="45.60094" lon="6.65814">
        <ele>1743.1157</ele>
        <time>2014-03-02T14:32:03Z</time>
      </trkpt>
      <trkpt lat="45.60094" lon="6.65814">
        <ele>1743.1157</ele>
        <time>2014-03-02T14:32:08Z</time>
      </trkpt>
      <trkpt lat="45.60094" lon="6.65814">
        <ele>1743.1157</ele>
        <time>2014-03-02T14:32:11Z</time>
      </trkpt>
      <trkpt lat="45.60094" lon="6.65814">
        <ele>1743.1157</ele>
        <time>2014-03-02T14:32:22Z</time>
      </trkpt>
      <trkpt lat="45.60094" lon="6.65814">
        <ele>1743.1157</ele>
        <time>2014-03-02T14:32:50Z</time>
      </trkpt>
      <trkpt lat="45.60094" lon="6.65814">
        <ele>1743.1157</ele>
        <time>2014-03-02T14:32:58Z</time>
      </trkpt>
      <trkpt lat="45.60094" lon="6.65814">
        <ele>1743.1157</ele>
        <time>2014-03-02T14:33:02Z</time>
      </trkpt>
      <trkpt lat="45.60095" lon="6.65814">
        <ele>1743.1157</ele>
        <time>2014-03-02T14:33:22Z</time>
      </trkpt>
      <trkpt lat="45.60095" lon="6.65814">
        <ele>1743.1157</ele>
        <time>2014-03-02T14:33:30Z</time>
      </trkpt>
      <trkpt lat="45.60095" lon="6.65814">
        <ele>1743.1157</ele>
        <time>2014-03-02T14:33:32Z</time>
      </trkpt>
      <trkpt lat="45.60095" lon="6.65814">
        <ele>1743.1157</ele>
        <time>2014-03-02T14:33:40Z</time>
      </trkpt>
      <trkpt lat="45.60095" lon="6.65814">
        <ele>1743.1157</ele>
        <time>2014-03-02T14:33:50Z</time>
      </trkpt>
      <trkpt lat="45.60095" lon="6.65814">
        <ele>1743.1157</ele>
        <time>2014-03-02T14:33:59Z</time>
      </trkpt>
      <trkpt lat="45.60095" lon="6.65814">
        <ele>1743.1157</ele>
        <time>2014-03-02T14:34:02Z</time>
      </trkpt>
      <trkpt lat="45.60095" lon="6.65814">
        <ele>1743.1157</ele>
        <time>2014-03-02T14:34:18Z</time>
      </trkpt>
      <trkpt lat="45.60095" lon="6.65814">
        <ele>1743.1157</ele>
        <time>2014-03-02T14:34:34Z</time>
      </trkpt>
      <trkpt lat="45.60095" lon="6.65814">
        <ele>1743.1157</ele>
        <time>2014-03-02T14:34:39Z</time>
      </trkpt>
      <trkpt lat="45.60095" lon="6.65814">
        <ele>1743.1157</ele>
        <time>2014-03-02T14:34:43Z</time>
      </trkpt>
      <trkpt lat="45.60095" lon="6.65814">
        <ele>1743.1157</ele>
        <time>2014-03-02T14:34:48Z</time>
      </trkpt>
      <trkpt lat="45.60095" lon="6.65814">
        <ele>1743.1157</ele>
        <time>2014-03-02T14:35:00Z</time>
      </trkpt>
      <trkpt lat="45.60091" lon="6.65828">
        <ele>1738.2452</ele>
        <time>2014-03-02T14:35:03Z</time>
      </trkpt>
      <trkpt lat="45.60088" lon="6.65865">
        <ele>1733.3026</ele>
        <time>2014-03-02T14:35:07Z</time>
      </trkpt>
      <trkpt lat="45.6008" lon="6.65935">
        <ele>1727.8961</ele>
        <time>2014-03-02T14:35:48Z</time>
      </trkpt>
      <trkpt lat="45.60079" lon="6.65934">
        <ele>1727.8961</ele>
        <time>2014-03-02T14:35:55Z</time>
      </trkpt>
      <trkpt lat="45.60073" lon="6.6593">
        <ele>1727.8961</ele>
        <time>2014-03-02T14:36:04Z</time>
      </trkpt>
      <trkpt lat="45.60072" lon="6.6593">
        <ele>1727.8961</ele>
        <time>2014-03-02T14:36:07Z</time>
      </trkpt>
      <trkpt lat="45.60071" lon="6.65929">
        <ele>1722.4282</ele>
        <time>2014-03-02T14:36:21Z</time>
      </trkpt>
      <trkpt lat="45.60071" lon="6.65929">
        <ele>1722.4282</ele>
        <time>2014-03-02T14:36:31Z</time>
      </trkpt>
      <trkpt lat="45.60071" lon="6.65929">
        <ele>1722.4282</ele>
        <time>2014-03-02T14:36:45Z</time>
      </trkpt>
      <trkpt lat="45.60071" lon="6.65929">
        <ele>1722.4282</ele>
        <time>2014-03-02T14:36:49Z</time>
      </trkpt>
      <trkpt lat="45.60069" lon="6.65931">
        <ele>1722.4282</ele>
        <time>2014-03-02T14:37:03Z</time>
      </trkpt>
      <trkpt lat="45.60069" lon="6.65933">
        <ele>1722.4282</ele>
        <time>2014-03-02T14:37:08Z</time>
      </trkpt>
      <trkpt lat="45.60069" lon="6.65933">
        <ele>1722.4282</ele>
        <time>2014-03-02T14:37:16Z</time>
      </trkpt>
      <trkpt lat="45.60069" lon="6.65933">
        <ele>1722.4282</ele>
        <time>2014-03-02T14:37:46Z</time>
      </trkpt>
      <trkpt lat="45.60069" lon="6.65933">
        <ele>1722.4282</ele>
        <time>2014-03-02T14:38:06Z</time>
      </trkpt>
      <trkpt lat="45.60069" lon="6.65933">
        <ele>1722.4282</ele>
        <time>2014-03-02T14:38:17Z</time>
      </trkpt>
      <trkpt lat="45.60069" lon="6.65933">
        <ele>1722.4282</ele>
        <time>2014-03-02T14:38:24Z</time>
      </trkpt>
      <trkpt lat="45.60069" lon="6.65933">
        <ele>1722.4282</ele>
        <time>2014-03-02T14:38:29Z</time>
      </trkpt>
      <trkpt lat="45.60068" lon="6.65937">
        <ele>1722.4282</ele>
        <time>2014-03-02T14:38:41Z</time>
      </trkpt>
      <trkpt lat="45.60069" lon="6.65935">
        <ele>1717.834</ele>
        <time>2014-03-02T14:38:52Z</time>
      </trkpt>
      <trkpt lat="45.60069" lon="6.65936">
        <ele>1717.834</ele>
        <time>2014-03-02T14:38:57Z</time>
      </trkpt>
      <trkpt lat="45.60069" lon="6.65936">
        <ele>1717.834</ele>
        <time>2014-03-02T14:39:02Z</time>
      </trkpt>
      <trkpt lat="45.60069" lon="6.65936">
        <ele>1717.834</ele>
        <time>2014-03-02T14:39:09Z</time>
      </trkpt>
      <trkpt lat="45.60069" lon="6.65936">
        <ele>1717.834</ele>
        <time>2014-03-02T14:39:21Z</time>
      </trkpt>
      <trkpt lat="45.60069" lon="6.65935">
        <ele>1717.834</ele>
        <time>2014-03-02T14:40:02Z</time>
      </trkpt>
      <trkpt lat="45.60069" lon="6.65935">
        <ele>1717.834</ele>
        <time>2014-03-02T14:40:20Z</time>
      </trkpt>
      <trkpt lat="45.60076" lon="6.65974">
        <ele>1714.0985</ele>
        <time>2014-03-02T14:40:44Z</time>
      </trkpt>
      <trkpt lat="45.60079" lon="6.6598">
        <ele>1714.0985</ele>
        <time>2014-03-02T14:40:55Z</time>
      </trkpt>
      <trkpt lat="45.60079" lon="6.65981">
        <ele>1714.0985</ele>
        <time>2014-03-02T14:40:57Z</time>
      </trkpt>
      <trkpt lat="45.60079" lon="6.65981">
        <ele>1714.0985</ele>
        <time>2014-03-02T14:41:07Z</time>
      </trkpt>
      <trkpt lat="45.60092" lon="6.66135">
        <ele>1708.9574</ele>
        <time>2014-03-02T14:41:53Z</time>
      </trkpt>
      <trkpt lat="45.601" lon="6.66156">
        <ele>1704.0491</ele>
        <time>2014-03-02T14:42:01Z</time>
      </trkpt>
      <trkpt lat="45.60102" lon="6.66156">
        <ele>1704.0491</ele>
        <time>2014-03-02T14:42:06Z</time>
      </trkpt>
      <trkpt lat="45.60101" lon="6.66156">
        <ele>1704.0491</ele>
        <time>2014-03-02T14:42:17Z</time>
      </trkpt>
      <trkpt lat="45.60101" lon="6.66156">
        <ele>1704.0491</ele>
        <time>2014-03-02T14:42:28Z</time>
      </trkpt>
      <trkpt lat="45.60101" lon="6.66156">
        <ele>1704.0491</ele>
        <time>2014-03-02T14:42:34Z</time>
      </trkpt>
      <trkpt lat="45.60101" lon="6.66156">
        <ele>1704.0491</ele>
        <time>2014-03-02T14:42:38Z</time>
      </trkpt>
      <trkpt lat="45.60101" lon="6.66156">
        <ele>1704.0491</ele>
        <time>2014-03-02T14:42:43Z</time>
      </trkpt>
      <trkpt lat="45.60101" lon="6.66157">
        <ele>1704.0491</ele>
        <time>2014-03-02T14:42:49Z</time>
      </trkpt>
      <trkpt lat="45.60101" lon="6.66157">
        <ele>1704.0491</ele>
        <time>2014-03-02T14:42:53Z</time>
      </trkpt>
      <trkpt lat="45.60101" lon="6.66157">
        <ele>1704.0491</ele>
        <time>2014-03-02T14:43:04Z</time>
      </trkpt>
      <trkpt lat="45.60051" lon="6.66229">
        <ele>1696.2651</ele>
        <time>2014-03-02T14:43:22Z</time>
      </trkpt>
      <trkpt lat="45.60034" lon="6.66215">
        <ele>1688.6136</ele>
        <time>2014-03-02T14:43:33Z</time>
      </trkpt>
      <trkpt lat="45.60032" lon="6.66216">
        <ele>1688.6136</ele>
        <time>2014-03-02T14:43:33Z</time>
      </trkpt>
      <trkpt lat="45.60029" lon="6.66222">
        <ele>1688.6136</ele>
        <time>2014-03-02T14:43:40Z</time>
      </trkpt>
      <trkpt lat="45.60035" lon="6.66217">
        <ele>1681.1</ele>
        <time>2014-03-02T14:43:55Z</time>
      </trkpt>
      <trkpt lat="45.60036" lon="6.66216">
        <ele>1681.1</ele>
        <time>2014-03-02T14:44:07Z</time>
      </trkpt>
      <trkpt lat="45.60036" lon="6.66216">
        <ele>1681.1</ele>
        <time>2014-03-02T14:44:07Z</time>
      </trkpt>
      <trkpt lat="45.60036" lon="6.66216">
        <ele>1681.1</ele>
        <time>2014-03-02T14:44:18Z</time>
      </trkpt>
      <trkpt lat="45.60036" lon="6.66219">
        <ele>1681.1</ele>
        <time>2014-03-02T14:45:07Z</time>
      </trkpt>
      <trkpt lat="45.60036" lon="6.66223">
        <ele>1681.1</ele>
        <time>2014-03-02T14:45:16Z</time>
      </trkpt>
      <trkpt lat="45.60032" lon="6.66248">
        <ele>1673.2964</ele>
        <time>2014-03-02T14:45:16Z</time>
      </trkpt>
      <trkpt lat="45.60024" lon="6.66283">
        <ele>1667.5026</ele>
        <time>2014-03-02T14:45:28Z</time>
      </trkpt>
      <trkpt lat="45.60002" lon="6.66324">
        <ele>1660.5259</ele>
        <time>2014-03-02T14:45:58Z</time>
      </trkpt>
      <trkpt lat="45.60002" lon="6.66324">
        <ele>1660.5259</ele>
        <time>2014-03-02T14:46:05Z</time>
      </trkpt>
      <trkpt lat="45.60002" lon="6.66325">
        <ele>1660.5259</ele>
        <time>2014-03-02T14:46:16Z</time>
      </trkpt>
      <trkpt lat="45.60002" lon="6.66326">
        <ele>1660.5259</ele>
        <time>2014-03-02T14:46:26Z</time>
      </trkpt>
      <trkpt lat="45.60002" lon="6.66326">
        <ele>1660.5259</ele>
        <time>2014-03-02T14:46:37Z</time>
      </trkpt>
      <trkpt lat="45.60002" lon="6.66326">
        <ele>1660.5259</ele>
        <time>2014-03-02T14:46:53Z</time>
      </trkpt>
      <trkpt lat="45.59994" lon="6.66341">
        <ele>1653.7639</ele>
        <time>2014-03-02T14:47:03Z</time>
      </trkpt>
      <trkpt lat="45.59988" lon="6.66341">
        <ele>1653.7639</ele>
        <time>2014-03-02T14:47:08Z</time>
      </trkpt>
      <trkpt lat="45.59979" lon="6.6637">
        <ele>1646.8105</ele>
        <time>2014-03-02T14:47:20Z</time>
      </trkpt>
      <trkpt lat="45.59979" lon="6.6637">
        <ele>1646.8105</ele>
        <time>2014-03-02T14:47:21Z</time>
      </trkpt>
      <trkpt lat="45.59977" lon="6.66377">
        <ele>1646.8105</ele>
        <time>2014-03-02T14:47:34Z</time>
      </trkpt>
      <trkpt lat="45.59977" lon="6.66377">
        <ele>1646.8105</ele>
        <time>2014-03-02T14:48:01Z</time>
      </trkpt>
      <trkpt lat="45.59976" lon="6.66378">
        <ele>1646.8105</ele>
        <time>2014-03-02T14:48:01Z</time>
      </trkpt>
      <trkpt lat="45.59976" lon="6.66378">
        <ele>1646.8105</ele>
        <time>2014-03-02T14:48:11Z</time>
      </trkpt>
      <trkpt lat="45.59976" lon="6.66378">
        <ele>1646.8105</ele>
        <time>2014-03-02T14:48:19Z</time>
      </trkpt>
      <trkpt lat="45.59967" lon="6.66425">
        <ele>1639.0449</ele>
        <time>2014-03-02T14:48:37Z</time>
      </trkpt>
      <trkpt lat="45.5996" lon="6.6647">
        <ele>1630.5142</ele>
        <time>2014-03-02T14:48:47Z</time>
      </trkpt>
      <trkpt lat="45.59957" lon="6.66483">
        <ele>1622.7196</ele>
        <time>2014-03-02T14:48:53Z</time>
      </trkpt>
      <trkpt lat="45.59959" lon="6.66485">
        <ele>1622.7196</ele>
        <time>2014-03-02T14:48:56Z</time>
      </trkpt>
      <trkpt lat="45.59962" lon="6.66489">
        <ele>1622.7196</ele>
        <time>2014-03-02T14:49:03Z</time>
      </trkpt>
      <trkpt lat="45.59961" lon="6.66505">
        <ele>1616.0989</ele>
        <time>2014-03-02T14:49:09Z</time>
      </trkpt>
      <trkpt lat="45.59962" lon="6.66506">
        <ele>1616.0989</ele>
        <time>2014-03-02T14:49:12Z</time>
      </trkpt>
      <trkpt lat="45.59961" lon="6.66509">
        <ele>1616.0989</ele>
        <time>2014-03-02T14:49:25Z</time>
      </trkpt>
      <trkpt lat="45.59961" lon="6.66509">
        <ele>1616.0989</ele>
        <time>2014-03-02T14:49:33Z</time>
      </trkpt>
      <trkpt lat="45.59961" lon="6.66509">
        <ele>1616.0989</ele>
        <time>2014-03-02T14:49:52Z</time>
      </trkpt>
      <trkpt lat="45.59961" lon="6.66509">
        <ele>1616.0989</ele>
        <time>2014-03-02T14:50:06Z</time>
      </trkpt>
      <trkpt lat="45.59956" lon="6.66513">
        <ele>1616.0989</ele>
        <time>2014-03-02T14:50:21Z</time>
      </trkpt>
      <trkpt lat="45.59945" lon="6.66519">
        <ele>1609.2244</ele>
        <time>2014-03-02T14:50:31Z</time>
      </trkpt>
      <trkpt lat="45.59945" lon="6.66518">
        <ele>1609.2244</ele>
        <time>2014-03-02T14:50:38Z</time>
      </trkpt>
      <trkpt lat="45.59937" lon="6.66527">
        <ele>1602.6904</ele>
        <time>2014-03-02T14:51:01Z</time>
      </trkpt>
      <trkpt lat="45.59937" lon="6.66527">
        <ele>1602.6904</ele>
        <time>2014-03-02T14:51:02Z</time>
      </trkpt>
      <trkpt lat="45.59931" lon="6.6654">
        <ele>1596.3123</ele>
        <time>2014-03-02T14:51:12Z</time>
      </trkpt>
      <trkpt lat="45.59931" lon="6.66544">
        <ele>1596.3123</ele>
        <time>2014-03-02T14:51:26Z</time>
      </trkpt>
      <trkpt lat="45.59931" lon="6.66544">
        <ele>1596.3123</ele>
        <time>2014-03-02T14:51:49Z</time>
      </trkpt>
      <trkpt lat="45.59931" lon="6.66544">
        <ele>1596.3123</ele>
        <time>2014-03-02T14:51:59Z</time>
      </trkpt>
      <trkpt lat="45.59931" lon="6.66544">
        <ele>1596.3123</ele>
        <time>2014-03-02T14:52:02Z</time>
      </trkpt>
      <trkpt lat="45.59931" lon="6.66544">
        <ele>1596.3123</ele>
        <time>2014-03-02T14:52:08Z</time>
      </trkpt>
      <trkpt lat="45.59932" lon="6.66544">
        <ele>1596.3123</ele>
        <time>2014-03-02T14:52:12Z</time>
      </trkpt>
      <trkpt lat="45.59932" lon="6.66544">
        <ele>1596.3123</ele>
        <time>2014-03-02T14:52:31Z</time>
      </trkpt>
      <trkpt lat="45.5993" lon="6.66568">
        <ele>1589.111</ele>
        <time>2014-03-02T14:52:43Z</time>
      </trkpt>
      <trkpt lat="45.59929" lon="6.66566">
        <ele>1589.111</ele>
        <time>2014-03-02T14:52:54Z</time>
      </trkpt>
      <trkpt lat="45.59929" lon="6.66566">
        <ele>1589.111</ele>
        <time>2014-03-02T14:52:57Z</time>
      </trkpt>
      <trkpt lat="45.59929" lon="6.66566">
        <ele>1589.111</ele>
        <time>2014-03-02T14:53:02Z</time>
      </trkpt>
      <trkpt lat="45.59929" lon="6.66566">
        <ele>1589.111</ele>
        <time>2014-03-02T14:53:22Z</time>
      </trkpt>
      <trkpt lat="45.59929" lon="6.66566">
        <ele>1589.111</ele>
        <time>2014-03-02T14:53:29Z</time>
      </trkpt>
      <trkpt lat="45.59927" lon="6.66565">
        <ele>1589.111</ele>
        <time>2014-03-02T14:53:42Z</time>
      </trkpt>
      <trkpt lat="45.59889" lon="6.66591">
        <ele>1579.8215</ele>
        <time>2014-03-02T14:54:03Z</time>
      </trkpt>
      <trkpt lat="45.59889" lon="6.66591">
        <ele>1579.8215</ele>
        <time>2014-03-02T14:54:08Z</time>
      </trkpt>
      <trkpt lat="45.5989" lon="6.6659">
        <ele>1579.8215</ele>
        <time>2014-03-02T14:54:21Z</time>
      </trkpt>
      <trkpt lat="45.5989" lon="6.6659">
        <ele>1579.8215</ele>
        <time>2014-03-02T14:54:31Z</time>
      </trkpt>
      <trkpt lat="45.5989" lon="6.66589">
        <ele>1579.8215</ele>
        <time>2014-03-02T14:54:41Z</time>
      </trkpt>
      <trkpt lat="45.5989" lon="6.66589">
        <ele>1579.8215</ele>
        <time>2014-03-02T14:54:47Z</time>
      </trkpt>
      <trkpt lat="45.5989" lon="6.66589">
        <ele>1579.8215</ele>
        <time>2014-03-02T14:55:06Z</time>
      </trkpt>
      <trkpt lat="45.5989" lon="6.66589">
        <ele>1579.8215</ele>
        <time>2014-03-02T14:55:06Z</time>
      </trkpt>
      <trkpt lat="45.59879" lon="6.66601">
        <ele>1570.6504</ele>
        <time>2014-03-02T14:55:23Z</time>
      </trkpt>
      <trkpt lat="45.59867" lon="6.66642">
        <ele>1562.4307</ele>
        <time>2014-03-02T14:55:32Z</time>
      </trkpt>
      <trkpt lat="45.59875" lon="6.66641">
        <ele>1562.4307</ele>
        <time>2014-03-02T14:55:49Z</time>
      </trkpt>
      <trkpt lat="45.59875" lon="6.66641">
        <ele>1562.4307</ele>
        <time>2014-03-02T14:55:52Z</time>
      </trkpt>
      <trkpt lat="45.59875" lon="6.66641">
        <ele>1562.4307</ele>
        <time>2014-03-02T14:55:59Z</time>
      </trkpt>
      <trkpt lat="45.59875" lon="6.66641">
        <ele>1562.4307</ele>
        <time>2014-03-02T14:56:01Z</time>
      </trkpt>
      <trkpt lat="45.59875" lon="6.66641">
        <ele>1562.4307</ele>
        <time>2014-03-02T14:56:11Z</time>
      </trkpt>
      <trkpt lat="45.59875" lon="6.66641">
        <ele>1562.4307</ele>
        <time>2014-03-02T14:56:25Z</time>
      </trkpt>
      <trkpt lat="45.59875" lon="6.66641">
        <ele>1562.4307</ele>
        <time>2014-03-02T14:56:34Z</time>
      </trkpt>
      <trkpt lat="45.5987" lon="6.66676">
        <ele>1553.8422</ele>
        <time>2014-03-02T14:56:46Z</time>
      </trkpt>
      <trkpt lat="45.59855" lon="6.66742">
        <ele>1543.3888</ele>
        <time>2014-03-02T14:57:03Z</time>
      </trkpt>
      <trkpt lat="45.59843" lon="6.66732">
        <ele>1533.5518</ele>
        <time>2014-03-02T14:57:07Z</time>
      </trkpt>
      <trkpt lat="45.59836" lon="6.6675">
        <ele>1523.8182</ele>
        <time>2014-03-02T14:57:14Z</time>
      </trkpt>
      <trkpt lat="45.59844" lon="6.66758">
        <ele>1515.067</ele>
        <time>2014-03-02T14:57:23Z</time>
      </trkpt>
      <trkpt lat="45.59845" lon="6.66759">
        <ele>1515.067</ele>
        <time>2014-03-02T14:57:28Z</time>
      </trkpt>
      <trkpt lat="45.59845" lon="6.66758">
        <ele>1515.067</ele>
        <time>2014-03-02T14:57:39Z</time>
      </trkpt>
      <trkpt lat="45.59845" lon="6.66758">
        <ele>1515.067</ele>
        <time>2014-03-02T14:57:45Z</time>
      </trkpt>
      <trkpt lat="45.59845" lon="6.66758">
        <ele>1515.067</ele>
        <time>2014-03-02T14:57:47Z</time>
      </trkpt>
      <trkpt lat="45.59845" lon="6.66758">
        <ele>1515.067</ele>
        <time>2014-03-02T14:57:54Z</time>
      </trkpt>
      <trkpt lat="45.59845" lon="6.66758">
        <ele>1515.067</ele>
        <time>2014-03-02T14:57:57Z</time>
      </trkpt>
      <trkpt lat="45.59845" lon="6.66758">
        <ele>1515.067</ele>
        <time>2014-03-02T14:58:03Z</time>
      </trkpt>
      <trkpt lat="45.59845" lon="6.66758">
        <ele>1515.067</ele>
        <time>2014-03-02T14:58:15Z</time>
      </trkpt>
      <trkpt lat="45.59845" lon="6.66758">
        <ele>1515.067</ele>
        <time>2014-03-02T14:58:22Z</time>
      </trkpt>
      <trkpt lat="45.59845" lon="6.66758">
        <ele>1515.067</ele>
        <time>2014-03-02T14:58:29Z</time>
      </trkpt>
      <trkpt lat="45.59845" lon="6.66758">
        <ele>1515.067</ele>
        <time>2014-03-02T14:58:39Z</time>
      </trkpt>
      <trkpt lat="45.59845" lon="6.66758">
        <ele>1515.067</ele>
        <time>2014-03-02T14:58:42Z</time>
      </trkpt>
      <trkpt lat="45.59836" lon="6.66763">
        <ele>1506.5101</ele>
        <time>2014-03-02T14:58:56Z</time>
      </trkpt>
      <trkpt lat="45.59827" lon="6.66809">
        <ele>1499.2184</ele>
        <time>2014-03-02T14:59:04Z</time>
      </trkpt>
      <trkpt lat="45.59825" lon="6.66812">
        <ele>1499.2184</ele>
        <time>2014-03-02T14:59:16Z</time>
      </trkpt>
      <trkpt lat="45.59826" lon="6.66818">
        <ele>1499.2184</ele>
        <time>2014-03-02T14:59:27Z</time>
      </trkpt>
      <trkpt lat="45.59826" lon="6.66818">
        <ele>1499.2184</ele>
        <time>2014-03-02T14:59:27Z</time>
      </trkpt>
      <trkpt lat="45.59829" lon="6.66838">
        <ele>1493.3295</ele>
        <time>2014-03-02T14:59:35Z</time>
      </trkpt>
      <trkpt lat="45.59827" lon="6.66836">
        <ele>1493.3295</ele>
        <time>2014-03-02T14:59:47Z</time>
      </trkpt>
      <trkpt lat="45.59829" lon="6.66836">
        <ele>1493.3295</ele>
        <time>2014-03-02T14:59:53Z</time>
      </trkpt>
      <trkpt lat="45.59829" lon="6.66836">
        <ele>1493.3295</ele>
        <time>2014-03-02T14:59:58Z</time>
      </trkpt>
      <trkpt lat="45.59829" lon="6.66836">
        <ele>1493.3295</ele>
        <time>2014-03-02T15:00:05Z</time>
      </trkpt>
      <trkpt lat="45.59829" lon="6.66836">
        <ele>1493.3295</ele>
        <time>2014-03-02T15:00:06Z</time>
      </trkpt>
      <trkpt lat="45.59829" lon="6.66836">
        <ele>1493.3295</ele>
        <time>2014-03-02T15:00:14Z</time>
      </trkpt>
      <trkpt lat="45.59829" lon="6.66836">
        <ele>1493.3295</ele>
        <time>2014-03-02T15:00:18Z</time>
      </trkpt>
      <trkpt lat="45.59833" lon="6.66856">
        <ele>1488.8811</ele>
        <time>2014-03-02T15:00:22Z</time>
      </trkpt>
      <trkpt lat="45.59836" lon="6.66869">
        <ele>1484.3618</ele>
        <time>2014-03-02T15:00:27Z</time>
      </trkpt>
      <trkpt lat="45.59806" lon="6.66906">
        <ele>1479.4377</ele>
        <time>2014-03-02T15:00:31Z</time>
      </trkpt>
      <trkpt lat="45.59807" lon="6.66914">
        <ele>1479.4377</ele>
        <time>2014-03-02T15:00:37Z</time>
      </trkpt>
      <trkpt lat="45.59808" lon="6.66915">
        <ele>1479.4377</ele>
        <time>2014-03-02T15:00:45Z</time>
      </trkpt>
      <trkpt lat="45.59809" lon="6.66916">
        <ele>1479.4377</ele>
        <time>2014-03-02T15:00:47Z</time>
      </trkpt>
      <trkpt lat="45.59809" lon="6.66916">
        <ele>1479.4377</ele>
        <time>2014-03-02T15:00:59Z</time>
      </trkpt>
      <trkpt lat="45.59809" lon="6.66916">
        <ele>1479.4377</ele>
        <time>2014-03-02T15:01:03Z</time>
      </trkpt>
      <trkpt lat="45.59809" lon="6.66916">
        <ele>1479.4377</ele>
        <time>2014-03-02T15:01:08Z</time>
      </trkpt>
      <trkpt lat="45.59808" lon="6.66917">
        <ele>1474.4204</ele>
        <time>2014-03-02T15:01:16Z</time>
      </trkpt>
      <trkpt lat="45.59809" lon="6.66914">
        <ele>1474.4204</ele>
        <time>2014-03-02T15:01:16Z</time>
      </trkpt>
      <trkpt lat="45.5981" lon="6.66914">
        <ele>1474.4204</ele>
        <time>2014-03-02T15:01:22Z</time>
      </trkpt>
      <trkpt lat="45.59809" lon="6.66914">
        <ele>1474.4204</ele>
        <time>2014-03-02T15:01:29Z</time>
      </trkpt>
      <trkpt lat="45.59761" lon="6.6695">
        <ele>1465.405</ele>
        <time>2014-03-02T15:01:41Z</time>
      </trkpt>
      <trkpt lat="45.59738" lon="6.66939">
        <ele>1461.9135</ele>
        <time>2014-03-02T15:03:04Z</time>
      </trkpt>
      <trkpt lat="45.59616" lon="6.66777">
        <ele>1455.5023</ele>
        <time>2014-03-02T15:04:24Z</time>
      </trkpt>
      <trkpt lat="45.59601" lon="6.66785">
        <ele>1450.0878</ele>
        <time>2014-03-02T15:04:32Z</time>
      </trkpt>
      <trkpt lat="45.59648" lon="6.66989">
        <ele>1441.4844</ele>
        <time>2014-03-02T15:05:29Z</time>
      </trkpt>
      <trkpt lat="45.5928" lon="6.67084">
        <ele>1434.6282</ele>
        <time>2014-03-02T15:07:10Z</time>
      </trkpt>
      <trkpt lat="45.59185" lon="6.67103">
        <ele>1429.2605</ele>
        <time>2014-03-02T15:08:09Z</time>
      </trkpt>
      <trkpt lat="45.59183" lon="6.67099">
        <ele>1429.2605</ele>
        <time>2014-03-02T15:08:28Z</time>
      </trkpt>
      <trkpt lat="45.59174" lon="6.67093">
        <ele>1423.3358</ele>
        <time>2014-03-02T15:08:33Z</time>
      </trkpt>
      <trkpt lat="45.59167" lon="6.67091">
        <ele>1423.3358</ele>
        <time>2014-03-02T15:08:40Z</time>
      </trkpt>
      <trkpt lat="45.5916" lon="6.67092">
        <ele>1416.6178</ele>
        <time>2014-03-02T15:08:48Z</time>
      </trkpt>
      <trkpt lat="45.59144" lon="6.6709">
        <ele>1411.0947</ele>
        <time>2014-03-02T15:09:03Z</time>
      </trkpt>
      <trkpt lat="45.59146" lon="6.67086">
        <ele>1411.0947</ele>
        <time>2014-03-02T15:09:09Z</time>
      </trkpt>
      <trkpt lat="45.59146" lon="6.67079">
        <ele>1411.0947</ele>
        <time>2014-03-02T15:09:25Z</time>
      </trkpt>
      <trkpt lat="45.59145" lon="6.67078">
        <ele>1411.0947</ele>
        <time>2014-03-02T15:09:27Z</time>
      </trkpt>
      <trkpt lat="45.59143" lon="6.67077">
        <ele>1404.4407</ele>
        <time>2014-03-02T15:10:04Z</time>
      </trkpt>
      <trkpt lat="45.59143" lon="6.67077">
        <ele>1404.4407</ele>
        <time>2014-03-02T15:10:17Z</time>
      </trkpt>
      <trkpt lat="45.59143" lon="6.67078">
        <ele>1404.4407</ele>
        <time>2014-03-02T15:10:25Z</time>
      </trkpt>
      <trkpt lat="45.59143" lon="6.67079">
        <ele>1404.4407</ele>
        <time>2014-03-02T15:10:38Z</time>
      </trkpt>
      <trkpt lat="45.59143" lon="6.67079">
        <ele>1404.4407</ele>
        <time>2014-03-02T15:10:44Z</time>
      </trkpt>
      <trkpt lat="45.59144" lon="6.6708">
        <ele>1404.4407</ele>
        <time>2014-03-02T15:10:57Z</time>
      </trkpt>
      <trkpt lat="45.59144" lon="6.6708">
        <ele>1404.4407</ele>
        <time>2014-03-02T15:11:03Z</time>
      </trkpt>
      <trkpt lat="45.59144" lon="6.6708">
        <ele>1404.4407</ele>
        <time>2014-03-02T15:11:08Z</time>
      </trkpt>
      <trkpt lat="45.59144" lon="6.6708">
        <ele>1404.4407</ele>
        <time>2014-03-02T15:11:14Z</time>
      </trkpt>
      <trkpt lat="45.59141" lon="6.67081">
        <ele>1404.4407</ele>
        <time>2014-03-02T15:11:19Z</time>
      </trkpt>
      <trkpt lat="45.59141" lon="6.67081">
        <ele>1404.4407</ele>
        <time>2014-03-02T15:11:22Z</time>
      </trkpt>
      <trkpt lat="45.59141" lon="6.67081">
        <ele>1404.4407</ele>
        <time>2014-03-02T15:11:27Z</time>
      </trkpt>
      <trkpt lat="45.59141" lon="6.67081">
        <ele>1404.4407</ele>
        <time>2014-03-02T15:11:33Z</time>
      </trkpt>
      <trkpt lat="45.5914" lon="6.67081">
        <ele>1404.4407</ele>
        <time>2014-03-02T15:11:40Z</time>
      </trkpt>
      <trkpt lat="45.59141" lon="6.6708">
        <ele>1404.4407</ele>
        <time>2014-03-02T15:12:22Z</time>
      </trkpt>
      <trkpt lat="45.59139" lon="6.67078">
        <ele>1399.7927</ele>
        <time>2014-03-02T15:12:26Z</time>
      </trkpt>
      <trkpt lat="45.59139" lon="6.67078">
        <ele>1399.7927</ele>
        <time>2014-03-02T15:12:31Z</time>
      </trkpt>
      <trkpt lat="45.59139" lon="6.67078">
        <ele>1399.7927</ele>
        <time>2014-03-02T15:12:36Z</time>
      </trkpt>
      <trkpt lat="45.59139" lon="6.67078">
        <ele>1399.7927</ele>
        <time>2014-03-02T15:12:41Z</time>
      </trkpt>
      <trkpt lat="45.59139" lon="6.67078">
        <ele>1399.7927</ele>
        <time>2014-03-02T15:12:46Z</time>
      </trkpt>
      <trkpt lat="45.59139" lon="6.67078">
        <ele>1399.7927</ele>
        <time>2014-03-02T15:12:51Z</time>
      </trkpt>
      <trkpt lat="45.59139" lon="6.67078">
        <ele>1399.7927</ele>
        <time>2014-03-02T15:12:56Z</time>
      </trkpt>
      <trkpt lat="45.59139" lon="6.67078">
        <ele>1399.7927</ele>
        <time>2014-03-02T15:13:01Z</time>
      </trkpt>
    </trkseg>
  </trk>
</gpx>